<?xml version="1.0" encoding="UTF-8" standalone="no" ?>
<gpx xmlns="http://www.topografix.com/GPX/1/1" xmlns:xsi="http://www.w3.org/2001/XMLSchema-instance" xsi:schemaLocation="http://www.topografix.com/GPX/1/1 http://www.topografix.com/GPX/1/1/gpx.xsd" version="1.1" creator="VisuGPX - https://www.visugpx.com">
  <metadata>
    <name>URDAX (ESP)_Parcouors de 25 km-1500mD+</name>
    <desc><![CDATA[Beau parcours de niveau 7,5/10]]></desc>
  </metadata>
  <trk>
    <name><![CDATA[URDAX (ESP)_Parcouors de 25 km-1500mD+_1]]></name>
    <desc><![CDATA[]]></desc>
    <extensions>
      <line xmlns="http://www.topografix.com/GPX/gpx_style/0/2">
        <color>0000FF</color>
        <width>4</width>
          <extensions>
            <sens>1</sens>
          </extensions>
      </line>
    </extensions>
    <trkseg>
      <trkpt lat="43.26644" lon="-1.50368">
        <ele>93.74</ele>
        <time>2025-05-07T14:43:34.000Z</time>
      </trkpt>
      <trkpt lat="43.26642" lon="-1.50363">
        <ele>93.87</ele>
        <time>2025-05-07T14:43:34.001Z</time>
      </trkpt>
      <trkpt lat="43.26645" lon="-1.50354">
        <ele>94.08</ele>
        <time>2025-05-07T14:43:34.005Z</time>
      </trkpt>
      <trkpt lat="43.26655" lon="-1.50332">
        <ele>94.35</ele>
        <time>2025-05-07T14:43:34.015Z</time>
      </trkpt>
      <trkpt lat="43.26667" lon="-1.50319">
        <ele>94.62</ele>
        <time>2025-05-07T14:43:34.030Z</time>
      </trkpt>
      <trkpt lat="43.26673" lon="-1.50315">
        <ele>94.98</ele>
        <time>2025-05-07T14:43:34.047Z</time>
      </trkpt>
      <trkpt lat="43.26683" lon="-1.50296">
        <ele>95.37</ele>
        <time>2025-05-07T14:43:34.070Z</time>
      </trkpt>
      <trkpt lat="43.26691" lon="-1.50283">
        <ele>95.89</ele>
        <time>2025-05-07T14:43:34.097Z</time>
      </trkpt>
      <trkpt lat="43.26702" lon="-1.50276">
        <ele>96.55</ele>
        <time>2025-05-07T14:43:34.128Z</time>
      </trkpt>
      <trkpt lat="43.26712" lon="-1.50275">
        <ele>97.34</ele>
        <time>2025-05-07T14:43:34.163Z</time>
      </trkpt>
      <trkpt lat="43.26716" lon="-1.50267">
        <ele>98.29</ele>
        <time>2025-05-07T14:43:34.200Z</time>
      </trkpt>
      <trkpt lat="43.26723" lon="-1.50256">
        <ele>99.44</ele>
        <time>2025-05-07T14:43:34.241Z</time>
      </trkpt>
      <trkpt lat="43.26738" lon="-1.50242">
        <ele>100.86</ele>
        <time>2025-05-07T14:43:34.288Z</time>
      </trkpt>
      <trkpt lat="43.26748" lon="-1.50236">
        <ele>102.34</ele>
        <time>2025-05-07T14:43:34.338Z</time>
      </trkpt>
      <trkpt lat="43.26766" lon="-1.50226">
        <ele>103.93</ele>
        <time>2025-05-07T14:43:34.395Z</time>
      </trkpt>
      <trkpt lat="43.26782" lon="-1.50203">
        <ele>105.78</ele>
        <time>2025-05-07T14:43:34.459Z</time>
      </trkpt>
      <trkpt lat="43.26792" lon="-1.50186">
        <ele>107.74</ele>
        <time>2025-05-07T14:43:34.529Z</time>
      </trkpt>
      <trkpt lat="43.26802" lon="-1.50169">
        <ele>109.86</ele>
        <time>2025-05-07T14:43:34.604Z</time>
      </trkpt>
      <trkpt lat="43.26805" lon="-1.50164">
        <ele>111.92</ele>
        <time>2025-05-07T14:43:34.681Z</time>
      </trkpt>
      <trkpt lat="43.26818" lon="-1.50149">
        <ele>114.1</ele>
        <time>2025-05-07T14:43:34.763Z</time>
      </trkpt>
      <trkpt lat="43.26827" lon="-1.50145">
        <ele>116.14</ele>
        <time>2025-05-07T14:43:34.849Z</time>
      </trkpt>
      <trkpt lat="43.26837" lon="-1.50135">
        <ele>118.15</ele>
        <time>2025-05-07T14:43:34.939Z</time>
      </trkpt>
      <trkpt lat="43.2685" lon="-1.50096">
        <ele>120.92</ele>
        <time>2025-05-07T14:43:35.039Z</time>
      </trkpt>
      <trkpt lat="43.26851" lon="-1.50094">
        <ele>123.23</ele>
        <time>2025-05-07T14:43:35.140Z</time>
      </trkpt>
      <trkpt lat="43.26857" lon="-1.50071">
        <ele>125.79</ele>
        <time>2025-05-07T14:43:35.247Z</time>
      </trkpt>
      <trkpt lat="43.26861" lon="-1.50047">
        <ele>128.26</ele>
        <time>2025-05-07T14:43:35.360Z</time>
      </trkpt>
      <trkpt lat="43.26858" lon="-1.50012">
        <ele>130.91</ele>
        <time>2025-05-07T14:43:35.481Z</time>
      </trkpt>
      <trkpt lat="43.26861" lon="-1.49999">
        <ele>133.3</ele>
        <time>2025-05-07T14:43:35.606Z</time>
      </trkpt>
      <trkpt lat="43.26867" lon="-1.49986">
        <ele>135.67</ele>
        <time>2025-05-07T14:43:35.734Z</time>
      </trkpt>
      <trkpt lat="43.26872" lon="-1.4998">
        <ele>137.83</ele>
        <time>2025-05-07T14:43:35.864Z</time>
      </trkpt>
      <trkpt lat="43.26897" lon="-1.49955">
        <ele>139.96</ele>
        <time>2025-05-07T14:43:36.005Z</time>
      </trkpt>
      <trkpt lat="43.26901" lon="-1.49951">
        <ele>141.91</ele>
        <time>2025-05-07T14:43:36.147Z</time>
      </trkpt>
      <trkpt lat="43.26915" lon="-1.49936">
        <ele>143.73</ele>
        <time>2025-05-07T14:43:36.295Z</time>
      </trkpt>
      <trkpt lat="43.26927" lon="-1.49922">
        <ele>145.43</ele>
        <time>2025-05-07T14:43:36.449Z</time>
      </trkpt>
      <trkpt lat="43.26939" lon="-1.49908">
        <ele>147.01</ele>
        <time>2025-05-07T14:43:36.608Z</time>
      </trkpt>
      <trkpt lat="43.26957" lon="-1.49887">
        <ele>148.59</ele>
        <time>2025-05-07T14:43:36.775Z</time>
      </trkpt>
      <trkpt lat="43.26979" lon="-1.49857">
        <ele>150.26</ele>
        <time>2025-05-07T14:43:36.952Z</time>
      </trkpt>
      <trkpt lat="43.2699" lon="-1.49842">
        <ele>151.75</ele>
        <time>2025-05-07T14:43:37.134Z</time>
      </trkpt>
      <trkpt lat="43.27001" lon="-1.49828">
        <ele>153.25</ele>
        <time>2025-05-07T14:43:37.321Z</time>
      </trkpt>
      <trkpt lat="43.27006" lon="-1.49817">
        <ele>154.68</ele>
        <time>2025-05-07T14:43:37.511Z</time>
      </trkpt>
      <trkpt lat="43.27016" lon="-1.49791">
        <ele>156.17</ele>
        <time>2025-05-07T14:43:37.709Z</time>
      </trkpt>
      <trkpt lat="43.2703" lon="-1.49785">
        <ele>157.57</ele>
        <time>2025-05-07T14:43:37.911Z</time>
      </trkpt>
      <trkpt lat="43.27043" lon="-1.49781">
        <ele>158.92</ele>
        <time>2025-05-07T14:43:38.118Z</time>
      </trkpt>
      <trkpt lat="43.27056" lon="-1.4977">
        <ele>160.17</ele>
        <time>2025-05-07T14:43:38.330Z</time>
      </trkpt>
      <trkpt lat="43.27063" lon="-1.49756">
        <ele>161.35</ele>
        <time>2025-05-07T14:43:38.546Z</time>
      </trkpt>
      <trkpt lat="43.27065" lon="-1.49713">
        <ele>162.61</ele>
        <time>2025-05-07T14:43:38.773Z</time>
      </trkpt>
      <trkpt lat="43.27066" lon="-1.49703">
        <ele>163.73</ele>
        <time>2025-05-07T14:43:39.002Z</time>
      </trkpt>
      <trkpt lat="43.27075" lon="-1.49675">
        <ele>164.75</ele>
        <time>2025-05-07T14:43:39.239Z</time>
      </trkpt>
      <trkpt lat="43.27076" lon="-1.49662">
        <ele>165.7</ele>
        <time>2025-05-07T14:43:39.479Z</time>
      </trkpt>
      <trkpt lat="43.27073" lon="-1.49645">
        <ele>166.61</ele>
        <time>2025-05-07T14:43:39.723Z</time>
      </trkpt>
      <trkpt lat="43.27055" lon="-1.49618">
        <ele>167.6</ele>
        <time>2025-05-07T14:43:39.976Z</time>
      </trkpt>
      <trkpt lat="43.2705" lon="-1.49605">
        <ele>168.42</ele>
        <time>2025-05-07T14:43:40.232Z</time>
      </trkpt>
      <trkpt lat="43.27047" lon="-1.49576">
        <ele>169.08</ele>
        <time>2025-05-07T14:43:40.496Z</time>
      </trkpt>
      <trkpt lat="43.27043" lon="-1.49555">
        <ele>169.84</ele>
        <time>2025-05-07T14:43:40.765Z</time>
      </trkpt>
      <trkpt lat="43.27039" lon="-1.49534">
        <ele>170.58</ele>
        <time>2025-05-07T14:43:41.039Z</time>
      </trkpt>
      <trkpt lat="43.27037" lon="-1.49522">
        <ele>171.16</ele>
        <time>2025-05-07T14:43:41.316Z</time>
      </trkpt>
      <trkpt lat="43.27032" lon="-1.49491">
        <ele>171.82</ele>
        <time>2025-05-07T14:43:41.601Z</time>
      </trkpt>
      <trkpt lat="43.27025" lon="-1.4945">
        <ele>172.33</ele>
        <time>2025-05-07T14:43:41.896Z</time>
      </trkpt>
      <trkpt lat="43.27028" lon="-1.49426">
        <ele>172.44</ele>
        <time>2025-05-07T14:43:42.197Z</time>
      </trkpt>
      <trkpt lat="43.2703" lon="-1.49417">
        <ele>172.43</ele>
        <time>2025-05-07T14:43:42.500Z</time>
      </trkpt>
      <trkpt lat="43.27037" lon="-1.49405">
        <ele>172.35</ele>
        <time>2025-05-07T14:43:42.807Z</time>
      </trkpt>
      <trkpt lat="43.27048" lon="-1.49387">
        <ele>172.12</ele>
        <time>2025-05-07T14:43:43.120Z</time>
      </trkpt>
      <trkpt lat="43.27067" lon="-1.49381">
        <ele>171.67</ele>
        <time>2025-05-07T14:43:43.439Z</time>
      </trkpt>
      <trkpt lat="43.27079" lon="-1.49381">
        <ele>171.12</ele>
        <time>2025-05-07T14:43:43.762Z</time>
      </trkpt>
      <trkpt lat="43.27073" lon="-1.49374">
        <ele>170.54</ele>
        <time>2025-05-07T14:43:44.088Z</time>
      </trkpt>
      <trkpt lat="43.2705" lon="-1.49371">
        <ele>169.94</ele>
        <time>2025-05-07T14:43:44.422Z</time>
      </trkpt>
      <trkpt lat="43.27034" lon="-1.49369">
        <ele>169.25</ele>
        <time>2025-05-07T14:43:44.761Z</time>
      </trkpt>
      <trkpt lat="43.27013" lon="-1.49352">
        <ele>168.44</ele>
        <time>2025-05-07T14:43:45.108Z</time>
      </trkpt>
      <trkpt lat="43.27001" lon="-1.49336">
        <ele>167.53</ele>
        <time>2025-05-07T14:43:45.461Z</time>
      </trkpt>
      <trkpt lat="43.2699" lon="-1.49314">
        <ele>166.54</ele>
        <time>2025-05-07T14:43:45.820Z</time>
      </trkpt>
      <trkpt lat="43.26978" lon="-1.49278">
        <ele>165.36</ele>
        <time>2025-05-07T14:43:46.189Z</time>
      </trkpt>
      <trkpt lat="43.26974" lon="-1.4927">
        <ele>164.2</ele>
        <time>2025-05-07T14:43:46.560Z</time>
      </trkpt>
      <trkpt lat="43.26964" lon="-1.49256">
        <ele>162.84</ele>
        <time>2025-05-07T14:43:46.936Z</time>
      </trkpt>
      <trkpt lat="43.26953" lon="-1.49243">
        <ele>161.36</ele>
        <time>2025-05-07T14:43:47.317Z</time>
      </trkpt>
      <trkpt lat="43.26941" lon="-1.49236">
        <ele>159.87</ele>
        <time>2025-05-07T14:43:47.702Z</time>
      </trkpt>
      <trkpt lat="43.26927" lon="-1.49228">
        <ele>158.31</ele>
        <time>2025-05-07T14:43:48.092Z</time>
      </trkpt>
      <trkpt lat="43.26912" lon="-1.49219">
        <ele>156.75</ele>
        <time>2025-05-07T14:43:48.488Z</time>
      </trkpt>
      <trkpt lat="43.26902" lon="-1.49213">
        <ele>155.18</ele>
        <time>2025-05-07T14:43:48.887Z</time>
      </trkpt>
      <trkpt lat="43.26878" lon="-1.49206">
        <ele>153.54</ele>
        <time>2025-05-07T14:43:49.295Z</time>
      </trkpt>
      <trkpt lat="43.26847" lon="-1.49207">
        <ele>152.1</ele>
        <time>2025-05-07T14:43:49.713Z</time>
      </trkpt>
      <trkpt lat="43.26843" lon="-1.49207">
        <ele>150.82</ele>
        <time>2025-05-07T14:43:50.132Z</time>
      </trkpt>
      <trkpt lat="43.26831" lon="-1.49204">
        <ele>149.59</ele>
        <time>2025-05-07T14:43:50.555Z</time>
      </trkpt>
      <trkpt lat="43.26827" lon="-1.49199">
        <ele>148.4</ele>
        <time>2025-05-07T14:43:50.980Z</time>
      </trkpt>
      <trkpt lat="43.26816" lon="-1.49182">
        <ele>147.17</ele>
        <time>2025-05-07T14:43:51.411Z</time>
      </trkpt>
      <trkpt lat="43.26808" lon="-1.49157">
        <ele>146.15</ele>
        <time>2025-05-07T14:43:51.848Z</time>
      </trkpt>
      <trkpt lat="43.26805" lon="-1.49133">
        <ele>145.4</ele>
        <time>2025-05-07T14:43:52.291Z</time>
      </trkpt>
      <trkpt lat="43.26806" lon="-1.49124">
        <ele>144.93</ele>
        <time>2025-05-07T14:43:52.736Z</time>
      </trkpt>
      <trkpt lat="43.26816" lon="-1.49103">
        <ele>144.63</ele>
        <time>2025-05-07T14:43:53.188Z</time>
      </trkpt>
      <trkpt lat="43.26828" lon="-1.49097">
        <ele>144.5</ele>
        <time>2025-05-07T14:43:53.644Z</time>
      </trkpt>
      <trkpt lat="43.2684" lon="-1.49097">
        <ele>144.68</ele>
        <time>2025-05-07T14:43:54.104Z</time>
      </trkpt>
      <trkpt lat="43.26844" lon="-1.49099">
        <ele>145.06</ele>
        <time>2025-05-07T14:43:54.565Z</time>
      </trkpt>
      <trkpt lat="43.26864" lon="-1.49109">
        <ele>145.71</ele>
        <time>2025-05-07T14:43:55.033Z</time>
      </trkpt>
      <trkpt lat="43.26886" lon="-1.49112">
        <ele>146.61</ele>
        <time>2025-05-07T14:43:55.509Z</time>
      </trkpt>
      <trkpt lat="43.26896" lon="-1.49109">
        <ele>147.77</ele>
        <time>2025-05-07T14:43:55.988Z</time>
      </trkpt>
      <trkpt lat="43.26909" lon="-1.49099">
        <ele>149.26</ele>
        <time>2025-05-07T14:43:56.472Z</time>
      </trkpt>
      <trkpt lat="43.26914" lon="-1.49094">
        <ele>150.84</ele>
        <time>2025-05-07T14:43:56.958Z</time>
      </trkpt>
      <trkpt lat="43.26928" lon="-1.49073">
        <ele>152.78</ele>
        <time>2025-05-07T14:43:57.451Z</time>
      </trkpt>
      <trkpt lat="43.26932" lon="-1.49056">
        <ele>154.87</ele>
        <time>2025-05-07T14:43:57.948Z</time>
      </trkpt>
      <trkpt lat="43.26935" lon="-1.49035">
        <ele>157.18</ele>
        <time>2025-05-07T14:43:58.451Z</time>
      </trkpt>
      <trkpt lat="43.26941" lon="-1.49017">
        <ele>159.6</ele>
        <time>2025-05-07T14:43:58.958Z</time>
      </trkpt>
      <trkpt lat="43.26949" lon="-1.49005">
        <ele>162.11</ele>
        <time>2025-05-07T14:43:59.469Z</time>
      </trkpt>
      <trkpt lat="43.26958" lon="-1.48997">
        <ele>164.72</ele>
        <time>2025-05-07T14:43:59.984Z</time>
      </trkpt>
      <trkpt lat="43.26965" lon="-1.48991">
        <ele>167.42</ele>
        <time>2025-05-07T14:44:00.502Z</time>
      </trkpt>
      <trkpt lat="43.26982" lon="-1.48985">
        <ele>170.16</ele>
        <time>2025-05-07T14:44:01.026Z</time>
      </trkpt>
      <trkpt lat="43.27013" lon="-1.4898">
        <ele>173.08</ele>
        <time>2025-05-07T14:44:01.560Z</time>
      </trkpt>
      <trkpt lat="43.27018" lon="-1.48979">
        <ele>175.86</ele>
        <time>2025-05-07T14:44:02.096Z</time>
      </trkpt>
      <trkpt lat="43.27043" lon="-1.48977">
        <ele>178.67</ele>
        <time>2025-05-07T14:44:02.640Z</time>
      </trkpt>
      <trkpt lat="43.27059" lon="-1.48977">
        <ele>181.41</ele>
        <time>2025-05-07T14:44:03.189Z</time>
      </trkpt>
      <trkpt lat="43.27071" lon="-1.48972">
        <ele>184.18</ele>
        <time>2025-05-07T14:44:03.742Z</time>
      </trkpt>
      <trkpt lat="43.27097" lon="-1.48948">
        <ele>187.36</ele>
        <time>2025-05-07T14:44:04.306Z</time>
      </trkpt>
      <trkpt lat="43.27101" lon="-1.48945">
        <ele>190.13</ele>
        <time>2025-05-07T14:44:04.871Z</time>
      </trkpt>
      <trkpt lat="43.27114" lon="-1.48928">
        <ele>193.11</ele>
        <time>2025-05-07T14:44:05.442Z</time>
      </trkpt>
      <trkpt lat="43.27131" lon="-1.48902">
        <ele>196.11</ele>
        <time>2025-05-07T14:44:06.022Z</time>
      </trkpt>
      <trkpt lat="43.27134" lon="-1.48896">
        <ele>198.73</ele>
        <time>2025-05-07T14:44:06.604Z</time>
      </trkpt>
      <trkpt lat="43.27128" lon="-1.48895">
        <ele>201.25</ele>
        <time>2025-05-07T14:44:07.188Z</time>
      </trkpt>
      <trkpt lat="43.27134" lon="-1.48896">
        <ele>198.73</ele>
        <time>2025-05-07T14:44:07.774Z</time>
      </trkpt>
      <trkpt lat="43.27142" lon="-1.48882">
        <ele>205.97</ele>
        <time>2025-05-07T14:44:08.364Z</time>
      </trkpt>
      <trkpt lat="43.27148" lon="-1.48872">
        <ele>208.25</ele>
        <time>2025-05-07T14:44:08.957Z</time>
      </trkpt>
      <trkpt lat="43.27156" lon="-1.48864">
        <ele>210.38</ele>
        <time>2025-05-07T14:44:09.554Z</time>
      </trkpt>
      <trkpt lat="43.2716" lon="-1.48862">
        <ele>212.34</ele>
        <time>2025-05-07T14:44:10.152Z</time>
      </trkpt>
      <trkpt lat="43.27185" lon="-1.48862">
        <ele>214.03</ele>
        <time>2025-05-07T14:44:10.758Z</time>
      </trkpt>
      <trkpt lat="43.27205" lon="-1.48858">
        <ele>215.8</ele>
        <time>2025-05-07T14:44:11.371Z</time>
      </trkpt>
      <trkpt lat="43.27229" lon="-1.48844">
        <ele>217.57</ele>
        <time>2025-05-07T14:44:11.993Z</time>
      </trkpt>
      <trkpt lat="43.27255" lon="-1.4882">
        <ele>219.28</ele>
        <time>2025-05-07T14:44:12.625Z</time>
      </trkpt>
      <trkpt lat="43.27259" lon="-1.48817">
        <ele>220.77</ele>
        <time>2025-05-07T14:44:13.259Z</time>
      </trkpt>
      <trkpt lat="43.27277" lon="-1.48798">
        <ele>222.19</ele>
        <time>2025-05-07T14:44:13.900Z</time>
      </trkpt>
      <trkpt lat="43.27286" lon="-1.48778">
        <ele>223.61</ele>
        <time>2025-05-07T14:44:14.547Z</time>
      </trkpt>
      <trkpt lat="43.2729" lon="-1.48751">
        <ele>225.09</ele>
        <time>2025-05-07T14:44:15.201Z</time>
      </trkpt>
      <trkpt lat="43.27296" lon="-1.48731">
        <ele>226.35</ele>
        <time>2025-05-07T14:44:15.860Z</time>
      </trkpt>
      <trkpt lat="43.27301" lon="-1.4871">
        <ele>227.54</ele>
        <time>2025-05-07T14:44:16.524Z</time>
      </trkpt>
      <trkpt lat="43.27306" lon="-1.48689">
        <ele>228.63</ele>
        <time>2025-05-07T14:44:17.194Z</time>
      </trkpt>
      <trkpt lat="43.27311" lon="-1.48668">
        <ele>229.61</ele>
        <time>2025-05-07T14:44:17.869Z</time>
      </trkpt>
      <trkpt lat="43.27308" lon="-1.48639">
        <ele>230.57</ele>
        <time>2025-05-07T14:44:18.551Z</time>
      </trkpt>
      <trkpt lat="43.27305" lon="-1.48617">
        <ele>231.47</ele>
        <time>2025-05-07T14:44:19.239Z</time>
      </trkpt>
      <trkpt lat="43.27299" lon="-1.48594">
        <ele>232.43</ele>
        <time>2025-05-07T14:44:19.933Z</time>
      </trkpt>
      <trkpt lat="43.27292" lon="-1.48575">
        <ele>233.41</ele>
        <time>2025-05-07T14:44:20.632Z</time>
      </trkpt>
      <trkpt lat="43.27285" lon="-1.48555">
        <ele>234.33</ele>
        <time>2025-05-07T14:44:21.336Z</time>
      </trkpt>
      <trkpt lat="43.27283" lon="-1.4855">
        <ele>235.03</ele>
        <time>2025-05-07T14:44:22.042Z</time>
      </trkpt>
      <trkpt lat="43.27271" lon="-1.4853">
        <ele>235.86</ele>
        <time>2025-05-07T14:44:22.754Z</time>
      </trkpt>
      <trkpt lat="43.27263" lon="-1.48519">
        <ele>236.65</ele>
        <time>2025-05-07T14:44:23.470Z</time>
      </trkpt>
      <trkpt lat="43.27259" lon="-1.48512">
        <ele>237.27</ele>
        <time>2025-05-07T14:44:24.188Z</time>
      </trkpt>
      <trkpt lat="43.27256" lon="-1.48498">
        <ele>237.91</ele>
        <time>2025-05-07T14:44:24.909Z</time>
      </trkpt>
      <trkpt lat="43.27253" lon="-1.48476">
        <ele>238.45</ele>
        <time>2025-05-07T14:44:25.636Z</time>
      </trkpt>
      <trkpt lat="43.27255" lon="-1.48446">
        <ele>238.71</ele>
        <time>2025-05-07T14:44:26.370Z</time>
      </trkpt>
      <trkpt lat="43.27257" lon="-1.48437">
        <ele>238.96</ele>
        <time>2025-05-07T14:44:27.106Z</time>
      </trkpt>
      <trkpt lat="43.27265" lon="-1.48418">
        <ele>238.89</ele>
        <time>2025-05-07T14:44:27.848Z</time>
      </trkpt>
      <trkpt lat="43.2728" lon="-1.48393">
        <ele>238.95</ele>
        <time>2025-05-07T14:44:28.598Z</time>
      </trkpt>
      <trkpt lat="43.27288" lon="-1.48393">
        <ele>239.22</ele>
        <time>2025-05-07T14:44:29.350Z</time>
      </trkpt>
      <trkpt lat="43.27293" lon="-1.48394">
        <ele>239.48</ele>
        <time>2025-05-07T14:44:30.104Z</time>
      </trkpt>
      <trkpt lat="43.27296" lon="-1.4839">
        <ele>239.76</ele>
        <time>2025-05-07T14:44:30.859Z</time>
      </trkpt>
      <trkpt lat="43.27299" lon="-1.48372">
        <ele>240.24</ele>
        <time>2025-05-07T14:44:31.619Z</time>
      </trkpt>
      <trkpt lat="43.27301" lon="-1.48354">
        <ele>240.77</ele>
        <time>2025-05-07T14:44:32.383Z</time>
      </trkpt>
      <trkpt lat="43.27304" lon="-1.48352">
        <ele>241.22</ele>
        <time>2025-05-07T14:44:33.148Z</time>
      </trkpt>
      <trkpt lat="43.27307" lon="-1.48354">
        <ele>241.67</ele>
        <time>2025-05-07T14:44:33.915Z</time>
      </trkpt>
      <trkpt lat="43.2732" lon="-1.48379">
        <ele>241.99</ele>
        <time>2025-05-07T14:44:34.689Z</time>
      </trkpt>
      <trkpt lat="43.27342" lon="-1.48402">
        <ele>242.46</ele>
        <time>2025-05-07T14:44:35.472Z</time>
      </trkpt>
      <trkpt lat="43.27345" lon="-1.48403">
        <ele>243.04</ele>
        <time>2025-05-07T14:44:36.256Z</time>
      </trkpt>
      <trkpt lat="43.27361" lon="-1.484">
        <ele>243.76</ele>
        <time>2025-05-07T14:44:37.046Z</time>
      </trkpt>
      <trkpt lat="43.27391" lon="-1.48388">
        <ele>244.6</ele>
        <time>2025-05-07T14:44:37.846Z</time>
      </trkpt>
      <trkpt lat="43.27395" lon="-1.48383">
        <ele>245.47</ele>
        <time>2025-05-07T14:44:38.648Z</time>
      </trkpt>
      <trkpt lat="43.27395" lon="-1.48379">
        <ele>246.42</ele>
        <time>2025-05-07T14:44:39.451Z</time>
      </trkpt>
      <trkpt lat="43.27385" lon="-1.48379">
        <ele>247.4</ele>
        <time>2025-05-07T14:44:40.257Z</time>
      </trkpt>
      <trkpt lat="43.27368" lon="-1.48379">
        <ele>248.44</ele>
        <time>2025-05-07T14:44:41.069Z</time>
      </trkpt>
      <trkpt lat="43.27362" lon="-1.48377">
        <ele>249.58</ele>
        <time>2025-05-07T14:44:41.883Z</time>
      </trkpt>
      <trkpt lat="43.27353" lon="-1.48365">
        <ele>250.89</ele>
        <time>2025-05-07T14:44:42.701Z</time>
      </trkpt>
      <trkpt lat="43.27339" lon="-1.48327">
        <ele>252.52</ele>
        <time>2025-05-07T14:44:43.530Z</time>
      </trkpt>
      <trkpt lat="43.27334" lon="-1.48305">
        <ele>254.05</ele>
        <time>2025-05-07T14:44:44.364Z</time>
      </trkpt>
      <trkpt lat="43.27336" lon="-1.48296">
        <ele>255.61</ele>
        <time>2025-05-07T14:44:45.200Z</time>
      </trkpt>
      <trkpt lat="43.2734" lon="-1.48297">
        <ele>257.15</ele>
        <time>2025-05-07T14:44:46.038Z</time>
      </trkpt>
      <trkpt lat="43.27352" lon="-1.48312">
        <ele>258.7</ele>
        <time>2025-05-07T14:44:46.881Z</time>
      </trkpt>
      <trkpt lat="43.27361" lon="-1.48322">
        <ele>260.32</ele>
        <time>2025-05-07T14:44:47.728Z</time>
      </trkpt>
      <trkpt lat="43.27366" lon="-1.48325">
        <ele>262.04</ele>
        <time>2025-05-07T14:44:48.577Z</time>
      </trkpt>
      <trkpt lat="43.27385" lon="-1.48326">
        <ele>263.95</ele>
        <time>2025-05-07T14:44:49.432Z</time>
      </trkpt>
      <trkpt lat="43.27405" lon="-1.48322">
        <ele>265.9</ele>
        <time>2025-05-07T14:44:50.294Z</time>
      </trkpt>
      <trkpt lat="43.27431" lon="-1.4831">
        <ele>267.79</ele>
        <time>2025-05-07T14:44:51.165Z</time>
      </trkpt>
      <trkpt lat="43.27452" lon="-1.48294">
        <ele>269.84</ele>
        <time>2025-05-07T14:44:52.044Z</time>
      </trkpt>
      <trkpt lat="43.27466" lon="-1.48283">
        <ele>271.95</ele>
        <time>2025-05-07T14:44:52.928Z</time>
      </trkpt>
      <trkpt lat="43.27479" lon="-1.48271">
        <ele>274.07</ele>
        <time>2025-05-07T14:44:53.818Z</time>
      </trkpt>
      <trkpt lat="43.27506" lon="-1.48249">
        <ele>276.29</ele>
        <time>2025-05-07T14:44:54.718Z</time>
      </trkpt>
      <trkpt lat="43.27516" lon="-1.4824">
        <ele>278.52</ele>
        <time>2025-05-07T14:44:55.622Z</time>
      </trkpt>
      <trkpt lat="43.27542" lon="-1.48216">
        <ele>281.11</ele>
        <time>2025-05-07T14:44:56.537Z</time>
      </trkpt>
      <trkpt lat="43.27558" lon="-1.48201">
        <ele>283.52</ele>
        <time>2025-05-07T14:44:57.458Z</time>
      </trkpt>
      <trkpt lat="43.27584" lon="-1.48177">
        <ele>285.94</ele>
        <time>2025-05-07T14:44:58.390Z</time>
      </trkpt>
      <trkpt lat="43.27586" lon="-1.48176">
        <ele>288.2</ele>
        <time>2025-05-07T14:44:59.322Z</time>
      </trkpt>
      <trkpt lat="43.27605" lon="-1.48151">
        <ele>290.52</ele>
        <time>2025-05-07T14:45:00.263Z</time>
      </trkpt>
      <trkpt lat="43.27596" lon="-1.4811">
        <ele>292.93</ele>
        <time>2025-05-07T14:45:01.214Z</time>
      </trkpt>
      <trkpt lat="43.27592" lon="-1.48094">
        <ele>295.21</ele>
        <time>2025-05-07T14:45:02.170Z</time>
      </trkpt>
      <trkpt lat="43.27591" lon="-1.48089">
        <ele>297.47</ele>
        <time>2025-05-07T14:45:03.127Z</time>
      </trkpt>
      <trkpt lat="43.27592" lon="-1.48089">
        <ele>299.65</ele>
        <time>2025-05-07T14:45:04.084Z</time>
      </trkpt>
      <trkpt lat="43.27583" lon="-1.48048">
        <ele>301.87</ele>
        <time>2025-05-07T14:45:05.052Z</time>
      </trkpt>
      <trkpt lat="43.27578" lon="-1.48023">
        <ele>304.08</ele>
        <time>2025-05-07T14:45:06.026Z</time>
      </trkpt>
      <trkpt lat="43.27573" lon="-1.48003">
        <ele>306.24</ele>
        <time>2025-05-07T14:45:07.005Z</time>
      </trkpt>
      <trkpt lat="43.27568" lon="-1.47982">
        <ele>308.43</ele>
        <time>2025-05-07T14:45:07.989Z</time>
      </trkpt>
      <trkpt lat="43.27567" lon="-1.47976">
        <ele>310.51</ele>
        <time>2025-05-07T14:45:08.975Z</time>
      </trkpt>
      <trkpt lat="43.27559" lon="-1.47943">
        <ele>312.79</ele>
        <time>2025-05-07T14:45:09.969Z</time>
      </trkpt>
      <trkpt lat="43.27542" lon="-1.47925">
        <ele>315.14</ele>
        <time>2025-05-07T14:45:10.971Z</time>
      </trkpt>
      <trkpt lat="43.27531" lon="-1.47911">
        <ele>317.25</ele>
        <time>2025-05-07T14:45:11.978Z</time>
      </trkpt>
      <trkpt lat="43.27512" lon="-1.47883">
        <ele>319.31</ele>
        <time>2025-05-07T14:45:12.994Z</time>
      </trkpt>
      <trkpt lat="43.27493" lon="-1.47849">
        <ele>321.24</ele>
        <time>2025-05-07T14:45:14.020Z</time>
      </trkpt>
      <trkpt lat="43.27488" lon="-1.47841">
        <ele>322.95</ele>
        <time>2025-05-07T14:45:15.049Z</time>
      </trkpt>
      <trkpt lat="43.27479" lon="-1.47824">
        <ele>324.63</ele>
        <time>2025-05-07T14:45:16.083Z</time>
      </trkpt>
      <trkpt lat="43.27471" lon="-1.47812">
        <ele>326.29</ele>
        <time>2025-05-07T14:45:17.121Z</time>
      </trkpt>
      <trkpt lat="43.27447" lon="-1.47794">
        <ele>328.1</ele>
        <time>2025-05-07T14:45:18.168Z</time>
      </trkpt>
      <trkpt lat="43.2744" lon="-1.47787">
        <ele>329.64</ele>
        <time>2025-05-07T14:45:19.218Z</time>
      </trkpt>
      <trkpt lat="43.27438" lon="-1.47779">
        <ele>330.96</ele>
        <time>2025-05-07T14:45:20.270Z</time>
      </trkpt>
      <trkpt lat="43.27441" lon="-1.47761">
        <ele>331.96</ele>
        <time>2025-05-07T14:45:21.326Z</time>
      </trkpt>
      <trkpt lat="43.27444" lon="-1.47737">
        <ele>332.88</ele>
        <time>2025-05-07T14:45:22.388Z</time>
      </trkpt>
      <trkpt lat="43.27443" lon="-1.47722">
        <ele>333.91</ele>
        <time>2025-05-07T14:45:23.454Z</time>
      </trkpt>
      <trkpt lat="43.27438" lon="-1.47706">
        <ele>334.99</ele>
        <time>2025-05-07T14:45:24.524Z</time>
      </trkpt>
      <trkpt lat="43.27429" lon="-1.47687">
        <ele>336.18</ele>
        <time>2025-05-07T14:45:25.600Z</time>
      </trkpt>
      <trkpt lat="43.27429" lon="-1.47687">
        <ele>337.27</ele>
        <time>2025-05-07T14:45:26.676Z</time>
      </trkpt>
      <trkpt lat="43.27416" lon="-1.4767">
        <ele>338.59</ele>
        <time>2025-05-07T14:45:27.758Z</time>
      </trkpt>
      <trkpt lat="43.27404" lon="-1.47653">
        <ele>339.8</ele>
        <time>2025-05-07T14:45:28.846Z</time>
      </trkpt>
      <trkpt lat="43.274" lon="-1.47652">
        <ele>340.94</ele>
        <time>2025-05-07T14:45:29.935Z</time>
      </trkpt>
      <trkpt lat="43.27398" lon="-1.47653">
        <ele>342.05</ele>
        <time>2025-05-07T14:45:31.025Z</time>
      </trkpt>
      <trkpt lat="43.27399" lon="-1.47662">
        <ele>343.16</ele>
        <time>2025-05-07T14:45:32.117Z</time>
      </trkpt>
      <trkpt lat="43.27404" lon="-1.4768">
        <ele>344.21</ele>
        <time>2025-05-07T14:45:33.214Z</time>
      </trkpt>
      <trkpt lat="43.27407" lon="-1.47698">
        <ele>345.25</ele>
        <time>2025-05-07T14:45:34.315Z</time>
      </trkpt>
      <trkpt lat="43.27405" lon="-1.47715">
        <ele>346.48</ele>
        <time>2025-05-07T14:45:35.420Z</time>
      </trkpt>
      <trkpt lat="43.274" lon="-1.47737">
        <ele>347.81</ele>
        <time>2025-05-07T14:45:36.531Z</time>
      </trkpt>
      <trkpt lat="43.27394" lon="-1.47757">
        <ele>349.17</ele>
        <time>2025-05-07T14:45:37.647Z</time>
      </trkpt>
      <trkpt lat="43.27387" lon="-1.47777">
        <ele>350.6</ele>
        <time>2025-05-07T14:45:38.769Z</time>
      </trkpt>
      <trkpt lat="43.27385" lon="-1.47784">
        <ele>351.82</ele>
        <time>2025-05-07T14:45:39.892Z</time>
      </trkpt>
      <trkpt lat="43.27384" lon="-1.47784">
        <ele>353.03</ele>
        <time>2025-05-07T14:45:41.016Z</time>
      </trkpt>
      <trkpt lat="43.27378" lon="-1.47805">
        <ele>354.33</ele>
        <time>2025-05-07T14:45:42.145Z</time>
      </trkpt>
      <trkpt lat="43.27377" lon="-1.47832">
        <ele>355.56</ele>
        <time>2025-05-07T14:45:43.281Z</time>
      </trkpt>
      <trkpt lat="43.27371" lon="-1.47816">
        <ele>356.85</ele>
        <time>2025-05-07T14:45:44.421Z</time>
      </trkpt>
      <trkpt lat="43.2737" lon="-1.47808">
        <ele>358.14</ele>
        <time>2025-05-07T14:45:45.563Z</time>
      </trkpt>
      <trkpt lat="43.2737" lon="-1.47765">
        <ele>359.31</ele>
        <time>2025-05-07T14:45:46.716Z</time>
      </trkpt>
      <trkpt lat="43.2737" lon="-1.47736">
        <ele>360.54</ele>
        <time>2025-05-07T14:45:47.876Z</time>
      </trkpt>
      <trkpt lat="43.27367" lon="-1.47712">
        <ele>362</ele>
        <time>2025-05-07T14:45:49.042Z</time>
      </trkpt>
      <trkpt lat="43.27361" lon="-1.47692">
        <ele>363.49</ele>
        <time>2025-05-07T14:45:50.213Z</time>
      </trkpt>
      <trkpt lat="43.27355" lon="-1.47672">
        <ele>364.94</ele>
        <time>2025-05-07T14:45:51.389Z</time>
      </trkpt>
      <trkpt lat="43.27355" lon="-1.47671">
        <ele>366.36</ele>
        <time>2025-05-07T14:45:52.565Z</time>
      </trkpt>
      <trkpt lat="43.27345" lon="-1.47639">
        <ele>367.88</ele>
        <time>2025-05-07T14:45:53.750Z</time>
      </trkpt>
      <trkpt lat="43.27338" lon="-1.47631">
        <ele>369.39</ele>
        <time>2025-05-07T14:45:54.938Z</time>
      </trkpt>
      <trkpt lat="43.27329" lon="-1.47625">
        <ele>370.92</ele>
        <time>2025-05-07T14:45:56.129Z</time>
      </trkpt>
      <trkpt lat="43.27317" lon="-1.47617">
        <ele>372.53</ele>
        <time>2025-05-07T14:45:57.325Z</time>
      </trkpt>
      <trkpt lat="43.27305" lon="-1.47613">
        <ele>374.2</ele>
        <time>2025-05-07T14:45:58.525Z</time>
      </trkpt>
      <trkpt lat="43.27281" lon="-1.47609">
        <ele>376.05</ele>
        <time>2025-05-07T14:45:59.733Z</time>
      </trkpt>
      <trkpt lat="43.27255" lon="-1.47603">
        <ele>377.97</ele>
        <time>2025-05-07T14:46:00.950Z</time>
      </trkpt>
      <trkpt lat="43.27246" lon="-1.47598">
        <ele>379.56</ele>
        <time>2025-05-07T14:46:02.170Z</time>
      </trkpt>
      <trkpt lat="43.27243" lon="-1.47595">
        <ele>381.04</ele>
        <time>2025-05-07T14:46:03.391Z</time>
      </trkpt>
      <trkpt lat="43.2724" lon="-1.47587">
        <ele>382.46</ele>
        <time>2025-05-07T14:46:04.614Z</time>
      </trkpt>
      <trkpt lat="43.27239" lon="-1.47577">
        <ele>383.83</ele>
        <time>2025-05-07T14:46:05.840Z</time>
      </trkpt>
      <trkpt lat="43.27243" lon="-1.4754">
        <ele>385.07</ele>
        <time>2025-05-07T14:46:07.075Z</time>
      </trkpt>
      <trkpt lat="43.27246" lon="-1.47524">
        <ele>386.32</ele>
        <time>2025-05-07T14:46:08.314Z</time>
      </trkpt>
      <trkpt lat="43.27246" lon="-1.47504">
        <ele>387.58</ele>
        <time>2025-05-07T14:46:09.558Z</time>
      </trkpt>
      <trkpt lat="43.27244" lon="-1.47482">
        <ele>388.89</ele>
        <time>2025-05-07T14:46:10.807Z</time>
      </trkpt>
      <trkpt lat="43.27242" lon="-1.47461">
        <ele>390.2</ele>
        <time>2025-05-07T14:46:12.061Z</time>
      </trkpt>
      <trkpt lat="43.27241" lon="-1.47455">
        <ele>391.47</ele>
        <time>2025-05-07T14:46:13.317Z</time>
      </trkpt>
      <trkpt lat="43.27236" lon="-1.47413">
        <ele>392.72</ele>
        <time>2025-05-07T14:46:14.583Z</time>
      </trkpt>
      <trkpt lat="43.27235" lon="-1.47409">
        <ele>393.97</ele>
        <time>2025-05-07T14:46:15.850Z</time>
      </trkpt>
      <trkpt lat="43.27229" lon="-1.47394">
        <ele>395.33</ele>
        <time>2025-05-07T14:46:17.121Z</time>
      </trkpt>
      <trkpt lat="43.2722" lon="-1.47381">
        <ele>396.7</ele>
        <time>2025-05-07T14:46:18.397Z</time>
      </trkpt>
      <trkpt lat="43.27218" lon="-1.47375">
        <ele>397.9</ele>
        <time>2025-05-07T14:46:19.674Z</time>
      </trkpt>
      <trkpt lat="43.27218" lon="-1.47366">
        <ele>399.04</ele>
        <time>2025-05-07T14:46:20.954Z</time>
      </trkpt>
      <trkpt lat="43.27222" lon="-1.47341">
        <ele>400.08</ele>
        <time>2025-05-07T14:46:22.240Z</time>
      </trkpt>
      <trkpt lat="43.2722" lon="-1.47316">
        <ele>401.27</ele>
        <time>2025-05-07T14:46:23.532Z</time>
      </trkpt>
      <trkpt lat="43.27215" lon="-1.47274">
        <ele>402.61</ele>
        <time>2025-05-07T14:46:24.834Z</time>
      </trkpt>
      <trkpt lat="43.27214" lon="-1.47268">
        <ele>403.81</ele>
        <time>2025-05-07T14:46:26.138Z</time>
      </trkpt>
      <trkpt lat="43.27208" lon="-1.4725">
        <ele>405.1</ele>
        <time>2025-05-07T14:46:27.447Z</time>
      </trkpt>
      <trkpt lat="43.2719" lon="-1.47218">
        <ele>406.39</ele>
        <time>2025-05-07T14:46:28.765Z</time>
      </trkpt>
      <trkpt lat="43.27178" lon="-1.47205">
        <ele>407.79</ele>
        <time>2025-05-07T14:46:30.089Z</time>
      </trkpt>
      <trkpt lat="43.27165" lon="-1.47191">
        <ele>409.22</ele>
        <time>2025-05-07T14:46:31.418Z</time>
      </trkpt>
      <trkpt lat="43.27141" lon="-1.47164">
        <ele>410.79</ele>
        <time>2025-05-07T14:46:32.757Z</time>
      </trkpt>
      <trkpt lat="43.2714" lon="-1.47163">
        <ele>412.16</ele>
        <time>2025-05-07T14:46:34.097Z</time>
      </trkpt>
      <trkpt lat="43.27127" lon="-1.47152">
        <ele>413.57</ele>
        <time>2025-05-07T14:46:35.442Z</time>
      </trkpt>
      <trkpt lat="43.27113" lon="-1.4714">
        <ele>414.97</ele>
        <time>2025-05-07T14:46:36.792Z</time>
      </trkpt>
      <trkpt lat="43.27107" lon="-1.47135">
        <ele>416.38</ele>
        <time>2025-05-07T14:46:38.145Z</time>
      </trkpt>
      <trkpt lat="43.27094" lon="-1.4713">
        <ele>418</ele>
        <time>2025-05-07T14:46:39.502Z</time>
      </trkpt>
      <trkpt lat="43.27084" lon="-1.47124">
        <ele>419.59</ele>
        <time>2025-05-07T14:46:40.863Z</time>
      </trkpt>
      <trkpt lat="43.27075" lon="-1.47109">
        <ele>421.14</ele>
        <time>2025-05-07T14:46:42.229Z</time>
      </trkpt>
      <trkpt lat="43.27064" lon="-1.47085">
        <ele>422.61</ele>
        <time>2025-05-07T14:46:43.601Z</time>
      </trkpt>
      <trkpt lat="43.27053" lon="-1.47056">
        <ele>424.05</ele>
        <time>2025-05-07T14:46:44.981Z</time>
      </trkpt>
      <trkpt lat="43.27043" lon="-1.47018">
        <ele>425.6</ele>
        <time>2025-05-07T14:46:46.371Z</time>
      </trkpt>
      <trkpt lat="43.27037" lon="-1.46998">
        <ele>427.11</ele>
        <time>2025-05-07T14:46:47.767Z</time>
      </trkpt>
      <trkpt lat="43.27031" lon="-1.46978">
        <ele>428.53</ele>
        <time>2025-05-07T14:46:49.168Z</time>
      </trkpt>
      <trkpt lat="43.27018" lon="-1.46939">
        <ele>429.96</ele>
        <time>2025-05-07T14:46:50.579Z</time>
      </trkpt>
      <trkpt lat="43.27012" lon="-1.46919">
        <ele>431.41</ele>
        <time>2025-05-07T14:46:51.996Z</time>
      </trkpt>
      <trkpt lat="43.27006" lon="-1.46899">
        <ele>432.89</ele>
        <time>2025-05-07T14:46:53.418Z</time>
      </trkpt>
      <trkpt lat="43.27004" lon="-1.46892">
        <ele>434.26</ele>
        <time>2025-05-07T14:46:54.842Z</time>
      </trkpt>
      <trkpt lat="43.26988" lon="-1.46858">
        <ele>435.73</ele>
        <time>2025-05-07T14:46:56.275Z</time>
      </trkpt>
      <trkpt lat="43.26978" lon="-1.46841">
        <ele>437</ele>
        <time>2025-05-07T14:46:57.714Z</time>
      </trkpt>
      <trkpt lat="43.26968" lon="-1.46824">
        <ele>438.22</ele>
        <time>2025-05-07T14:46:59.158Z</time>
      </trkpt>
      <trkpt lat="43.26961" lon="-1.46812">
        <ele>439.4</ele>
        <time>2025-05-07T14:47:00.606Z</time>
      </trkpt>
      <trkpt lat="43.26938" lon="-1.46788">
        <ele>440.69</ele>
        <time>2025-05-07T14:47:02.063Z</time>
      </trkpt>
      <trkpt lat="43.26923" lon="-1.46776">
        <ele>442.03</ele>
        <time>2025-05-07T14:47:03.526Z</time>
      </trkpt>
      <trkpt lat="43.26898" lon="-1.4676">
        <ele>443.53</ele>
        <time>2025-05-07T14:47:04.998Z</time>
      </trkpt>
      <trkpt lat="43.26885" lon="-1.46748">
        <ele>444.88</ele>
        <time>2025-05-07T14:47:06.476Z</time>
      </trkpt>
      <trkpt lat="43.26872" lon="-1.46735">
        <ele>446.2</ele>
        <time>2025-05-07T14:47:07.959Z</time>
      </trkpt>
      <trkpt lat="43.26869" lon="-1.46732">
        <ele>447.35</ele>
        <time>2025-05-07T14:47:09.443Z</time>
      </trkpt>
      <trkpt lat="43.26865" lon="-1.46726">
        <ele>448.47</ele>
        <time>2025-05-07T14:47:10.929Z</time>
      </trkpt>
      <trkpt lat="43.26864" lon="-1.46706">
        <ele>449.43</ele>
        <time>2025-05-07T14:47:12.420Z</time>
      </trkpt>
      <trkpt lat="43.26866" lon="-1.46684">
        <ele>450.38</ele>
        <time>2025-05-07T14:47:13.916Z</time>
      </trkpt>
      <trkpt lat="43.26867" lon="-1.46663">
        <ele>451.34</ele>
        <time>2025-05-07T14:47:15.418Z</time>
      </trkpt>
      <trkpt lat="43.26868" lon="-1.46644">
        <ele>452.38</ele>
        <time>2025-05-07T14:47:16.924Z</time>
      </trkpt>
      <trkpt lat="43.26874" lon="-1.46602">
        <ele>453.46</ele>
        <time>2025-05-07T14:47:18.441Z</time>
      </trkpt>
      <trkpt lat="43.26876" lon="-1.46589">
        <ele>454.46</ele>
        <time>2025-05-07T14:47:19.961Z</time>
      </trkpt>
      <trkpt lat="43.26878" lon="-1.46567">
        <ele>455.5</ele>
        <time>2025-05-07T14:47:21.486Z</time>
      </trkpt>
      <trkpt lat="43.2688" lon="-1.46546">
        <ele>456.49</ele>
        <time>2025-05-07T14:47:23.017Z</time>
      </trkpt>
      <trkpt lat="43.26881" lon="-1.4654">
        <ele>457.42</ele>
        <time>2025-05-07T14:47:24.549Z</time>
      </trkpt>
      <trkpt lat="43.26886" lon="-1.46513">
        <ele>458.33</ele>
        <time>2025-05-07T14:47:26.088Z</time>
      </trkpt>
      <trkpt lat="43.26887" lon="-1.46499">
        <ele>459.29</ele>
        <time>2025-05-07T14:47:27.630Z</time>
      </trkpt>
      <trkpt lat="43.26879" lon="-1.46469">
        <ele>460.36</ele>
        <time>2025-05-07T14:47:29.180Z</time>
      </trkpt>
      <trkpt lat="43.26872" lon="-1.46427">
        <ele>461.34</ele>
        <time>2025-05-07T14:47:30.741Z</time>
      </trkpt>
      <trkpt lat="43.26871" lon="-1.46421">
        <ele>462.26</ele>
        <time>2025-05-07T14:47:32.303Z</time>
      </trkpt>
      <trkpt lat="43.26868" lon="-1.4641">
        <ele>463.17</ele>
        <time>2025-05-07T14:47:33.868Z</time>
      </trkpt>
      <trkpt lat="43.26865" lon="-1.46404">
        <ele>464.11</ele>
        <time>2025-05-07T14:47:35.435Z</time>
      </trkpt>
      <trkpt lat="43.26862" lon="-1.46401">
        <ele>465.09</ele>
        <time>2025-05-07T14:47:37.003Z</time>
      </trkpt>
      <trkpt lat="43.2686" lon="-1.46402">
        <ele>466.09</ele>
        <time>2025-05-07T14:47:38.572Z</time>
      </trkpt>
      <trkpt lat="43.26856" lon="-1.46408">
        <ele>467.14</ele>
        <time>2025-05-07T14:47:40.143Z</time>
      </trkpt>
      <trkpt lat="43.26856" lon="-1.46422">
        <ele>468.21</ele>
        <time>2025-05-07T14:47:41.717Z</time>
      </trkpt>
      <trkpt lat="43.26855" lon="-1.46457">
        <ele>469.35</ele>
        <time>2025-05-07T14:47:43.300Z</time>
      </trkpt>
      <trkpt lat="43.26853" lon="-1.46474">
        <ele>470.4</ele>
        <time>2025-05-07T14:47:44.887Z</time>
      </trkpt>
      <trkpt lat="43.26849" lon="-1.46492">
        <ele>471.48</ele>
        <time>2025-05-07T14:47:46.478Z</time>
      </trkpt>
      <trkpt lat="43.26839" lon="-1.46516">
        <ele>472.6</ele>
        <time>2025-05-07T14:47:48.076Z</time>
      </trkpt>
      <trkpt lat="43.26831" lon="-1.46538">
        <ele>473.67</ele>
        <time>2025-05-07T14:47:49.680Z</time>
      </trkpt>
      <trkpt lat="43.26823" lon="-1.4656">
        <ele>474.78</ele>
        <time>2025-05-07T14:47:51.290Z</time>
      </trkpt>
      <trkpt lat="43.26809" lon="-1.46592">
        <ele>476.06</ele>
        <time>2025-05-07T14:47:52.909Z</time>
      </trkpt>
      <trkpt lat="43.26807" lon="-1.46604">
        <ele>477.03</ele>
        <time>2025-05-07T14:47:54.531Z</time>
      </trkpt>
      <trkpt lat="43.26806" lon="-1.46628">
        <ele>477.94</ele>
        <time>2025-05-07T14:47:56.159Z</time>
      </trkpt>
      <trkpt lat="43.26806" lon="-1.46671">
        <ele>478.68</ele>
        <time>2025-05-07T14:47:57.797Z</time>
      </trkpt>
      <trkpt lat="43.26806" lon="-1.46703">
        <ele>479.54</ele>
        <time>2025-05-07T14:47:59.443Z</time>
      </trkpt>
      <trkpt lat="43.26807" lon="-1.46746">
        <ele>480.55</ele>
        <time>2025-05-07T14:48:01.100Z</time>
      </trkpt>
      <trkpt lat="43.26808" lon="-1.46763">
        <ele>481.41</ele>
        <time>2025-05-07T14:48:02.761Z</time>
      </trkpt>
      <trkpt lat="43.26827" lon="-1.46793">
        <ele>481.88</ele>
        <time>2025-05-07T14:48:04.431Z</time>
      </trkpt>
      <trkpt lat="43.26836" lon="-1.46813">
        <ele>482.51</ele>
        <time>2025-05-07T14:48:06.107Z</time>
      </trkpt>
      <trkpt lat="43.26847" lon="-1.46832">
        <ele>483.09</ele>
        <time>2025-05-07T14:48:07.789Z</time>
      </trkpt>
      <trkpt lat="43.26865" lon="-1.4686">
        <ele>483.65</ele>
        <time>2025-05-07T14:48:09.480Z</time>
      </trkpt>
      <trkpt lat="43.26869" lon="-1.46875">
        <ele>484.26</ele>
        <time>2025-05-07T14:48:11.175Z</time>
      </trkpt>
      <trkpt lat="43.26876" lon="-1.46917">
        <ele>484.9</ele>
        <time>2025-05-07T14:48:12.881Z</time>
      </trkpt>
      <trkpt lat="43.26876" lon="-1.46919">
        <ele>485.44</ele>
        <time>2025-05-07T14:48:14.587Z</time>
      </trkpt>
      <trkpt lat="43.26878" lon="-1.46941">
        <ele>486.02</ele>
        <time>2025-05-07T14:48:16.298Z</time>
      </trkpt>
      <trkpt lat="43.2688" lon="-1.46962">
        <ele>486.65</ele>
        <time>2025-05-07T14:48:18.015Z</time>
      </trkpt>
      <trkpt lat="43.26883" lon="-1.46991">
        <ele>487.22</ele>
        <time>2025-05-07T14:48:19.739Z</time>
      </trkpt>
      <trkpt lat="43.2689" lon="-1.47027">
        <ele>487.76</ele>
        <time>2025-05-07T14:48:21.472Z</time>
      </trkpt>
      <trkpt lat="43.269" lon="-1.47063">
        <ele>488.25</ele>
        <time>2025-05-07T14:48:23.214Z</time>
      </trkpt>
      <trkpt lat="43.26907" lon="-1.47083">
        <ele>488.68</ele>
        <time>2025-05-07T14:48:24.962Z</time>
      </trkpt>
      <trkpt lat="43.26914" lon="-1.47102">
        <ele>489.04</ele>
        <time>2025-05-07T14:48:26.715Z</time>
      </trkpt>
      <trkpt lat="43.26918" lon="-1.47112">
        <ele>489.51</ele>
        <time>2025-05-07T14:48:28.471Z</time>
      </trkpt>
      <trkpt lat="43.26935" lon="-1.47148">
        <ele>490.02</ele>
        <time>2025-05-07T14:48:30.237Z</time>
      </trkpt>
      <trkpt lat="43.26951" lon="-1.47182">
        <ele>490.56</ele>
        <time>2025-05-07T14:48:32.013Z</time>
      </trkpt>
      <trkpt lat="43.26956" lon="-1.47193">
        <ele>491.19</ele>
        <time>2025-05-07T14:48:33.792Z</time>
      </trkpt>
      <trkpt lat="43.2696" lon="-1.47213">
        <ele>491.83</ele>
        <time>2025-05-07T14:48:35.576Z</time>
      </trkpt>
      <trkpt lat="43.26961" lon="-1.47236">
        <ele>492.51</ele>
        <time>2025-05-07T14:48:37.366Z</time>
      </trkpt>
      <trkpt lat="43.26955" lon="-1.4725">
        <ele>493.25</ele>
        <time>2025-05-07T14:48:39.160Z</time>
      </trkpt>
      <trkpt lat="43.26947" lon="-1.47252">
        <ele>493.98</ele>
        <time>2025-05-07T14:48:40.956Z</time>
      </trkpt>
      <trkpt lat="43.2694" lon="-1.47249">
        <ele>494.79</ele>
        <time>2025-05-07T14:48:42.755Z</time>
      </trkpt>
      <trkpt lat="43.26933" lon="-1.4724">
        <ele>495.63</ele>
        <time>2025-05-07T14:48:44.557Z</time>
      </trkpt>
      <trkpt lat="43.26922" lon="-1.47231">
        <ele>496.54</ele>
        <time>2025-05-07T14:48:46.363Z</time>
      </trkpt>
      <trkpt lat="43.26897" lon="-1.47218">
        <ele>497.56</ele>
        <time>2025-05-07T14:48:48.178Z</time>
      </trkpt>
      <trkpt lat="43.26869" lon="-1.47201">
        <ele>498.68</ele>
        <time>2025-05-07T14:48:50.003Z</time>
      </trkpt>
      <trkpt lat="43.26864" lon="-1.47194">
        <ele>499.78</ele>
        <time>2025-05-07T14:48:51.831Z</time>
      </trkpt>
      <trkpt lat="43.26844" lon="-1.47161">
        <ele>500.96</ele>
        <time>2025-05-07T14:48:53.669Z</time>
      </trkpt>
      <trkpt lat="43.26832" lon="-1.47142">
        <ele>502.12</ele>
        <time>2025-05-07T14:48:55.513Z</time>
      </trkpt>
      <trkpt lat="43.2681" lon="-1.47112">
        <ele>503.39</ele>
        <time>2025-05-07T14:48:57.368Z</time>
      </trkpt>
      <trkpt lat="43.26807" lon="-1.47108">
        <ele>504.7</ele>
        <time>2025-05-07T14:48:59.224Z</time>
      </trkpt>
      <trkpt lat="43.26796" lon="-1.4709">
        <ele>506.1</ele>
        <time>2025-05-07T14:49:01.086Z</time>
      </trkpt>
      <trkpt lat="43.26788" lon="-1.47071">
        <ele>507.59</ele>
        <time>2025-05-07T14:49:02.953Z</time>
      </trkpt>
      <trkpt lat="43.26779" lon="-1.4703">
        <ele>509.34</ele>
        <time>2025-05-07T14:49:04.831Z</time>
      </trkpt>
      <trkpt lat="43.26777" lon="-1.47023">
        <ele>510.98</ele>
        <time>2025-05-07T14:49:06.710Z</time>
      </trkpt>
      <trkpt lat="43.26767" lon="-1.46999">
        <ele>512.77</ele>
        <time>2025-05-07T14:49:08.596Z</time>
      </trkpt>
      <trkpt lat="43.26748" lon="-1.46965">
        <ele>514.63</ele>
        <time>2025-05-07T14:49:10.493Z</time>
      </trkpt>
      <trkpt lat="43.26729" lon="-1.46931">
        <ele>516.38</ele>
        <time>2025-05-07T14:49:12.400Z</time>
      </trkpt>
      <trkpt lat="43.26719" lon="-1.46914">
        <ele>518.24</ele>
        <time>2025-05-07T14:49:14.312Z</time>
      </trkpt>
      <trkpt lat="43.26709" lon="-1.46897">
        <ele>520.22</ele>
        <time>2025-05-07T14:49:16.230Z</time>
      </trkpt>
      <trkpt lat="43.26706" lon="-1.46891">
        <ele>522.3</ele>
        <time>2025-05-07T14:49:18.149Z</time>
      </trkpt>
      <trkpt lat="43.26689" lon="-1.46855">
        <ele>524.63</ele>
        <time>2025-05-07T14:49:20.079Z</time>
      </trkpt>
      <trkpt lat="43.26682" lon="-1.46841">
        <ele>526.9</ele>
        <time>2025-05-07T14:49:22.013Z</time>
      </trkpt>
      <trkpt lat="43.26675" lon="-1.46822">
        <ele>529.21</ele>
        <time>2025-05-07T14:49:23.952Z</time>
      </trkpt>
      <trkpt lat="43.26667" lon="-1.46803">
        <ele>531.61</ele>
        <time>2025-05-07T14:49:25.896Z</time>
      </trkpt>
      <trkpt lat="43.26656" lon="-1.46776">
        <ele>534.12</ele>
        <time>2025-05-07T14:49:27.848Z</time>
      </trkpt>
      <trkpt lat="43.2664" lon="-1.46739">
        <ele>536.81</ele>
        <time>2025-05-07T14:49:29.810Z</time>
      </trkpt>
      <trkpt lat="43.26628" lon="-1.46712">
        <ele>539.52</ele>
        <time>2025-05-07T14:49:31.780Z</time>
      </trkpt>
      <trkpt lat="43.26615" lon="-1.46684">
        <ele>542.3</ele>
        <time>2025-05-07T14:49:33.758Z</time>
      </trkpt>
      <trkpt lat="43.26603" lon="-1.46662">
        <ele>545.03</ele>
        <time>2025-05-07T14:49:35.743Z</time>
      </trkpt>
      <trkpt lat="43.26593" lon="-1.4663">
        <ele>547.71</ele>
        <time>2025-05-07T14:49:37.736Z</time>
      </trkpt>
      <trkpt lat="43.26591" lon="-1.46608">
        <ele>550.46</ele>
        <time>2025-05-07T14:49:39.735Z</time>
      </trkpt>
      <trkpt lat="43.26588" lon="-1.46587">
        <ele>553.26</ele>
        <time>2025-05-07T14:49:41.739Z</time>
      </trkpt>
      <trkpt lat="43.26586" lon="-1.46565">
        <ele>556.06</ele>
        <time>2025-05-07T14:49:43.748Z</time>
      </trkpt>
      <trkpt lat="43.2658" lon="-1.46523">
        <ele>559.03</ele>
        <time>2025-05-07T14:49:45.768Z</time>
      </trkpt>
      <trkpt lat="43.26573" lon="-1.46481">
        <ele>561.82</ele>
        <time>2025-05-07T14:49:47.798Z</time>
      </trkpt>
      <trkpt lat="43.26572" lon="-1.46474">
        <ele>564.51</ele>
        <time>2025-05-07T14:49:49.830Z</time>
      </trkpt>
      <trkpt lat="43.26565" lon="-1.46434">
        <ele>567.48</ele>
        <time>2025-05-07T14:49:51.872Z</time>
      </trkpt>
      <trkpt lat="43.2656" lon="-1.46414">
        <ele>570.29</ele>
        <time>2025-05-07T14:49:53.919Z</time>
      </trkpt>
      <trkpt lat="43.26555" lon="-1.46393">
        <ele>573.04</ele>
        <time>2025-05-07T14:49:55.972Z</time>
      </trkpt>
      <trkpt lat="43.26554" lon="-1.46387">
        <ele>575.62</ele>
        <time>2025-05-07T14:49:58.026Z</time>
      </trkpt>
      <trkpt lat="43.26548" lon="-1.46367">
        <ele>578.33</ele>
        <time>2025-05-07T14:50:00.085Z</time>
      </trkpt>
      <trkpt lat="43.26542" lon="-1.46347">
        <ele>580.91</ele>
        <time>2025-05-07T14:50:02.150Z</time>
      </trkpt>
      <trkpt lat="43.26541" lon="-1.46342">
        <ele>583.32</ele>
        <time>2025-05-07T14:50:04.216Z</time>
      </trkpt>
      <trkpt lat="43.26538" lon="-1.46334">
        <ele>585.69</ele>
        <time>2025-05-07T14:50:06.284Z</time>
      </trkpt>
      <trkpt lat="43.26531" lon="-1.4632">
        <ele>587.98</ele>
        <time>2025-05-07T14:50:08.356Z</time>
      </trkpt>
      <trkpt lat="43.26519" lon="-1.46301">
        <ele>590.25</ele>
        <time>2025-05-07T14:50:10.434Z</time>
      </trkpt>
      <trkpt lat="43.26496" lon="-1.46276">
        <ele>592.42</ele>
        <time>2025-05-07T14:50:12.522Z</time>
      </trkpt>
      <trkpt lat="43.26477" lon="-1.46246">
        <ele>594.5</ele>
        <time>2025-05-07T14:50:14.620Z</time>
      </trkpt>
      <trkpt lat="43.26471" lon="-1.4623">
        <ele>596.59</ele>
        <time>2025-05-07T14:50:16.722Z</time>
      </trkpt>
      <trkpt lat="43.26463" lon="-1.46198">
        <ele>598.74</ele>
        <time>2025-05-07T14:50:18.832Z</time>
      </trkpt>
      <trkpt lat="43.26456" lon="-1.46186">
        <ele>600.8</ele>
        <time>2025-05-07T14:50:20.946Z</time>
      </trkpt>
      <trkpt lat="43.26445" lon="-1.46166">
        <ele>602.93</ele>
        <time>2025-05-07T14:50:23.066Z</time>
      </trkpt>
      <trkpt lat="43.26438" lon="-1.46143">
        <ele>604.99</ele>
        <time>2025-05-07T14:50:25.192Z</time>
      </trkpt>
      <trkpt lat="43.26427" lon="-1.46124">
        <ele>606.98</ele>
        <time>2025-05-07T14:50:27.324Z</time>
      </trkpt>
      <trkpt lat="43.26416" lon="-1.46113">
        <ele>609.17</ele>
        <time>2025-05-07T14:50:29.461Z</time>
      </trkpt>
      <trkpt lat="43.26409" lon="-1.46108">
        <ele>611.27</ele>
        <time>2025-05-07T14:50:31.600Z</time>
      </trkpt>
      <trkpt lat="43.26398" lon="-1.46095">
        <ele>613.34</ele>
        <time>2025-05-07T14:50:33.744Z</time>
      </trkpt>
      <trkpt lat="43.26388" lon="-1.46078">
        <ele>615.57</ele>
        <time>2025-05-07T14:50:35.894Z</time>
      </trkpt>
      <trkpt lat="43.2638" lon="-1.46053">
        <ele>617.69</ele>
        <time>2025-05-07T14:50:38.050Z</time>
      </trkpt>
      <trkpt lat="43.26375" lon="-1.46031">
        <ele>619.66</ele>
        <time>2025-05-07T14:50:40.212Z</time>
      </trkpt>
      <trkpt lat="43.26375" lon="-1.46031">
        <ele>621.65</ele>
        <time>2025-05-07T14:50:42.374Z</time>
      </trkpt>
      <trkpt lat="43.26369" lon="-1.46022">
        <ele>623.67</ele>
        <time>2025-05-07T14:50:44.539Z</time>
      </trkpt>
      <trkpt lat="43.26355" lon="-1.45999">
        <ele>625.82</ele>
        <time>2025-05-07T14:50:46.711Z</time>
      </trkpt>
      <trkpt lat="43.26344" lon="-1.45984">
        <ele>627.88</ele>
        <time>2025-05-07T14:50:48.888Z</time>
      </trkpt>
      <trkpt lat="43.26333" lon="-1.45968">
        <ele>630.08</ele>
        <time>2025-05-07T14:50:51.071Z</time>
      </trkpt>
      <trkpt lat="43.26326" lon="-1.45957">
        <ele>632.18</ele>
        <time>2025-05-07T14:50:53.257Z</time>
      </trkpt>
      <trkpt lat="43.26312" lon="-1.45943">
        <ele>634.36</ele>
        <time>2025-05-07T14:50:55.449Z</time>
      </trkpt>
      <trkpt lat="43.26285" lon="-1.45921">
        <ele>636.73</ele>
        <time>2025-05-07T14:50:57.651Z</time>
      </trkpt>
      <trkpt lat="43.26283" lon="-1.45919">
        <ele>638.72</ele>
        <time>2025-05-07T14:50:59.854Z</time>
      </trkpt>
      <trkpt lat="43.2627" lon="-1.45908">
        <ele>640.82</ele>
        <time>2025-05-07T14:51:02.063Z</time>
      </trkpt>
      <trkpt lat="43.26256" lon="-1.45896">
        <ele>642.73</ele>
        <time>2025-05-07T14:51:04.277Z</time>
      </trkpt>
      <trkpt lat="43.2625" lon="-1.45891">
        <ele>644.58</ele>
        <time>2025-05-07T14:51:06.493Z</time>
      </trkpt>
      <trkpt lat="43.26242" lon="-1.45882">
        <ele>646.41</ele>
        <time>2025-05-07T14:51:08.713Z</time>
      </trkpt>
      <trkpt lat="43.2624" lon="-1.45876">
        <ele>648.22</ele>
        <time>2025-05-07T14:51:10.934Z</time>
      </trkpt>
      <trkpt lat="43.2624" lon="-1.45869">
        <ele>650.02</ele>
        <time>2025-05-07T14:51:13.157Z</time>
      </trkpt>
      <trkpt lat="43.26245" lon="-1.4586">
        <ele>651.85</ele>
        <time>2025-05-07T14:51:15.383Z</time>
      </trkpt>
      <trkpt lat="43.26251" lon="-1.45855">
        <ele>653.55</ele>
        <time>2025-05-07T14:51:17.611Z</time>
      </trkpt>
      <trkpt lat="43.26259" lon="-1.45846">
        <ele>655.22</ele>
        <time>2025-05-07T14:51:19.843Z</time>
      </trkpt>
      <trkpt lat="43.26263" lon="-1.45833">
        <ele>656.87</ele>
        <time>2025-05-07T14:51:22.078Z</time>
      </trkpt>
      <trkpt lat="43.26262" lon="-1.45816">
        <ele>658.41</ele>
        <time>2025-05-07T14:51:24.317Z</time>
      </trkpt>
      <trkpt lat="43.26253" lon="-1.45799">
        <ele>659.91</ele>
        <time>2025-05-07T14:51:26.561Z</time>
      </trkpt>
      <trkpt lat="43.26234" lon="-1.45765">
        <ele>661.42</ele>
        <time>2025-05-07T14:51:28.816Z</time>
      </trkpt>
      <trkpt lat="43.26233" lon="-1.45764">
        <ele>662.74</ele>
        <time>2025-05-07T14:51:31.071Z</time>
      </trkpt>
      <trkpt lat="43.26215" lon="-1.45731">
        <ele>664.16</ele>
        <time>2025-05-07T14:51:33.336Z</time>
      </trkpt>
      <trkpt lat="43.26207" lon="-1.45715">
        <ele>665.46</ele>
        <time>2025-05-07T14:51:35.606Z</time>
      </trkpt>
      <trkpt lat="43.26201" lon="-1.45709">
        <ele>666.65</ele>
        <time>2025-05-07T14:51:37.878Z</time>
      </trkpt>
      <trkpt lat="43.26182" lon="-1.45696">
        <ele>667.86</ele>
        <time>2025-05-07T14:51:40.157Z</time>
      </trkpt>
      <trkpt lat="43.26167" lon="-1.45689">
        <ele>679.1</ele>
      </trkpt>
      <trkpt lat="43.26169" lon="-1.45671">
        <ele>682.6</ele>
      </trkpt>
      <trkpt lat="43.26124" lon="-1.45525">
        <ele>724.7</ele>
      </trkpt>
      <trkpt lat="43.26044" lon="-1.45409">
        <ele>773.3</ele>
      </trkpt>
      <trkpt lat="43.26043" lon="-1.45408">
        <ele>766.8</ele>
        <time>2025-05-07T14:57:02.185Z</time>
      </trkpt>
      <trkpt lat="43.26017" lon="-1.45404">
        <ele>768.36</ele>
        <time>2025-05-07T14:57:05.223Z</time>
      </trkpt>
      <trkpt lat="43.25989" lon="-1.45404">
        <ele>769.6</ele>
        <time>2025-05-07T14:57:08.270Z</time>
      </trkpt>
      <trkpt lat="43.25961" lon="-1.45405">
        <ele>770.32</ele>
        <time>2025-05-07T14:57:11.327Z</time>
      </trkpt>
      <trkpt lat="43.25933" lon="-1.45406">
        <ele>770.49</ele>
        <time>2025-05-07T14:57:14.393Z</time>
      </trkpt>
      <trkpt lat="43.2591" lon="-1.4541">
        <ele>770.24</ele>
        <time>2025-05-07T14:57:17.467Z</time>
      </trkpt>
      <trkpt lat="43.25886" lon="-1.45414">
        <ele>769.66</ele>
        <time>2025-05-07T14:57:20.549Z</time>
      </trkpt>
      <trkpt lat="43.25858" lon="-1.4541">
        <ele>768.55</ele>
        <time>2025-05-07T14:57:23.640Z</time>
      </trkpt>
      <trkpt lat="43.25845" lon="-1.45412">
        <ele>767.24</ele>
        <time>2025-05-07T14:57:26.736Z</time>
      </trkpt>
      <trkpt lat="43.2583" lon="-1.45437">
        <ele>765.53</ele>
        <time>2025-05-07T14:57:29.840Z</time>
      </trkpt>
      <trkpt lat="43.25815" lon="-1.45462">
        <ele>763.41</ele>
        <time>2025-05-07T14:57:32.951Z</time>
      </trkpt>
      <trkpt lat="43.258" lon="-1.45487">
        <ele>760.95</ele>
        <time>2025-05-07T14:57:36.070Z</time>
      </trkpt>
      <trkpt lat="43.25791" lon="-1.45509">
        <ele>758.14</ele>
        <time>2025-05-07T14:57:39.195Z</time>
      </trkpt>
      <trkpt lat="43.25781" lon="-1.4553">
        <ele>755</ele>
        <time>2025-05-07T14:57:42.327Z</time>
      </trkpt>
      <trkpt lat="43.2577" lon="-1.45567">
        <ele>751.53</ele>
        <time>2025-05-07T14:57:45.468Z</time>
      </trkpt>
      <trkpt lat="43.25757" lon="-1.45575">
        <ele>747.93</ele>
        <time>2025-05-07T14:57:48.614Z</time>
      </trkpt>
      <trkpt lat="43.25749" lon="-1.4559">
        <ele>744.16</ele>
        <time>2025-05-07T14:57:51.765Z</time>
      </trkpt>
      <trkpt lat="43.25744" lon="-1.45612">
        <ele>740.21</ele>
        <time>2025-05-07T14:57:54.921Z</time>
      </trkpt>
      <trkpt lat="43.2574" lon="-1.45633">
        <ele>736.09</ele>
        <time>2025-05-07T14:57:58.082Z</time>
      </trkpt>
      <trkpt lat="43.25724" lon="-1.45664">
        <ele>731.65</ele>
        <time>2025-05-07T14:58:01.253Z</time>
      </trkpt>
      <trkpt lat="43.25708" lon="-1.45694">
        <ele>727.15</ele>
        <time>2025-05-07T14:58:04.433Z</time>
      </trkpt>
      <trkpt lat="43.25692" lon="-1.45725">
        <ele>722.63</ele>
        <time>2025-05-07T14:58:07.622Z</time>
      </trkpt>
      <trkpt lat="43.25677" lon="-1.45755">
        <ele>718.1</ele>
        <time>2025-05-07T14:58:10.820Z</time>
      </trkpt>
      <trkpt lat="43.25661" lon="-1.45786">
        <ele>713.48</ele>
        <time>2025-05-07T14:58:14.027Z</time>
      </trkpt>
      <trkpt lat="43.25653" lon="-1.45814">
        <ele>709.03</ele>
        <time>2025-05-07T14:58:17.241Z</time>
      </trkpt>
      <trkpt lat="43.25645" lon="-1.45843">
        <ele>704.69</ele>
        <time>2025-05-07T14:58:20.463Z</time>
      </trkpt>
      <trkpt lat="43.25637" lon="-1.45871">
        <ele>700.55</ele>
        <time>2025-05-07T14:58:23.692Z</time>
      </trkpt>
      <trkpt lat="43.2562" lon="-1.45904">
        <ele>696.44</ele>
        <time>2025-05-07T14:58:26.931Z</time>
      </trkpt>
      <trkpt lat="43.2562" lon="-1.45904">
        <ele>692.66</ele>
        <time>2025-05-07T14:58:30.170Z</time>
      </trkpt>
      <trkpt lat="43.25599" lon="-1.45901">
        <ele>688.92</ele>
        <time>2025-05-07T14:58:33.416Z</time>
      </trkpt>
      <trkpt lat="43.25586" lon="-1.45904">
        <ele>685.42</ele>
        <time>2025-05-07T14:58:36.667Z</time>
      </trkpt>
      <trkpt lat="43.25573" lon="-1.45912">
        <ele>682.09</ele>
        <time>2025-05-07T14:58:39.922Z</time>
      </trkpt>
      <trkpt lat="43.25572" lon="-1.45912">
        <ele>678.99</ele>
        <time>2025-05-07T14:58:43.178Z</time>
      </trkpt>
      <trkpt lat="43.25555" lon="-1.45924">
        <ele>676.12</ele>
        <time>2025-05-07T14:58:46.440Z</time>
      </trkpt>
      <trkpt lat="43.25537" lon="-1.45929">
        <ele>673.42</ele>
        <time>2025-05-07T14:58:49.708Z</time>
      </trkpt>
      <trkpt lat="43.2553" lon="-1.45927">
        <ele>670.87</ele>
        <time>2025-05-07T14:58:52.979Z</time>
      </trkpt>
      <trkpt lat="43.25517" lon="-1.45927">
        <ele>668.54</ele>
        <time>2025-05-07T14:58:56.254Z</time>
      </trkpt>
      <trkpt lat="43.25497" lon="-1.45929">
        <ele>666.44</ele>
        <time>2025-05-07T14:58:59.536Z</time>
      </trkpt>
      <trkpt lat="43.25478" lon="-1.45925">
        <ele>664.43</ele>
        <time>2025-05-07T14:59:02.824Z</time>
      </trkpt>
      <trkpt lat="43.25459" lon="-1.4592">
        <ele>662.55</ele>
        <time>2025-05-07T14:59:06.118Z</time>
      </trkpt>
      <trkpt lat="43.25453" lon="-1.45917">
        <ele>660.95</ele>
        <time>2025-05-07T14:59:09.415Z</time>
      </trkpt>
      <trkpt lat="43.25435" lon="-1.45921">
        <ele>659.55</ele>
        <time>2025-05-07T14:59:12.718Z</time>
      </trkpt>
      <trkpt lat="43.25426" lon="-1.45931">
        <ele>658.38</ele>
        <time>2025-05-07T14:59:16.024Z</time>
      </trkpt>
      <trkpt lat="43.25414" lon="-1.45944">
        <ele>657.37</ele>
        <time>2025-05-07T14:59:19.336Z</time>
      </trkpt>
      <trkpt lat="43.25402" lon="-1.45965">
        <ele>656.48</ele>
        <time>2025-05-07T14:59:22.654Z</time>
      </trkpt>
      <trkpt lat="43.25393" lon="-1.45987">
        <ele>655.81</ele>
        <time>2025-05-07T14:59:25.978Z</time>
      </trkpt>
      <trkpt lat="43.25392" lon="-1.4599">
        <ele>655.35</ele>
        <time>2025-05-07T14:59:29.303Z</time>
      </trkpt>
      <trkpt lat="43.25389" lon="-1.45999">
        <ele>655.05</ele>
        <time>2025-05-07T14:59:32.630Z</time>
      </trkpt>
      <trkpt lat="43.25379" lon="-1.46022">
        <ele>654.94</ele>
        <time>2025-05-07T14:59:35.964Z</time>
      </trkpt>
      <trkpt lat="43.2537" lon="-1.46043">
        <ele>655.03</ele>
        <time>2025-05-07T14:59:39.304Z</time>
      </trkpt>
      <trkpt lat="43.25358" lon="-1.46066">
        <ele>655.22</ele>
        <time>2025-05-07T14:59:42.651Z</time>
      </trkpt>
      <trkpt lat="43.25348" lon="-1.46086">
        <ele>655.55</ele>
        <time>2025-05-07T14:59:46.004Z</time>
      </trkpt>
      <trkpt lat="43.25335" lon="-1.46106">
        <ele>655.94</ele>
        <time>2025-05-07T14:59:49.363Z</time>
      </trkpt>
      <trkpt lat="43.25321" lon="-1.46122">
        <ele>656.46</ele>
        <time>2025-05-07T14:59:52.728Z</time>
      </trkpt>
      <trkpt lat="43.25308" lon="-1.46139">
        <ele>657.14</ele>
        <time>2025-05-07T14:59:56.099Z</time>
      </trkpt>
      <trkpt lat="43.25304" lon="-1.46142">
        <ele>657.96</ele>
        <time>2025-05-07T14:59:59.472Z</time>
      </trkpt>
      <trkpt lat="43.25293" lon="-1.46145">
        <ele>658.89</ele>
        <time>2025-05-07T15:00:02.849Z</time>
      </trkpt>
      <trkpt lat="43.25282" lon="-1.46145">
        <ele>659.96</ele>
        <time>2025-05-07T15:00:06.229Z</time>
      </trkpt>
      <trkpt lat="43.25274" lon="-1.46145">
        <ele>661.13</ele>
        <time>2025-05-07T15:00:09.612Z</time>
      </trkpt>
      <trkpt lat="43.25263" lon="-1.46142">
        <ele>662.44</ele>
        <time>2025-05-07T15:00:12.999Z</time>
      </trkpt>
      <trkpt lat="43.25257" lon="-1.46139">
        <ele>663.82</ele>
        <time>2025-05-07T15:00:16.388Z</time>
      </trkpt>
      <trkpt lat="43.25251" lon="-1.46135">
        <ele>665.29</ele>
        <time>2025-05-07T15:00:19.779Z</time>
      </trkpt>
      <trkpt lat="43.25246" lon="-1.46133">
        <ele>666.81</ele>
        <time>2025-05-07T15:00:23.172Z</time>
      </trkpt>
      <trkpt lat="43.25238" lon="-1.4613">
        <ele>668.44</ele>
        <time>2025-05-07T15:00:26.567Z</time>
      </trkpt>
      <trkpt lat="43.25232" lon="-1.46127">
        <ele>670.09</ele>
        <time>2025-05-07T15:00:29.965Z</time>
      </trkpt>
      <trkpt lat="43.25223" lon="-1.46123">
        <ele>671.82</ele>
        <time>2025-05-07T15:00:33.366Z</time>
      </trkpt>
      <trkpt lat="43.25218" lon="-1.46121">
        <ele>673.54</ele>
        <time>2025-05-07T15:00:36.768Z</time>
      </trkpt>
      <trkpt lat="43.25213" lon="-1.46119">
        <ele>675.28</ele>
        <time>2025-05-07T15:00:40.172Z</time>
      </trkpt>
      <trkpt lat="43.25206" lon="-1.46117">
        <ele>677.08</ele>
        <time>2025-05-07T15:00:43.579Z</time>
      </trkpt>
      <trkpt lat="43.25201" lon="-1.46115">
        <ele>678.85</ele>
        <time>2025-05-07T15:00:46.987Z</time>
      </trkpt>
      <trkpt lat="43.25199" lon="-1.46115">
        <ele>680.57</ele>
        <time>2025-05-07T15:00:50.396Z</time>
      </trkpt>
      <trkpt lat="43.25196" lon="-1.46114">
        <ele>682.3</ele>
        <time>2025-05-07T15:00:53.806Z</time>
      </trkpt>
      <trkpt lat="43.25187" lon="-1.46111">
        <ele>684.09</ele>
        <time>2025-05-07T15:00:57.219Z</time>
      </trkpt>
      <trkpt lat="43.2518" lon="-1.46109">
        <ele>685.79</ele>
        <time>2025-05-07T15:01:00.634Z</time>
      </trkpt>
      <trkpt lat="43.25176" lon="-1.46108">
        <ele>687.42</ele>
        <time>2025-05-07T15:01:04.051Z</time>
      </trkpt>
      <trkpt lat="43.25169" lon="-1.46106">
        <ele>689.02</ele>
        <time>2025-05-07T15:01:07.470Z</time>
      </trkpt>
      <trkpt lat="43.25165" lon="-1.46105">
        <ele>690.54</ele>
        <time>2025-05-07T15:01:10.891Z</time>
      </trkpt>
      <trkpt lat="43.25161" lon="-1.46103">
        <ele>691.98</ele>
        <time>2025-05-07T15:01:14.313Z</time>
      </trkpt>
      <trkpt lat="43.25157" lon="-1.46102">
        <ele>693.35</ele>
        <time>2025-05-07T15:01:17.736Z</time>
      </trkpt>
      <trkpt lat="43.25153" lon="-1.46101">
        <ele>694.65</ele>
        <time>2025-05-07T15:01:21.161Z</time>
      </trkpt>
      <trkpt lat="43.25149" lon="-1.461">
        <ele>695.87</ele>
        <time>2025-05-07T15:01:24.587Z</time>
      </trkpt>
      <trkpt lat="43.25142" lon="-1.46098">
        <ele>697.03</ele>
        <time>2025-05-07T15:01:28.015Z</time>
      </trkpt>
      <trkpt lat="43.25136" lon="-1.46096">
        <ele>698.09</ele>
        <time>2025-05-07T15:01:31.445Z</time>
      </trkpt>
      <trkpt lat="43.25132" lon="-1.46095">
        <ele>699.07</ele>
        <time>2025-05-07T15:01:34.877Z</time>
      </trkpt>
      <trkpt lat="43.2513" lon="-1.46094">
        <ele>699.94</ele>
        <time>2025-05-07T15:01:38.310Z</time>
      </trkpt>
      <trkpt lat="43.25122" lon="-1.46092">
        <ele>700.73</ele>
        <time>2025-05-07T15:01:41.745Z</time>
      </trkpt>
      <trkpt lat="43.25119" lon="-1.4609">
        <ele>701.42</ele>
        <time>2025-05-07T15:01:45.181Z</time>
      </trkpt>
      <trkpt lat="43.25116" lon="-1.46089">
        <ele>702.02</ele>
        <time>2025-05-07T15:01:48.618Z</time>
      </trkpt>
      <trkpt lat="43.2511" lon="-1.46088">
        <ele>702.53</ele>
        <time>2025-05-07T15:01:52.057Z</time>
      </trkpt>
      <trkpt lat="43.25106" lon="-1.46088">
        <ele>702.96</ele>
        <time>2025-05-07T15:01:55.498Z</time>
      </trkpt>
      <trkpt lat="43.25103" lon="-1.46089">
        <ele>703.28</ele>
        <time>2025-05-07T15:01:58.940Z</time>
      </trkpt>
      <trkpt lat="43.25101" lon="-1.4609">
        <ele>703.51</ele>
        <time>2025-05-07T15:02:02.383Z</time>
      </trkpt>
      <trkpt lat="43.25093" lon="-1.46094">
        <ele>703.67</ele>
        <time>2025-05-07T15:02:05.828Z</time>
      </trkpt>
      <trkpt lat="43.25084" lon="-1.46101">
        <ele>703.74</ele>
        <time>2025-05-07T15:02:09.277Z</time>
      </trkpt>
      <trkpt lat="43.25081" lon="-1.46105">
        <ele>703.71</ele>
        <time>2025-05-07T15:02:12.727Z</time>
      </trkpt>
      <trkpt lat="43.25075" lon="-1.4611">
        <ele>703.59</ele>
        <time>2025-05-07T15:02:16.180Z</time>
      </trkpt>
      <trkpt lat="43.25067" lon="-1.46117">
        <ele>703.35</ele>
        <time>2025-05-07T15:02:19.636Z</time>
      </trkpt>
      <trkpt lat="43.25065" lon="-1.46119">
        <ele>703.03</ele>
        <time>2025-05-07T15:02:23.093Z</time>
      </trkpt>
      <trkpt lat="43.25061" lon="-1.46122">
        <ele>702.62</ele>
        <time>2025-05-07T15:02:26.551Z</time>
      </trkpt>
      <trkpt lat="43.25056" lon="-1.46125">
        <ele>702.13</ele>
        <time>2025-05-07T15:02:30.011Z</time>
      </trkpt>
      <trkpt lat="43.2505" lon="-1.46128">
        <ele>701.56</ele>
        <time>2025-05-07T15:02:33.473Z</time>
      </trkpt>
      <trkpt lat="43.25049" lon="-1.46129">
        <ele>700.92</ele>
        <time>2025-05-07T15:02:36.935Z</time>
      </trkpt>
      <trkpt lat="43.25044" lon="-1.46128">
        <ele>700.17</ele>
        <time>2025-05-07T15:02:40.399Z</time>
      </trkpt>
      <trkpt lat="43.25039" lon="-1.46128">
        <ele>699.37</ele>
        <time>2025-05-07T15:02:43.865Z</time>
      </trkpt>
      <trkpt lat="43.25021" lon="-1.46134">
        <ele>698.45</ele>
        <time>2025-05-07T15:02:47.337Z</time>
      </trkpt>
      <trkpt lat="43.25017" lon="-1.46136">
        <ele>697.51</ele>
        <time>2025-05-07T15:02:50.810Z</time>
      </trkpt>
      <trkpt lat="43.25014" lon="-1.46138">
        <ele>696.53</ele>
        <time>2025-05-07T15:02:54.284Z</time>
      </trkpt>
      <trkpt lat="43.2501" lon="-1.46138">
        <ele>695.48</ele>
        <time>2025-05-07T15:02:57.760Z</time>
      </trkpt>
      <trkpt lat="43.25004" lon="-1.46139">
        <ele>694.38</ele>
        <time>2025-05-07T15:03:01.238Z</time>
      </trkpt>
      <trkpt lat="43.24999" lon="-1.46139">
        <ele>693.27</ele>
        <time>2025-05-07T15:03:04.717Z</time>
      </trkpt>
      <trkpt lat="43.24992" lon="-1.46141">
        <ele>692.11</ele>
        <time>2025-05-07T15:03:08.199Z</time>
      </trkpt>
      <trkpt lat="43.24988" lon="-1.46141">
        <ele>690.98</ele>
        <time>2025-05-07T15:03:11.682Z</time>
      </trkpt>
      <trkpt lat="43.24984" lon="-1.46142">
        <ele>689.83</ele>
        <time>2025-05-07T15:03:15.167Z</time>
      </trkpt>
      <trkpt lat="43.24981" lon="-1.46144">
        <ele>688.69</ele>
        <time>2025-05-07T15:03:18.653Z</time>
      </trkpt>
      <trkpt lat="43.24977" lon="-1.46146">
        <ele>687.55</ele>
        <time>2025-05-07T15:03:22.140Z</time>
      </trkpt>
      <trkpt lat="43.24973" lon="-1.46147">
        <ele>686.42</ele>
        <time>2025-05-07T15:03:25.628Z</time>
      </trkpt>
      <trkpt lat="43.2497" lon="-1.46147">
        <ele>685.31</ele>
        <time>2025-05-07T15:03:29.117Z</time>
      </trkpt>
      <trkpt lat="43.24966" lon="-1.46149">
        <ele>684.22</ele>
        <time>2025-05-07T15:03:32.608Z</time>
      </trkpt>
      <trkpt lat="43.2496" lon="-1.46151">
        <ele>683.16</ele>
        <time>2025-05-07T15:03:36.101Z</time>
      </trkpt>
      <trkpt lat="43.24954" lon="-1.46152">
        <ele>682.14</ele>
        <time>2025-05-07T15:03:39.596Z</time>
      </trkpt>
      <trkpt lat="43.2495" lon="-1.46153">
        <ele>681.17</ele>
        <time>2025-05-07T15:03:43.092Z</time>
      </trkpt>
      <trkpt lat="43.24935" lon="-1.46156">
        <ele>680.19</ele>
        <time>2025-05-07T15:03:46.593Z</time>
      </trkpt>
      <trkpt lat="43.24924" lon="-1.4616">
        <ele>679.29</ele>
        <time>2025-05-07T15:03:50.098Z</time>
      </trkpt>
      <trkpt lat="43.24905" lon="-1.46166">
        <ele>678.44</ele>
        <time>2025-05-07T15:03:53.610Z</time>
      </trkpt>
      <trkpt lat="43.24894" lon="-1.46171">
        <ele>677.67</ele>
        <time>2025-05-07T15:03:57.125Z</time>
      </trkpt>
      <trkpt lat="43.24889" lon="-1.46175">
        <ele>676.97</ele>
        <time>2025-05-07T15:04:00.642Z</time>
      </trkpt>
      <trkpt lat="43.24887" lon="-1.46177">
        <ele>676.33</ele>
        <time>2025-05-07T15:04:04.160Z</time>
      </trkpt>
      <trkpt lat="43.24884" lon="-1.46178">
        <ele>675.77</ele>
        <time>2025-05-07T15:04:07.679Z</time>
      </trkpt>
      <trkpt lat="43.24882" lon="-1.46179">
        <ele>675.27</ele>
        <time>2025-05-07T15:04:11.199Z</time>
      </trkpt>
      <trkpt lat="43.2488" lon="-1.46179">
        <ele>674.85</ele>
        <time>2025-05-07T15:04:14.720Z</time>
      </trkpt>
      <trkpt lat="43.24878" lon="-1.46179">
        <ele>674.49</ele>
        <time>2025-05-07T15:04:18.241Z</time>
      </trkpt>
      <trkpt lat="43.24869" lon="-1.46178">
        <ele>674.2</ele>
        <time>2025-05-07T15:04:21.765Z</time>
      </trkpt>
      <trkpt lat="43.24862" lon="-1.46176">
        <ele>673.97</ele>
        <time>2025-05-07T15:04:25.292Z</time>
      </trkpt>
      <trkpt lat="43.24854" lon="-1.46174">
        <ele>673.82</ele>
        <time>2025-05-07T15:04:28.821Z</time>
      </trkpt>
      <trkpt lat="43.24849" lon="-1.46173">
        <ele>673.74</ele>
        <time>2025-05-07T15:04:32.352Z</time>
      </trkpt>
      <trkpt lat="43.24831" lon="-1.46165">
        <ele>673.75</ele>
        <time>2025-05-07T15:04:35.889Z</time>
      </trkpt>
      <trkpt lat="43.24819" lon="-1.46158">
        <ele>673.86</ele>
        <time>2025-05-07T15:04:39.431Z</time>
      </trkpt>
      <trkpt lat="43.24816" lon="-1.46158">
        <ele>674.02</ele>
        <time>2025-05-07T15:04:42.974Z</time>
      </trkpt>
      <trkpt lat="43.24814" lon="-1.46158">
        <ele>674.25</ele>
        <time>2025-05-07T15:04:46.517Z</time>
      </trkpt>
      <trkpt lat="43.24812" lon="-1.46156">
        <ele>674.56</ele>
        <time>2025-05-07T15:04:50.061Z</time>
      </trkpt>
      <trkpt lat="43.2481" lon="-1.46154">
        <ele>674.94</ele>
        <time>2025-05-07T15:04:53.606Z</time>
      </trkpt>
      <trkpt lat="43.24804" lon="-1.46155">
        <ele>675.39</ele>
        <time>2025-05-07T15:04:57.153Z</time>
      </trkpt>
      <trkpt lat="43.24801" lon="-1.46149">
        <ele>675.94</ele>
        <time>2025-05-07T15:05:00.702Z</time>
      </trkpt>
      <trkpt lat="43.24797" lon="-1.46141">
        <ele>676.55</ele>
        <time>2025-05-07T15:05:04.253Z</time>
      </trkpt>
      <trkpt lat="43.2479" lon="-1.46127">
        <ele>677.27</ele>
        <time>2025-05-07T15:05:07.808Z</time>
      </trkpt>
      <trkpt lat="43.24788" lon="-1.46123">
        <ele>677.96</ele>
        <time>2025-05-07T15:05:11.365Z</time>
      </trkpt>
      <trkpt lat="43.24786" lon="-1.46114">
        <ele>678.77</ele>
        <time>2025-05-07T15:05:14.924Z</time>
      </trkpt>
      <trkpt lat="43.24785" lon="-1.46109">
        <ele>679.59</ele>
        <time>2025-05-07T15:05:18.484Z</time>
      </trkpt>
      <trkpt lat="43.24784" lon="-1.46104">
        <ele>680.42</ele>
        <time>2025-05-07T15:05:22.045Z</time>
      </trkpt>
      <trkpt lat="43.24783" lon="-1.46097">
        <ele>681.3</ele>
        <time>2025-05-07T15:05:25.608Z</time>
      </trkpt>
      <trkpt lat="43.24782" lon="-1.4609">
        <ele>682.22</ele>
        <time>2025-05-07T15:05:29.173Z</time>
      </trkpt>
      <trkpt lat="43.2478" lon="-1.46079">
        <ele>683.18</ele>
        <time>2025-05-07T15:05:32.741Z</time>
      </trkpt>
      <trkpt lat="43.24781" lon="-1.4607">
        <ele>684.13</ele>
        <time>2025-05-07T15:05:36.311Z</time>
      </trkpt>
      <trkpt lat="43.2478" lon="-1.46066">
        <ele>685.1</ele>
        <time>2025-05-07T15:05:39.882Z</time>
      </trkpt>
      <trkpt lat="43.24781" lon="-1.46061">
        <ele>686.08</ele>
        <time>2025-05-07T15:05:43.454Z</time>
      </trkpt>
      <trkpt lat="43.24781" lon="-1.46054">
        <ele>687.1</ele>
        <time>2025-05-07T15:05:47.028Z</time>
      </trkpt>
      <trkpt lat="43.24781" lon="-1.46048">
        <ele>688.11</ele>
        <time>2025-05-07T15:05:50.603Z</time>
      </trkpt>
      <trkpt lat="43.24782" lon="-1.46042">
        <ele>689.14</ele>
        <time>2025-05-07T15:05:54.180Z</time>
      </trkpt>
      <trkpt lat="43.24787" lon="-1.46023">
        <ele>690.22</ele>
        <time>2025-05-07T15:05:57.762Z</time>
      </trkpt>
      <trkpt lat="43.24788" lon="-1.46009">
        <ele>691.26</ele>
        <time>2025-05-07T15:06:01.347Z</time>
      </trkpt>
      <trkpt lat="43.24787" lon="-1.46002">
        <ele>692.38</ele>
        <time>2025-05-07T15:06:04.934Z</time>
      </trkpt>
      <trkpt lat="43.24784" lon="-1.45999">
        <ele>693.55</ele>
        <time>2025-05-07T15:06:08.522Z</time>
      </trkpt>
      <trkpt lat="43.24782" lon="-1.45999">
        <ele>694.72</ele>
        <time>2025-05-07T15:06:12.111Z</time>
      </trkpt>
      <trkpt lat="43.2478" lon="-1.46001">
        <ele>695.91</ele>
        <time>2025-05-07T15:06:15.701Z</time>
      </trkpt>
      <trkpt lat="43.24777" lon="-1.46002">
        <ele>697.13</ele>
        <time>2025-05-07T15:06:19.292Z</time>
      </trkpt>
      <trkpt lat="43.24773" lon="-1.46002">
        <ele>698.39</ele>
        <time>2025-05-07T15:06:22.884Z</time>
      </trkpt>
      <trkpt lat="43.2477" lon="-1.46002">
        <ele>699.65</ele>
        <time>2025-05-07T15:06:26.477Z</time>
      </trkpt>
      <trkpt lat="43.24767" lon="-1.46003">
        <ele>700.92</ele>
        <time>2025-05-07T15:06:30.071Z</time>
      </trkpt>
      <trkpt lat="43.24763" lon="-1.46002">
        <ele>702.25</ele>
        <time>2025-05-07T15:06:33.666Z</time>
      </trkpt>
      <trkpt lat="43.2476" lon="-1.46002">
        <ele>703.57</ele>
        <time>2025-05-07T15:06:37.262Z</time>
      </trkpt>
      <trkpt lat="43.24757" lon="-1.46002">
        <ele>704.9</ele>
        <time>2025-05-07T15:06:40.859Z</time>
      </trkpt>
      <trkpt lat="43.24752" lon="-1.45999">
        <ele>706.3</ele>
        <time>2025-05-07T15:06:44.458Z</time>
      </trkpt>
      <trkpt lat="43.24749" lon="-1.45997">
        <ele>707.65</ele>
        <time>2025-05-07T15:06:48.058Z</time>
      </trkpt>
      <trkpt lat="43.24744" lon="-1.45997">
        <ele>709.04</ele>
        <time>2025-05-07T15:06:51.660Z</time>
      </trkpt>
      <trkpt lat="43.2474" lon="-1.45996">
        <ele>710.4</ele>
        <time>2025-05-07T15:06:55.263Z</time>
      </trkpt>
      <trkpt lat="43.24737" lon="-1.45998">
        <ele>711.72</ele>
        <time>2025-05-07T15:06:58.867Z</time>
      </trkpt>
      <trkpt lat="43.24734" lon="-1.45997">
        <ele>713.05</ele>
        <time>2025-05-07T15:07:02.472Z</time>
      </trkpt>
      <trkpt lat="43.24728" lon="-1.45999">
        <ele>714.41</ele>
        <time>2025-05-07T15:07:06.079Z</time>
      </trkpt>
      <trkpt lat="43.24721" lon="-1.46001">
        <ele>715.77</ele>
        <time>2025-05-07T15:07:09.689Z</time>
      </trkpt>
      <trkpt lat="43.24715" lon="-1.45998">
        <ele>717.14</ele>
        <time>2025-05-07T15:07:13.301Z</time>
      </trkpt>
      <trkpt lat="43.24709" lon="-1.45996">
        <ele>718.42</ele>
        <time>2025-05-07T15:07:16.915Z</time>
      </trkpt>
      <trkpt lat="43.24706" lon="-1.45993">
        <ele>719.69</ele>
        <time>2025-05-07T15:07:20.530Z</time>
      </trkpt>
      <trkpt lat="43.247" lon="-1.45988">
        <ele>720.96</ele>
        <time>2025-05-07T15:07:24.148Z</time>
      </trkpt>
      <trkpt lat="43.24697" lon="-1.45985">
        <ele>722.25</ele>
        <time>2025-05-07T15:07:27.767Z</time>
      </trkpt>
      <trkpt lat="43.24695" lon="-1.45982">
        <ele>723.54</ele>
        <time>2025-05-07T15:07:31.387Z</time>
      </trkpt>
      <trkpt lat="43.24691" lon="-1.45976">
        <ele>724.86</ele>
        <time>2025-05-07T15:07:35.009Z</time>
      </trkpt>
      <trkpt lat="43.24687" lon="-1.45973">
        <ele>726.13</ele>
        <time>2025-05-07T15:07:38.632Z</time>
      </trkpt>
      <trkpt lat="43.24681" lon="-1.45968">
        <ele>727.41</ele>
        <time>2025-05-07T15:07:42.258Z</time>
      </trkpt>
      <trkpt lat="43.24677" lon="-1.45964">
        <ele>728.65</ele>
        <time>2025-05-07T15:07:45.885Z</time>
      </trkpt>
      <trkpt lat="43.24676" lon="-1.45963">
        <ele>729.81</ele>
        <time>2025-05-07T15:07:49.513Z</time>
      </trkpt>
      <trkpt lat="43.24672" lon="-1.45961">
        <ele>730.99</ele>
        <time>2025-05-07T15:07:53.142Z</time>
      </trkpt>
      <trkpt lat="43.2467" lon="-1.45959">
        <ele>732.13</ele>
        <time>2025-05-07T15:07:56.772Z</time>
      </trkpt>
      <trkpt lat="43.24668" lon="-1.45956">
        <ele>733.28</ele>
        <time>2025-05-07T15:08:00.403Z</time>
      </trkpt>
      <trkpt lat="43.24665" lon="-1.45951">
        <ele>734.43</ele>
        <time>2025-05-07T15:08:04.036Z</time>
      </trkpt>
      <trkpt lat="43.24662" lon="-1.45948">
        <ele>735.53</ele>
        <time>2025-05-07T15:08:07.670Z</time>
      </trkpt>
      <trkpt lat="43.2466" lon="-1.45942">
        <ele>736.61</ele>
        <time>2025-05-07T15:08:11.305Z</time>
      </trkpt>
      <trkpt lat="43.24658" lon="-1.45938">
        <ele>737.61</ele>
        <time>2025-05-07T15:08:14.942Z</time>
      </trkpt>
      <trkpt lat="43.24655" lon="-1.45933">
        <ele>738.58</ele>
        <time>2025-05-07T15:08:18.580Z</time>
      </trkpt>
      <trkpt lat="43.24653" lon="-1.45928">
        <ele>739.51</ele>
        <time>2025-05-07T15:08:22.220Z</time>
      </trkpt>
      <trkpt lat="43.24652" lon="-1.45923">
        <ele>740.38</ele>
        <time>2025-05-07T15:08:25.861Z</time>
      </trkpt>
      <trkpt lat="43.2465" lon="-1.45918">
        <ele>741.26</ele>
        <time>2025-05-07T15:08:29.503Z</time>
      </trkpt>
      <trkpt lat="43.24648" lon="-1.45914">
        <ele>742.07</ele>
        <time>2025-05-07T15:08:33.146Z</time>
      </trkpt>
      <trkpt lat="43.24651" lon="-1.45892">
        <ele>742.9</ele>
        <time>2025-05-07T15:08:36.795Z</time>
      </trkpt>
      <trkpt lat="43.24653" lon="-1.45886">
        <ele>743.58</ele>
        <time>2025-05-07T15:08:40.445Z</time>
      </trkpt>
      <trkpt lat="43.24657" lon="-1.45879">
        <ele>744.21</ele>
        <time>2025-05-07T15:08:44.098Z</time>
      </trkpt>
      <trkpt lat="43.24658" lon="-1.4588">
        <ele>744.79</ele>
        <time>2025-05-07T15:08:47.751Z</time>
      </trkpt>
      <trkpt lat="43.24665" lon="-1.45877">
        <ele>745.3</ele>
        <time>2025-05-07T15:08:51.406Z</time>
      </trkpt>
      <trkpt lat="43.24666" lon="-1.45876">
        <ele>745.84</ele>
        <time>2025-05-07T15:08:55.062Z</time>
      </trkpt>
      <trkpt lat="43.24672" lon="-1.45874">
        <ele>746.3</ele>
        <time>2025-05-07T15:08:58.720Z</time>
      </trkpt>
      <trkpt lat="43.24688" lon="-1.45862">
        <ele>746.7</ele>
        <time>2025-05-07T15:09:02.384Z</time>
      </trkpt>
      <trkpt lat="43.24688" lon="-1.4586">
        <ele>747.24</ele>
        <time>2025-05-07T15:09:06.049Z</time>
      </trkpt>
      <trkpt lat="43.24703" lon="-1.45844">
        <ele>747.7</ele>
        <time>2025-05-07T15:09:09.720Z</time>
      </trkpt>
      <trkpt lat="43.24707" lon="-1.45836">
        <ele>748.26</ele>
        <time>2025-05-07T15:09:13.393Z</time>
      </trkpt>
      <trkpt lat="43.2471" lon="-1.4583">
        <ele>748.83</ele>
        <time>2025-05-07T15:09:17.068Z</time>
      </trkpt>
      <trkpt lat="43.24713" lon="-1.45823">
        <ele>749.42</ele>
        <time>2025-05-07T15:09:20.745Z</time>
      </trkpt>
      <trkpt lat="43.24714" lon="-1.45818">
        <ele>750.05</ele>
        <time>2025-05-07T15:09:24.423Z</time>
      </trkpt>
      <trkpt lat="43.24717" lon="-1.45814">
        <ele>750.67</ele>
        <time>2025-05-07T15:09:28.103Z</time>
      </trkpt>
      <trkpt lat="43.24719" lon="-1.45811">
        <ele>751.32</ele>
        <time>2025-05-07T15:09:31.784Z</time>
      </trkpt>
      <trkpt lat="43.24717" lon="-1.45808">
        <ele>752.07</ele>
        <time>2025-05-07T15:09:35.466Z</time>
      </trkpt>
      <trkpt lat="43.24712" lon="-1.45809">
        <ele>752.86</ele>
        <time>2025-05-07T15:09:39.149Z</time>
      </trkpt>
      <trkpt lat="43.24706" lon="-1.45813">
        <ele>753.68</ele>
        <time>2025-05-07T15:09:42.835Z</time>
      </trkpt>
      <trkpt lat="43.24703" lon="-1.45813">
        <ele>754.53</ele>
        <time>2025-05-07T15:09:46.522Z</time>
      </trkpt>
      <trkpt lat="43.24699" lon="-1.45814">
        <ele>755.41</ele>
        <time>2025-05-07T15:09:50.210Z</time>
      </trkpt>
      <trkpt lat="43.24696" lon="-1.45816">
        <ele>756.3</ele>
        <time>2025-05-07T15:09:53.899Z</time>
      </trkpt>
      <trkpt lat="43.24689" lon="-1.45818">
        <ele>757.3</ele>
        <time>2025-05-07T15:09:57.590Z</time>
      </trkpt>
      <trkpt lat="43.24685" lon="-1.45819">
        <ele>758.26</ele>
        <time>2025-05-07T15:10:01.283Z</time>
      </trkpt>
      <trkpt lat="43.24681" lon="-1.45819">
        <ele>759.25</ele>
        <time>2025-05-07T15:10:04.977Z</time>
      </trkpt>
      <trkpt lat="43.24679" lon="-1.45812">
        <ele>760.33</ele>
        <time>2025-05-07T15:10:08.673Z</time>
      </trkpt>
      <trkpt lat="43.24679" lon="-1.45808">
        <ele>761.37</ele>
        <time>2025-05-07T15:10:12.370Z</time>
      </trkpt>
      <trkpt lat="43.24679" lon="-1.45807">
        <ele>762.38</ele>
        <time>2025-05-07T15:10:16.067Z</time>
      </trkpt>
      <trkpt lat="43.24675" lon="-1.45808">
        <ele>763.43</ele>
        <time>2025-05-07T15:10:19.765Z</time>
      </trkpt>
      <trkpt lat="43.24671" lon="-1.45806">
        <ele>764.53</ele>
        <time>2025-05-07T15:10:23.465Z</time>
      </trkpt>
      <trkpt lat="43.24667" lon="-1.45803">
        <ele>765.66</ele>
        <time>2025-05-07T15:10:27.166Z</time>
      </trkpt>
      <trkpt lat="43.24659" lon="-1.45801">
        <ele>766.82</ele>
        <time>2025-05-07T15:10:30.870Z</time>
      </trkpt>
      <trkpt lat="43.24657" lon="-1.45798">
        <ele>767.9</ele>
        <time>2025-05-07T15:10:34.575Z</time>
      </trkpt>
      <trkpt lat="43.24659" lon="-1.45794">
        <ele>768.95</ele>
        <time>2025-05-07T15:10:38.281Z</time>
      </trkpt>
      <trkpt lat="43.24663" lon="-1.45788">
        <ele>769.99</ele>
        <time>2025-05-07T15:10:41.989Z</time>
      </trkpt>
      <trkpt lat="43.24667" lon="-1.45783">
        <ele>771.01</ele>
        <time>2025-05-07T15:10:45.699Z</time>
      </trkpt>
      <trkpt lat="43.2467" lon="-1.45781">
        <ele>771.99</ele>
        <time>2025-05-07T15:10:49.410Z</time>
      </trkpt>
      <trkpt lat="43.24674" lon="-1.45776">
        <ele>773</ele>
        <time>2025-05-07T15:10:53.123Z</time>
      </trkpt>
      <trkpt lat="43.24678" lon="-1.45769">
        <ele>774.01</ele>
        <time>2025-05-07T15:10:56.838Z</time>
      </trkpt>
      <trkpt lat="43.24682" lon="-1.45762">
        <ele>775.02</ele>
        <time>2025-05-07T15:11:00.555Z</time>
      </trkpt>
      <trkpt lat="43.24685" lon="-1.45757">
        <ele>776.01</ele>
        <time>2025-05-07T15:11:04.274Z</time>
      </trkpt>
      <trkpt lat="43.24688" lon="-1.45752">
        <ele>776.98</ele>
        <time>2025-05-07T15:11:07.994Z</time>
      </trkpt>
      <trkpt lat="43.24687" lon="-1.45752">
        <ele>777.94</ele>
        <time>2025-05-07T15:11:11.715Z</time>
      </trkpt>
      <trkpt lat="43.24689" lon="-1.45747">
        <ele>778.9</ele>
        <time>2025-05-07T15:11:15.437Z</time>
      </trkpt>
      <trkpt lat="43.24688" lon="-1.45742">
        <ele>779.89</ele>
        <time>2025-05-07T15:11:19.160Z</time>
      </trkpt>
      <trkpt lat="43.24694" lon="-1.4573">
        <ele>780.83</ele>
        <time>2025-05-07T15:11:22.887Z</time>
      </trkpt>
      <trkpt lat="43.24695" lon="-1.45729">
        <ele>781.73</ele>
        <time>2025-05-07T15:11:26.614Z</time>
      </trkpt>
      <trkpt lat="43.24696" lon="-1.45724">
        <ele>782.66</ele>
        <time>2025-05-07T15:11:30.343Z</time>
      </trkpt>
      <trkpt lat="43.24696" lon="-1.45722">
        <ele>783.57</ele>
        <time>2025-05-07T15:11:34.072Z</time>
      </trkpt>
      <trkpt lat="43.24697" lon="-1.4572">
        <ele>784.45</ele>
        <time>2025-05-07T15:11:37.802Z</time>
      </trkpt>
      <trkpt lat="43.24697" lon="-1.45714">
        <ele>785.37</ele>
        <time>2025-05-07T15:11:41.533Z</time>
      </trkpt>
      <trkpt lat="43.24698" lon="-1.4571">
        <ele>786.26</ele>
        <time>2025-05-07T15:11:45.265Z</time>
      </trkpt>
      <trkpt lat="43.24698" lon="-1.45705">
        <ele>787.14</ele>
        <time>2025-05-07T15:11:48.998Z</time>
      </trkpt>
      <trkpt lat="43.24696" lon="-1.45705">
        <ele>788.01</ele>
        <time>2025-05-07T15:11:52.732Z</time>
      </trkpt>
      <trkpt lat="43.24695" lon="-1.457">
        <ele>788.89</ele>
        <time>2025-05-07T15:11:56.467Z</time>
      </trkpt>
      <trkpt lat="43.24695" lon="-1.45696">
        <ele>789.73</ele>
        <time>2025-05-07T15:12:00.203Z</time>
      </trkpt>
      <trkpt lat="43.24694" lon="-1.45694">
        <ele>790.56</ele>
        <time>2025-05-07T15:12:03.940Z</time>
      </trkpt>
      <trkpt lat="43.2469" lon="-1.45691">
        <ele>791.42</ele>
        <time>2025-05-07T15:12:07.678Z</time>
      </trkpt>
      <trkpt lat="43.2469" lon="-1.45683">
        <ele>792.25</ele>
        <time>2025-05-07T15:12:11.418Z</time>
      </trkpt>
      <trkpt lat="43.24688" lon="-1.45679">
        <ele>793.06</ele>
        <time>2025-05-07T15:12:15.160Z</time>
      </trkpt>
      <trkpt lat="43.24688" lon="-1.45673">
        <ele>793.82</ele>
        <time>2025-05-07T15:12:18.903Z</time>
      </trkpt>
      <trkpt lat="43.24689" lon="-1.45668">
        <ele>794.53</ele>
        <time>2025-05-07T15:12:22.647Z</time>
      </trkpt>
      <trkpt lat="43.24689" lon="-1.45664">
        <ele>795.22</ele>
        <time>2025-05-07T15:12:26.392Z</time>
      </trkpt>
      <trkpt lat="43.24687" lon="-1.4566">
        <ele>795.91</ele>
        <time>2025-05-07T15:12:30.138Z</time>
      </trkpt>
      <trkpt lat="43.24686" lon="-1.45654">
        <ele>796.55</ele>
        <time>2025-05-07T15:12:33.886Z</time>
      </trkpt>
      <trkpt lat="43.24688" lon="-1.45645">
        <ele>797.16</ele>
        <time>2025-05-07T15:12:37.636Z</time>
      </trkpt>
      <trkpt lat="43.24689" lon="-1.45633">
        <ele>797.71</ele>
        <time>2025-05-07T15:12:41.389Z</time>
      </trkpt>
      <trkpt lat="43.24688" lon="-1.4563">
        <ele>798.19</ele>
        <time>2025-05-07T15:12:45.143Z</time>
      </trkpt>
      <trkpt lat="43.24688" lon="-1.45627">
        <ele>798.6</ele>
        <time>2025-05-07T15:12:48.898Z</time>
      </trkpt>
      <trkpt lat="43.24688" lon="-1.45624">
        <ele>798.97</ele>
        <time>2025-05-07T15:12:52.653Z</time>
      </trkpt>
      <trkpt lat="43.24687" lon="-1.45617">
        <ele>799.29</ele>
        <time>2025-05-07T15:12:56.410Z</time>
      </trkpt>
      <trkpt lat="43.24682" lon="-1.45607">
        <ele>799.53</ele>
        <time>2025-05-07T15:13:00.170Z</time>
      </trkpt>
      <trkpt lat="43.24678" lon="-1.45604">
        <ele>799.72</ele>
        <time>2025-05-07T15:13:03.932Z</time>
      </trkpt>
      <trkpt lat="43.24672" lon="-1.456">
        <ele>799.86</ele>
        <time>2025-05-07T15:13:07.696Z</time>
      </trkpt>
      <trkpt lat="43.24671" lon="-1.45599">
        <ele>799.98</ele>
        <time>2025-05-07T15:13:11.460Z</time>
      </trkpt>
      <trkpt lat="43.24672" lon="-1.45598">
        <ele>800.06</ele>
        <time>2025-05-07T15:13:15.225Z</time>
      </trkpt>
      <trkpt lat="43.24673" lon="-1.45599">
        <ele>800.1</ele>
        <time>2025-05-07T15:13:18.990Z</time>
      </trkpt>
      <trkpt lat="43.24677" lon="-1.45599">
        <ele>800.1</ele>
        <time>2025-05-07T15:13:22.756Z</time>
      </trkpt>
      <trkpt lat="43.24681" lon="-1.456">
        <ele>800.06</ele>
        <time>2025-05-07T15:13:26.524Z</time>
      </trkpt>
      <trkpt lat="43.24681" lon="-1.45604">
        <ele>799.97</ele>
        <time>2025-05-07T15:13:30.293Z</time>
      </trkpt>
      <trkpt lat="43.24672" lon="-1.45619">
        <ele>799.8</ele>
        <time>2025-05-07T15:13:34.067Z</time>
      </trkpt>
      <trkpt lat="43.24664" lon="-1.4563">
        <ele>799.57</ele>
        <time>2025-05-07T15:13:37.844Z</time>
      </trkpt>
      <trkpt lat="43.24661" lon="-1.45633">
        <ele>799.3</ele>
        <time>2025-05-07T15:13:41.623Z</time>
      </trkpt>
      <trkpt lat="43.24656" lon="-1.45634">
        <ele>798.98</ele>
        <time>2025-05-07T15:13:45.403Z</time>
      </trkpt>
      <trkpt lat="43.24653" lon="-1.45636">
        <ele>798.61</ele>
        <time>2025-05-07T15:13:49.184Z</time>
      </trkpt>
      <trkpt lat="43.24648" lon="-1.45642">
        <ele>798.19</ele>
        <time>2025-05-07T15:13:52.968Z</time>
      </trkpt>
      <trkpt lat="43.24638" lon="-1.45663">
        <ele>797.68</ele>
        <time>2025-05-07T15:13:56.758Z</time>
      </trkpt>
      <trkpt lat="43.24636" lon="-1.45666">
        <ele>797.19</ele>
        <time>2025-05-07T15:14:00.549Z</time>
      </trkpt>
      <trkpt lat="43.24635" lon="-1.45667">
        <ele>796.66</ele>
        <time>2025-05-07T15:14:04.340Z</time>
      </trkpt>
      <trkpt lat="43.24625" lon="-1.45676">
        <ele>796.06</ele>
        <time>2025-05-07T15:14:08.135Z</time>
      </trkpt>
      <trkpt lat="43.2462" lon="-1.45675">
        <ele>795.43</ele>
        <time>2025-05-07T15:14:11.932Z</time>
      </trkpt>
      <trkpt lat="43.24619" lon="-1.45674">
        <ele>794.78</ele>
        <time>2025-05-07T15:14:15.729Z</time>
      </trkpt>
      <trkpt lat="43.24616" lon="-1.45671">
        <ele>794.09</ele>
        <time>2025-05-07T15:14:19.527Z</time>
      </trkpt>
      <trkpt lat="43.24607" lon="-1.4566">
        <ele>793.34</ele>
        <time>2025-05-07T15:14:23.329Z</time>
      </trkpt>
      <trkpt lat="43.24602" lon="-1.45659">
        <ele>792.52</ele>
        <time>2025-05-07T15:14:27.133Z</time>
      </trkpt>
      <trkpt lat="43.24596" lon="-1.45662">
        <ele>791.64</ele>
        <time>2025-05-07T15:14:30.939Z</time>
      </trkpt>
      <trkpt lat="43.2459" lon="-1.45663">
        <ele>790.71</ele>
        <time>2025-05-07T15:14:34.747Z</time>
      </trkpt>
      <trkpt lat="43.24587" lon="-1.45664">
        <ele>789.78</ele>
        <time>2025-05-07T15:14:38.556Z</time>
      </trkpt>
      <trkpt lat="43.24585" lon="-1.45659">
        <ele>788.8</ele>
        <time>2025-05-07T15:14:42.367Z</time>
      </trkpt>
      <trkpt lat="43.24581" lon="-1.45658">
        <ele>787.79</ele>
        <time>2025-05-07T15:14:46.179Z</time>
      </trkpt>
      <trkpt lat="43.2458" lon="-1.45658">
        <ele>786.77</ele>
        <time>2025-05-07T15:14:49.991Z</time>
      </trkpt>
      <trkpt lat="43.24579" lon="-1.45658">
        <ele>785.72</ele>
        <time>2025-05-07T15:14:53.804Z</time>
      </trkpt>
      <trkpt lat="43.24577" lon="-1.4566">
        <ele>784.63</ele>
        <time>2025-05-07T15:14:57.618Z</time>
      </trkpt>
      <trkpt lat="43.24575" lon="-1.45662">
        <ele>783.5</ele>
        <time>2025-05-07T15:15:01.432Z</time>
      </trkpt>
      <trkpt lat="43.24572" lon="-1.45663">
        <ele>782.32</ele>
        <time>2025-05-07T15:15:05.247Z</time>
      </trkpt>
      <trkpt lat="43.24572" lon="-1.45662">
        <ele>781.14</ele>
        <time>2025-05-07T15:15:09.063Z</time>
      </trkpt>
      <trkpt lat="43.24572" lon="-1.4566">
        <ele>779.93</ele>
        <time>2025-05-07T15:15:12.879Z</time>
      </trkpt>
      <trkpt lat="43.24571" lon="-1.45657">
        <ele>778.66</ele>
        <time>2025-05-07T15:15:16.696Z</time>
      </trkpt>
      <trkpt lat="43.2457" lon="-1.45655">
        <ele>777.38</ele>
        <time>2025-05-07T15:15:20.514Z</time>
      </trkpt>
      <trkpt lat="43.24565" lon="-1.45648">
        <ele>775.99</ele>
        <time>2025-05-07T15:15:24.334Z</time>
      </trkpt>
      <trkpt lat="43.24563" lon="-1.45643">
        <ele>774.59</ele>
        <time>2025-05-07T15:15:28.155Z</time>
      </trkpt>
      <trkpt lat="43.24562" lon="-1.45637">
        <ele>773.18</ele>
        <time>2025-05-07T15:15:31.978Z</time>
      </trkpt>
      <trkpt lat="43.24561" lon="-1.45633">
        <ele>771.74</ele>
        <time>2025-05-07T15:15:35.802Z</time>
      </trkpt>
      <trkpt lat="43.24561" lon="-1.4563">
        <ele>770.33</ele>
        <time>2025-05-07T15:15:39.627Z</time>
      </trkpt>
      <trkpt lat="43.2456" lon="-1.45627">
        <ele>768.89</ele>
        <time>2025-05-07T15:15:43.452Z</time>
      </trkpt>
      <trkpt lat="43.24558" lon="-1.45623">
        <ele>767.43</ele>
        <time>2025-05-07T15:15:47.279Z</time>
      </trkpt>
      <trkpt lat="43.24555" lon="-1.45622">
        <ele>765.98</ele>
        <time>2025-05-07T15:15:51.107Z</time>
      </trkpt>
      <trkpt lat="43.2455" lon="-1.45621">
        <ele>764.52</ele>
        <time>2025-05-07T15:15:54.936Z</time>
      </trkpt>
      <trkpt lat="43.24546" lon="-1.45621">
        <ele>763.1</ele>
        <time>2025-05-07T15:15:58.767Z</time>
      </trkpt>
      <trkpt lat="43.24543" lon="-1.4562">
        <ele>761.7</ele>
        <time>2025-05-07T15:16:02.599Z</time>
      </trkpt>
      <trkpt lat="43.2454" lon="-1.45616">
        <ele>760.3</ele>
        <time>2025-05-07T15:16:06.432Z</time>
      </trkpt>
      <trkpt lat="43.24534" lon="-1.45612">
        <ele>758.88</ele>
        <time>2025-05-07T15:16:10.267Z</time>
      </trkpt>
      <trkpt lat="43.24527" lon="-1.45612">
        <ele>757.52</ele>
        <time>2025-05-07T15:16:14.105Z</time>
      </trkpt>
      <trkpt lat="43.24519" lon="-1.45613">
        <ele>756.2</ele>
        <time>2025-05-07T15:16:17.945Z</time>
      </trkpt>
      <trkpt lat="43.24511" lon="-1.45623">
        <ele>755.06</ele>
        <time>2025-05-07T15:16:21.789Z</time>
      </trkpt>
      <trkpt lat="43.24507" lon="-1.45625">
        <ele>753.94</ele>
        <time>2025-05-07T15:16:25.634Z</time>
      </trkpt>
      <trkpt lat="43.24504" lon="-1.45627">
        <ele>752.88</ele>
        <time>2025-05-07T15:16:29.480Z</time>
      </trkpt>
      <trkpt lat="43.24503" lon="-1.45627">
        <ele>751.88</ele>
        <time>2025-05-07T15:16:33.327Z</time>
      </trkpt>
      <trkpt lat="43.24501" lon="-1.45626">
        <ele>750.95</ele>
        <time>2025-05-07T15:16:37.174Z</time>
      </trkpt>
      <trkpt lat="43.245" lon="-1.45625">
        <ele>750.09</ele>
        <time>2025-05-07T15:16:41.022Z</time>
      </trkpt>
      <trkpt lat="43.24499" lon="-1.45623">
        <ele>749.3</ele>
        <time>2025-05-07T15:16:44.870Z</time>
      </trkpt>
      <trkpt lat="43.24498" lon="-1.45622">
        <ele>748.6</ele>
        <time>2025-05-07T15:16:48.719Z</time>
      </trkpt>
      <trkpt lat="43.24495" lon="-1.45621">
        <ele>747.96</ele>
        <time>2025-05-07T15:16:52.569Z</time>
      </trkpt>
      <trkpt lat="43.24489" lon="-1.45618">
        <ele>747.36</ele>
        <time>2025-05-07T15:16:56.421Z</time>
      </trkpt>
      <trkpt lat="43.24484" lon="-1.45618">
        <ele>746.86</ele>
        <time>2025-05-07T15:17:00.275Z</time>
      </trkpt>
      <trkpt lat="43.2448" lon="-1.4562">
        <ele>746.49</ele>
        <time>2025-05-07T15:17:04.130Z</time>
      </trkpt>
      <trkpt lat="43.24476" lon="-1.45623">
        <ele>746.22</ele>
        <time>2025-05-07T15:17:07.987Z</time>
      </trkpt>
      <trkpt lat="43.24473" lon="-1.45627">
        <ele>746.06</ele>
        <time>2025-05-07T15:17:11.845Z</time>
      </trkpt>
      <trkpt lat="43.24469" lon="-1.45632">
        <ele>746.01</ele>
        <time>2025-05-07T15:17:15.705Z</time>
      </trkpt>
      <trkpt lat="43.24467" lon="-1.45652">
        <ele>746.07</ele>
        <time>2025-05-07T15:17:19.570Z</time>
      </trkpt>
      <trkpt lat="43.2447" lon="-1.4566">
        <ele>746.28</ele>
        <time>2025-05-07T15:17:23.437Z</time>
      </trkpt>
      <trkpt lat="43.24469" lon="-1.45674">
        <ele>746.55</ele>
        <time>2025-05-07T15:17:27.307Z</time>
      </trkpt>
      <trkpt lat="43.24466" lon="-1.45677">
        <ele>746.87</ele>
        <time>2025-05-07T15:17:31.179Z</time>
      </trkpt>
      <trkpt lat="43.24463" lon="-1.45687">
        <ele>747.29</ele>
        <time>2025-05-07T15:17:35.053Z</time>
      </trkpt>
      <trkpt lat="43.24461" lon="-1.45703">
        <ele>747.86</ele>
        <time>2025-05-07T15:17:38.931Z</time>
      </trkpt>
      <trkpt lat="43.24463" lon="-1.45708">
        <ele>748.55</ele>
        <time>2025-05-07T15:17:42.811Z</time>
      </trkpt>
      <trkpt lat="43.24464" lon="-1.45717">
        <ele>749.34</ele>
        <time>2025-05-07T15:17:46.693Z</time>
      </trkpt>
      <trkpt lat="43.24466" lon="-1.4572">
        <ele>750.2</ele>
        <time>2025-05-07T15:17:50.576Z</time>
      </trkpt>
      <trkpt lat="43.24468" lon="-1.45725">
        <ele>751.17</ele>
        <time>2025-05-07T15:17:54.460Z</time>
      </trkpt>
      <trkpt lat="43.24469" lon="-1.45726">
        <ele>752.17</ele>
        <time>2025-05-07T15:17:58.345Z</time>
      </trkpt>
      <trkpt lat="43.24472" lon="-1.45729">
        <ele>753.28</ele>
        <time>2025-05-07T15:18:02.231Z</time>
      </trkpt>
      <trkpt lat="43.24475" lon="-1.45732">
        <ele>754.45</ele>
        <time>2025-05-07T15:18:06.118Z</time>
      </trkpt>
      <trkpt lat="43.24483" lon="-1.45736">
        <ele>755.75</ele>
        <time>2025-05-07T15:18:10.008Z</time>
      </trkpt>
      <trkpt lat="43.24487" lon="-1.45736">
        <ele>757</ele>
        <time>2025-05-07T15:18:13.899Z</time>
      </trkpt>
      <trkpt lat="43.24497" lon="-1.45733">
        <ele>758.35</ele>
        <time>2025-05-07T15:18:17.794Z</time>
      </trkpt>
      <trkpt lat="43.24501" lon="-1.4573">
        <ele>759.65</ele>
        <time>2025-05-07T15:18:21.690Z</time>
      </trkpt>
      <trkpt lat="43.24508" lon="-1.4573">
        <ele>761.04</ele>
        <time>2025-05-07T15:18:25.588Z</time>
      </trkpt>
      <trkpt lat="43.2451" lon="-1.4573">
        <ele>762.37</ele>
        <time>2025-05-07T15:18:29.487Z</time>
      </trkpt>
      <trkpt lat="43.24512" lon="-1.45731">
        <ele>763.71</ele>
        <time>2025-05-07T15:18:33.387Z</time>
      </trkpt>
      <trkpt lat="43.24515" lon="-1.45734">
        <ele>765.07</ele>
        <time>2025-05-07T15:18:37.288Z</time>
      </trkpt>
      <trkpt lat="43.24516" lon="-1.45736">
        <ele>766.4</ele>
        <time>2025-05-07T15:18:41.190Z</time>
      </trkpt>
      <trkpt lat="43.24518" lon="-1.45744">
        <ele>767.75</ele>
        <time>2025-05-07T15:18:45.094Z</time>
      </trkpt>
      <trkpt lat="43.24519" lon="-1.45748">
        <ele>769.06</ele>
        <time>2025-05-07T15:18:48.999Z</time>
      </trkpt>
      <trkpt lat="43.24518" lon="-1.45754">
        <ele>770.35</ele>
        <time>2025-05-07T15:18:52.905Z</time>
      </trkpt>
      <trkpt lat="43.24518" lon="-1.45756">
        <ele>771.59</ele>
        <time>2025-05-07T15:18:56.812Z</time>
      </trkpt>
      <trkpt lat="43.24517" lon="-1.45766">
        <ele>772.85</ele>
        <time>2025-05-07T15:19:00.721Z</time>
      </trkpt>
      <trkpt lat="43.24514" lon="-1.4578">
        <ele>774.08</ele>
        <time>2025-05-07T15:19:04.634Z</time>
      </trkpt>
      <trkpt lat="43.24513" lon="-1.45785">
        <ele>775.23</ele>
        <time>2025-05-07T15:19:08.548Z</time>
      </trkpt>
      <trkpt lat="43.24514" lon="-1.45792">
        <ele>776.38</ele>
        <time>2025-05-07T15:19:12.464Z</time>
      </trkpt>
      <trkpt lat="43.24513" lon="-1.45805">
        <ele>777.51</ele>
        <time>2025-05-07T15:19:16.383Z</time>
      </trkpt>
      <trkpt lat="43.24513" lon="-1.45813">
        <ele>778.58</ele>
        <time>2025-05-07T15:19:20.304Z</time>
      </trkpt>
      <trkpt lat="43.24514" lon="-1.45815">
        <ele>779.56</ele>
        <time>2025-05-07T15:19:24.225Z</time>
      </trkpt>
      <trkpt lat="43.24517" lon="-1.45819">
        <ele>780.51</ele>
        <time>2025-05-07T15:19:28.148Z</time>
      </trkpt>
      <trkpt lat="43.24519" lon="-1.45821">
        <ele>781.39</ele>
        <time>2025-05-07T15:19:32.072Z</time>
      </trkpt>
      <trkpt lat="43.24522" lon="-1.45824">
        <ele>782.24</ele>
        <time>2025-05-07T15:19:35.997Z</time>
      </trkpt>
      <trkpt lat="43.24522" lon="-1.45829">
        <ele>783.02</ele>
        <time>2025-05-07T15:19:39.923Z</time>
      </trkpt>
      <trkpt lat="43.24522" lon="-1.45832">
        <ele>783.74</ele>
        <time>2025-05-07T15:19:43.850Z</time>
      </trkpt>
      <trkpt lat="43.24522" lon="-1.45833">
        <ele>784.41</ele>
        <time>2025-05-07T15:19:47.777Z</time>
      </trkpt>
      <trkpt lat="43.24519" lon="-1.45842">
        <ele>785.04</ele>
        <time>2025-05-07T15:19:51.707Z</time>
      </trkpt>
      <trkpt lat="43.24522" lon="-1.45844">
        <ele>785.6</ele>
        <time>2025-05-07T15:19:55.638Z</time>
      </trkpt>
      <trkpt lat="43.24523" lon="-1.45847">
        <ele>786.13</ele>
        <time>2025-05-07T15:19:59.569Z</time>
      </trkpt>
      <trkpt lat="43.24521" lon="-1.45854">
        <ele>786.62</ele>
        <time>2025-05-07T15:20:03.502Z</time>
      </trkpt>
      <trkpt lat="43.24517" lon="-1.45868">
        <ele>787.09</ele>
        <time>2025-05-07T15:20:07.439Z</time>
      </trkpt>
      <trkpt lat="43.24514" lon="-1.45875">
        <ele>787.51</ele>
        <time>2025-05-07T15:20:11.378Z</time>
      </trkpt>
      <trkpt lat="43.2451" lon="-1.4588">
        <ele>787.9</ele>
        <time>2025-05-07T15:20:15.319Z</time>
      </trkpt>
      <trkpt lat="43.24505" lon="-1.45885">
        <ele>788.26</ele>
        <time>2025-05-07T15:20:19.262Z</time>
      </trkpt>
      <trkpt lat="43.245" lon="-1.45889">
        <ele>788.57</ele>
        <time>2025-05-07T15:20:23.207Z</time>
      </trkpt>
      <trkpt lat="43.24494" lon="-1.45894">
        <ele>788.83</ele>
        <time>2025-05-07T15:20:27.154Z</time>
      </trkpt>
      <trkpt lat="43.24491" lon="-1.45897">
        <ele>789.05</ele>
        <time>2025-05-07T15:20:31.102Z</time>
      </trkpt>
      <trkpt lat="43.24488" lon="-1.45893">
        <ele>789.25</ele>
        <time>2025-05-07T15:20:35.052Z</time>
      </trkpt>
      <trkpt lat="43.24483" lon="-1.45906">
        <ele>789.37</ele>
        <time>2025-05-07T15:20:39.005Z</time>
      </trkpt>
      <trkpt lat="43.24479" lon="-1.45911">
        <ele>789.47</ele>
        <time>2025-05-07T15:20:42.960Z</time>
      </trkpt>
      <trkpt lat="43.24473" lon="-1.45918">
        <ele>789.54</ele>
        <time>2025-05-07T15:20:46.918Z</time>
      </trkpt>
      <trkpt lat="43.2447" lon="-1.45919">
        <ele>789.58</ele>
        <time>2025-05-07T15:20:50.877Z</time>
      </trkpt>
      <trkpt lat="43.24466" lon="-1.45923">
        <ele>789.58</ele>
        <time>2025-05-07T15:20:54.837Z</time>
      </trkpt>
      <trkpt lat="43.24453" lon="-1.45941">
        <ele>789.43</ele>
        <time>2025-05-07T15:20:58.804Z</time>
      </trkpt>
      <trkpt lat="43.24452" lon="-1.45945">
        <ele>789.34</ele>
        <time>2025-05-07T15:21:02.772Z</time>
      </trkpt>
      <trkpt lat="43.2445" lon="-1.45954">
        <ele>789.2</ele>
        <time>2025-05-07T15:21:06.742Z</time>
      </trkpt>
      <trkpt lat="43.2445" lon="-1.45953">
        <ele>789.07</ele>
        <time>2025-05-07T15:21:10.712Z</time>
      </trkpt>
      <trkpt lat="43.24449" lon="-1.45953">
        <ele>788.91</ele>
        <time>2025-05-07T15:21:14.682Z</time>
      </trkpt>
      <trkpt lat="43.24447" lon="-1.45952">
        <ele>788.71</ele>
        <time>2025-05-07T15:21:18.653Z</time>
      </trkpt>
      <trkpt lat="43.24442" lon="-1.45947">
        <ele>788.5</ele>
        <time>2025-05-07T15:21:22.626Z</time>
      </trkpt>
      <trkpt lat="43.24439" lon="-1.45946">
        <ele>788.25</ele>
        <time>2025-05-07T15:21:26.600Z</time>
      </trkpt>
      <trkpt lat="43.24435" lon="-1.45946">
        <ele>787.96</ele>
        <time>2025-05-07T15:21:30.576Z</time>
      </trkpt>
      <trkpt lat="43.24431" lon="-1.45945">
        <ele>787.62</ele>
        <time>2025-05-07T15:21:34.553Z</time>
      </trkpt>
      <trkpt lat="43.24427" lon="-1.45942">
        <ele>787.25</ele>
        <time>2025-05-07T15:21:38.531Z</time>
      </trkpt>
      <trkpt lat="43.24425" lon="-1.4594">
        <ele>786.86</ele>
        <time>2025-05-07T15:21:42.510Z</time>
      </trkpt>
      <trkpt lat="43.24422" lon="-1.45939">
        <ele>786.43</ele>
        <time>2025-05-07T15:21:46.490Z</time>
      </trkpt>
      <trkpt lat="43.2442" lon="-1.45942">
        <ele>785.97</ele>
        <time>2025-05-07T15:21:50.471Z</time>
      </trkpt>
      <trkpt lat="43.24418" lon="-1.45944">
        <ele>785.46</ele>
        <time>2025-05-07T15:21:54.453Z</time>
      </trkpt>
      <trkpt lat="43.24415" lon="-1.45945">
        <ele>784.92</ele>
        <time>2025-05-07T15:21:58.436Z</time>
      </trkpt>
      <trkpt lat="43.24413" lon="-1.45946">
        <ele>784.35</ele>
        <time>2025-05-07T15:22:02.420Z</time>
      </trkpt>
      <trkpt lat="43.24411" lon="-1.45947">
        <ele>783.73</ele>
        <time>2025-05-07T15:22:06.405Z</time>
      </trkpt>
      <trkpt lat="43.24409" lon="-1.45947">
        <ele>783.07</ele>
        <time>2025-05-07T15:22:10.390Z</time>
      </trkpt>
      <trkpt lat="43.24405" lon="-1.45948">
        <ele>782.31</ele>
        <time>2025-05-07T15:22:14.377Z</time>
      </trkpt>
      <trkpt lat="43.24404" lon="-1.45949">
        <ele>781.56</ele>
        <time>2025-05-07T15:22:18.364Z</time>
      </trkpt>
      <trkpt lat="43.24402" lon="-1.45952">
        <ele>780.75</ele>
        <time>2025-05-07T15:22:22.352Z</time>
      </trkpt>
      <trkpt lat="43.24398" lon="-1.45964">
        <ele>779.86</ele>
        <time>2025-05-07T15:22:26.343Z</time>
      </trkpt>
      <trkpt lat="43.24397" lon="-1.45965">
        <ele>778.95</ele>
        <time>2025-05-07T15:22:30.335Z</time>
      </trkpt>
      <trkpt lat="43.24394" lon="-1.45963">
        <ele>777.97</ele>
        <time>2025-05-07T15:22:34.328Z</time>
      </trkpt>
      <trkpt lat="43.24393" lon="-1.45962">
        <ele>776.98</ele>
        <time>2025-05-07T15:22:38.321Z</time>
      </trkpt>
      <trkpt lat="43.24392" lon="-1.45961">
        <ele>775.92</ele>
        <time>2025-05-07T15:22:42.315Z</time>
      </trkpt>
      <trkpt lat="43.24389" lon="-1.45961">
        <ele>774.79</ele>
        <time>2025-05-07T15:22:46.310Z</time>
      </trkpt>
      <trkpt lat="43.24387" lon="-1.45961">
        <ele>773.62</ele>
        <time>2025-05-07T15:22:50.305Z</time>
      </trkpt>
      <trkpt lat="43.24384" lon="-1.45965">
        <ele>772.37</ele>
        <time>2025-05-07T15:22:54.302Z</time>
      </trkpt>
      <trkpt lat="43.24382" lon="-1.45969">
        <ele>771.08</ele>
        <time>2025-05-07T15:22:58.300Z</time>
      </trkpt>
      <trkpt lat="43.2438" lon="-1.45972">
        <ele>769.72</ele>
        <time>2025-05-07T15:23:02.299Z</time>
      </trkpt>
      <trkpt lat="43.24379" lon="-1.45973">
        <ele>768.33</ele>
        <time>2025-05-07T15:23:06.298Z</time>
      </trkpt>
      <trkpt lat="43.24378" lon="-1.45975">
        <ele>766.88</ele>
        <time>2025-05-07T15:23:10.298Z</time>
      </trkpt>
      <trkpt lat="43.24376" lon="-1.45979">
        <ele>765.36</ele>
        <time>2025-05-07T15:23:14.299Z</time>
      </trkpt>
      <trkpt lat="43.24374" lon="-1.45982">
        <ele>763.8</ele>
        <time>2025-05-07T15:23:18.301Z</time>
      </trkpt>
      <trkpt lat="43.24372" lon="-1.45987">
        <ele>762.19</ele>
        <time>2025-05-07T15:23:22.304Z</time>
      </trkpt>
      <trkpt lat="43.24368" lon="-1.45995">
        <ele>760.48</ele>
        <time>2025-05-07T15:23:26.310Z</time>
      </trkpt>
      <trkpt lat="43.24363" lon="-1.46012">
        <ele>758.6</ele>
        <time>2025-05-07T15:23:30.320Z</time>
      </trkpt>
      <trkpt lat="43.24363" lon="-1.46018">
        <ele>756.9</ele>
        <time>2025-05-07T15:23:34.332Z</time>
      </trkpt>
      <trkpt lat="43.24362" lon="-1.46024">
        <ele>755.17</ele>
        <time>2025-05-07T15:23:38.345Z</time>
      </trkpt>
      <trkpt lat="43.24361" lon="-1.46037">
        <ele>753.37</ele>
        <time>2025-05-07T15:23:42.361Z</time>
      </trkpt>
      <trkpt lat="43.24364" lon="-1.46062">
        <ele>751.61</ele>
        <time>2025-05-07T15:23:46.384Z</time>
      </trkpt>
      <trkpt lat="43.24367" lon="-1.46076">
        <ele>749.89</ele>
        <time>2025-05-07T15:23:50.410Z</time>
      </trkpt>
      <trkpt lat="43.24367" lon="-1.46086">
        <ele>748.11</ele>
        <time>2025-05-07T15:23:54.439Z</time>
      </trkpt>
      <trkpt lat="43.24366" lon="-1.46096">
        <ele>746.37</ele>
        <time>2025-05-07T15:23:58.470Z</time>
      </trkpt>
      <trkpt lat="43.24365" lon="-1.46103">
        <ele>744.62</ele>
        <time>2025-05-07T15:24:02.503Z</time>
      </trkpt>
      <trkpt lat="43.24363" lon="-1.4611">
        <ele>742.87</ele>
        <time>2025-05-07T15:24:06.538Z</time>
      </trkpt>
      <trkpt lat="43.24362" lon="-1.46115">
        <ele>741.18</ele>
        <time>2025-05-07T15:24:10.574Z</time>
      </trkpt>
      <trkpt lat="43.24358" lon="-1.46121">
        <ele>739.49</ele>
        <time>2025-05-07T15:24:14.612Z</time>
      </trkpt>
      <trkpt lat="43.24355" lon="-1.46125">
        <ele>737.84</ele>
        <time>2025-05-07T15:24:18.651Z</time>
      </trkpt>
      <trkpt lat="43.24353" lon="-1.46128">
        <ele>736.23</ele>
        <time>2025-05-07T15:24:22.691Z</time>
      </trkpt>
      <trkpt lat="43.24349" lon="-1.46132">
        <ele>734.62</ele>
        <time>2025-05-07T15:24:26.733Z</time>
      </trkpt>
      <trkpt lat="43.24345" lon="-1.46137">
        <ele>733.03</ele>
        <time>2025-05-07T15:24:30.777Z</time>
      </trkpt>
      <trkpt lat="43.24342" lon="-1.46141">
        <ele>731.47</ele>
        <time>2025-05-07T15:24:34.822Z</time>
      </trkpt>
      <trkpt lat="43.24338" lon="-1.46145">
        <ele>729.94</ele>
        <time>2025-05-07T15:24:38.869Z</time>
      </trkpt>
      <trkpt lat="43.24335" lon="-1.46152">
        <ele>728.42</ele>
        <time>2025-05-07T15:24:42.918Z</time>
      </trkpt>
      <trkpt lat="43.2433" lon="-1.46154">
        <ele>726.98</ele>
        <time>2025-05-07T15:24:46.968Z</time>
      </trkpt>
      <trkpt lat="43.24324" lon="-1.46163">
        <ele>725.5</ele>
        <time>2025-05-07T15:24:51.021Z</time>
      </trkpt>
      <trkpt lat="43.24322" lon="-1.46165">
        <ele>724.16</ele>
        <time>2025-05-07T15:24:55.075Z</time>
      </trkpt>
      <trkpt lat="43.2432" lon="-1.46183">
        <ele>722.82</ele>
        <time>2025-05-07T15:24:59.134Z</time>
      </trkpt>
      <trkpt lat="43.24315" lon="-1.46191">
        <ele>721.55</ele>
        <time>2025-05-07T15:25:03.195Z</time>
      </trkpt>
      <trkpt lat="43.24313" lon="-1.46194">
        <ele>720.36</ele>
        <time>2025-05-07T15:25:07.257Z</time>
      </trkpt>
      <trkpt lat="43.24304" lon="-1.46206">
        <ele>719.18</ele>
        <time>2025-05-07T15:25:11.323Z</time>
      </trkpt>
      <trkpt lat="43.24304" lon="-1.46207">
        <ele>718.09</ele>
        <time>2025-05-07T15:25:15.390Z</time>
      </trkpt>
      <trkpt lat="43.24303" lon="-1.46208">
        <ele>717.04</ele>
        <time>2025-05-07T15:25:19.457Z</time>
      </trkpt>
      <trkpt lat="43.24301" lon="-1.46213">
        <ele>716.03</ele>
        <time>2025-05-07T15:25:23.525Z</time>
      </trkpt>
      <trkpt lat="43.24295" lon="-1.46224">
        <ele>715.04</ele>
        <time>2025-05-07T15:25:27.597Z</time>
      </trkpt>
      <trkpt lat="43.24292" lon="-1.46234">
        <ele>714.07</ele>
        <time>2025-05-07T15:25:31.671Z</time>
      </trkpt>
      <trkpt lat="43.24287" lon="-1.46247">
        <ele>713.12</ele>
        <time>2025-05-07T15:25:35.749Z</time>
      </trkpt>
      <trkpt lat="43.24283" lon="-1.46257">
        <ele>712.29</ele>
        <time>2025-05-07T15:25:39.830Z</time>
      </trkpt>
      <trkpt lat="43.24277" lon="-1.46269">
        <ele>711.51</ele>
        <time>2025-05-07T15:25:43.914Z</time>
      </trkpt>
      <trkpt lat="43.24273" lon="-1.46281">
        <ele>710.77</ele>
        <time>2025-05-07T15:25:48.002Z</time>
      </trkpt>
      <trkpt lat="43.24269" lon="-1.46289">
        <ele>710.11</ele>
        <time>2025-05-07T15:25:52.092Z</time>
      </trkpt>
      <trkpt lat="43.24267" lon="-1.46291">
        <ele>709.5</ele>
        <time>2025-05-07T15:25:56.183Z</time>
      </trkpt>
      <trkpt lat="43.24262" lon="-1.46302">
        <ele>708.91</ele>
        <time>2025-05-07T15:26:00.277Z</time>
      </trkpt>
      <trkpt lat="43.24259" lon="-1.46313">
        <ele>708.37</ele>
        <time>2025-05-07T15:26:04.374Z</time>
      </trkpt>
      <trkpt lat="43.24256" lon="-1.46323">
        <ele>707.89</ele>
        <time>2025-05-07T15:26:08.473Z</time>
      </trkpt>
      <trkpt lat="43.24254" lon="-1.46331">
        <ele>707.48</ele>
        <time>2025-05-07T15:26:12.574Z</time>
      </trkpt>
      <trkpt lat="43.24249" lon="-1.46341">
        <ele>707.12</ele>
        <time>2025-05-07T15:26:16.678Z</time>
      </trkpt>
      <trkpt lat="43.24243" lon="-1.46353">
        <ele>706.82</ele>
        <time>2025-05-07T15:26:20.786Z</time>
      </trkpt>
      <trkpt lat="43.24238" lon="-1.46373">
        <ele>706.53</ele>
        <time>2025-05-07T15:26:24.899Z</time>
      </trkpt>
      <trkpt lat="43.24234" lon="-1.46399">
        <ele>706.36</ele>
        <time>2025-05-07T15:26:29.019Z</time>
      </trkpt>
      <trkpt lat="43.24233" lon="-1.46401">
        <ele>706.26</ele>
        <time>2025-05-07T15:26:33.139Z</time>
      </trkpt>
      <trkpt lat="43.2422" lon="-1.4642">
        <ele>706.19</ele>
        <time>2025-05-07T15:26:37.265Z</time>
      </trkpt>
      <trkpt lat="43.24214" lon="-1.46426">
        <ele>706.19</ele>
        <time>2025-05-07T15:26:41.394Z</time>
      </trkpt>
      <trkpt lat="43.24204" lon="-1.46436">
        <ele>706.21</ele>
        <time>2025-05-07T15:26:45.527Z</time>
      </trkpt>
      <trkpt lat="43.24193" lon="-1.46455">
        <ele>706.38</ele>
        <time>2025-05-07T15:26:49.666Z</time>
      </trkpt>
      <trkpt lat="43.2419" lon="-1.46461">
        <ele>706.59</ele>
        <time>2025-05-07T15:26:53.807Z</time>
      </trkpt>
      <trkpt lat="43.24191" lon="-1.46462">
        <ele>706.84</ele>
        <time>2025-05-07T15:26:57.948Z</time>
      </trkpt>
      <trkpt lat="43.24194" lon="-1.46463">
        <ele>707.16</ele>
        <time>2025-05-07T15:27:02.090Z</time>
      </trkpt>
      <trkpt lat="43.24196" lon="-1.46463">
        <ele>707.51</ele>
        <time>2025-05-07T15:27:06.233Z</time>
      </trkpt>
      <trkpt lat="43.24197" lon="-1.46463">
        <ele>707.88</ele>
        <time>2025-05-07T15:27:10.376Z</time>
      </trkpt>
      <trkpt lat="43.24199" lon="-1.46463">
        <ele>708.29</ele>
        <time>2025-05-07T15:27:14.520Z</time>
      </trkpt>
      <trkpt lat="43.24201" lon="-1.46464">
        <ele>708.75</ele>
        <time>2025-05-07T15:27:18.665Z</time>
      </trkpt>
      <trkpt lat="43.24203" lon="-1.46465">
        <ele>709.24</ele>
        <time>2025-05-07T15:27:22.810Z</time>
      </trkpt>
      <trkpt lat="43.24204" lon="-1.46468">
        <ele>709.76</ele>
        <time>2025-05-07T15:27:26.956Z</time>
      </trkpt>
      <trkpt lat="43.24204" lon="-1.46475">
        <ele>710.33</ele>
        <time>2025-05-07T15:27:31.104Z</time>
      </trkpt>
      <trkpt lat="43.24208" lon="-1.46475">
        <ele>710.9</ele>
        <time>2025-05-07T15:27:35.253Z</time>
      </trkpt>
      <trkpt lat="43.24211" lon="-1.46478">
        <ele>711.47</ele>
        <time>2025-05-07T15:27:39.403Z</time>
      </trkpt>
      <trkpt lat="43.2422" lon="-1.46487">
        <ele>712.02</ele>
        <time>2025-05-07T15:27:43.557Z</time>
      </trkpt>
      <trkpt lat="43.24221" lon="-1.46488">
        <ele>712.58</ele>
        <time>2025-05-07T15:27:47.711Z</time>
      </trkpt>
      <trkpt lat="43.2422" lon="-1.46495">
        <ele>713.16</ele>
        <time>2025-05-07T15:27:51.867Z</time>
      </trkpt>
      <trkpt lat="43.24218" lon="-1.465">
        <ele>713.72</ele>
        <time>2025-05-07T15:27:56.025Z</time>
      </trkpt>
      <trkpt lat="43.24216" lon="-1.46506">
        <ele>714.3</ele>
        <time>2025-05-07T15:28:00.184Z</time>
      </trkpt>
      <trkpt lat="43.24216" lon="-1.46513">
        <ele>714.87</ele>
        <time>2025-05-07T15:28:04.345Z</time>
      </trkpt>
      <trkpt lat="43.24216" lon="-1.46518">
        <ele>715.42</ele>
        <time>2025-05-07T15:28:08.507Z</time>
      </trkpt>
      <trkpt lat="43.24215" lon="-1.46524">
        <ele>715.97</ele>
        <time>2025-05-07T15:28:12.671Z</time>
      </trkpt>
      <trkpt lat="43.24213" lon="-1.4653">
        <ele>716.53</ele>
        <time>2025-05-07T15:28:16.836Z</time>
      </trkpt>
      <trkpt lat="43.24213" lon="-1.46531">
        <ele>717.03</ele>
        <time>2025-05-07T15:28:21.001Z</time>
      </trkpt>
      <trkpt lat="43.24211" lon="-1.46534">
        <ele>717.54</ele>
        <time>2025-05-07T15:28:25.167Z</time>
      </trkpt>
      <trkpt lat="43.24207" lon="-1.46537">
        <ele>718.06</ele>
        <time>2025-05-07T15:28:29.335Z</time>
      </trkpt>
      <trkpt lat="43.24204" lon="-1.46539">
        <ele>718.54</ele>
        <time>2025-05-07T15:28:33.504Z</time>
      </trkpt>
      <trkpt lat="43.242" lon="-1.46545">
        <ele>719.01</ele>
        <time>2025-05-07T15:28:37.675Z</time>
      </trkpt>
      <trkpt lat="43.24196" lon="-1.46551">
        <ele>719.46</ele>
        <time>2025-05-07T15:28:41.848Z</time>
      </trkpt>
      <trkpt lat="43.24193" lon="-1.46554">
        <ele>719.86</ele>
        <time>2025-05-07T15:28:46.022Z</time>
      </trkpt>
      <trkpt lat="43.24176" lon="-1.46563">
        <ele>720.26</ele>
        <time>2025-05-07T15:28:50.202Z</time>
      </trkpt>
      <trkpt lat="43.24167" lon="-1.4658">
        <ele>720.55</ele>
        <time>2025-05-07T15:28:54.388Z</time>
      </trkpt>
      <trkpt lat="43.24162" lon="-1.46589">
        <ele>720.8</ele>
        <time>2025-05-07T15:28:58.576Z</time>
      </trkpt>
      <trkpt lat="43.24158" lon="-1.46597">
        <ele>721.01</ele>
        <time>2025-05-07T15:29:02.767Z</time>
      </trkpt>
      <trkpt lat="43.24153" lon="-1.46605">
        <ele>721.19</ele>
        <time>2025-05-07T15:29:06.960Z</time>
      </trkpt>
      <trkpt lat="43.24146" lon="-1.46618">
        <ele>721.32</ele>
        <time>2025-05-07T15:29:11.157Z</time>
      </trkpt>
      <trkpt lat="43.24142" lon="-1.46626">
        <ele>721.46</ele>
        <time>2025-05-07T15:29:15.356Z</time>
      </trkpt>
      <trkpt lat="43.24139" lon="-1.46634">
        <ele>721.55</ele>
        <time>2025-05-07T15:29:19.558Z</time>
      </trkpt>
      <trkpt lat="43.24134" lon="-1.46642">
        <ele>721.65</ele>
        <time>2025-05-07T15:29:23.762Z</time>
      </trkpt>
      <trkpt lat="43.24126" lon="-1.46657">
        <ele>721.73</ele>
        <time>2025-05-07T15:29:27.971Z</time>
      </trkpt>
      <trkpt lat="43.24115" lon="-1.46675">
        <ele>721.81</ele>
        <time>2025-05-07T15:29:32.185Z</time>
      </trkpt>
      <trkpt lat="43.24108" lon="-1.4669">
        <ele>721.9</ele>
        <time>2025-05-07T15:29:36.404Z</time>
      </trkpt>
      <trkpt lat="43.24102" lon="-1.46705">
        <ele>721.96</ele>
        <time>2025-05-07T15:29:40.627Z</time>
      </trkpt>
      <trkpt lat="43.24101" lon="-1.46708">
        <ele>722.03</ele>
        <time>2025-05-07T15:29:44.851Z</time>
      </trkpt>
      <trkpt lat="43.24091" lon="-1.46731">
        <ele>722.11</ele>
        <time>2025-05-07T15:29:49.081Z</time>
      </trkpt>
      <trkpt lat="43.24085" lon="-1.46757">
        <ele>722.25</ele>
        <time>2025-05-07T15:29:53.318Z</time>
      </trkpt>
      <trkpt lat="43.24083" lon="-1.46764">
        <ele>722.35</ele>
        <time>2025-05-07T15:29:57.557Z</time>
      </trkpt>
      <trkpt lat="43.24082" lon="-1.46771">
        <ele>722.44</ele>
        <time>2025-05-07T15:30:01.798Z</time>
      </trkpt>
      <trkpt lat="43.24078" lon="-1.46788">
        <ele>722.58</ele>
        <time>2025-05-07T15:30:06.043Z</time>
      </trkpt>
      <trkpt lat="43.24073" lon="-1.46796">
        <ele>722.64</ele>
        <time>2025-05-07T15:30:10.290Z</time>
      </trkpt>
      <trkpt lat="43.24068" lon="-1.46802">
        <ele>722.65</ele>
        <time>2025-05-07T15:30:14.540Z</time>
      </trkpt>
      <trkpt lat="43.2406" lon="-1.46812">
        <ele>722.64</ele>
        <time>2025-05-07T15:30:18.793Z</time>
      </trkpt>
      <trkpt lat="43.24056" lon="-1.4682">
        <ele>722.63</ele>
        <time>2025-05-07T15:30:23.049Z</time>
      </trkpt>
      <trkpt lat="43.24053" lon="-1.46826">
        <ele>722.59</ele>
        <time>2025-05-07T15:30:27.306Z</time>
      </trkpt>
      <trkpt lat="43.2404" lon="-1.46844">
        <ele>722.5</ele>
        <time>2025-05-07T15:30:31.570Z</time>
      </trkpt>
      <trkpt lat="43.24038" lon="-1.46847">
        <ele>722.42</ele>
        <time>2025-05-07T15:30:35.835Z</time>
      </trkpt>
      <trkpt lat="43.24036" lon="-1.46854">
        <ele>722.31</ele>
        <time>2025-05-07T15:30:40.101Z</time>
      </trkpt>
      <trkpt lat="43.24035" lon="-1.46862">
        <ele>722.2</ele>
        <time>2025-05-07T15:30:44.369Z</time>
      </trkpt>
      <trkpt lat="43.24033" lon="-1.4687">
        <ele>722.07</ele>
        <time>2025-05-07T15:30:48.639Z</time>
      </trkpt>
      <trkpt lat="43.24031" lon="-1.46884">
        <ele>721.9</ele>
        <time>2025-05-07T15:30:52.913Z</time>
      </trkpt>
      <trkpt lat="43.24027" lon="-1.46903">
        <ele>721.72</ele>
        <time>2025-05-07T15:30:57.192Z</time>
      </trkpt>
      <trkpt lat="43.24025" lon="-1.46915">
        <ele>721.5</ele>
        <time>2025-05-07T15:31:01.474Z</time>
      </trkpt>
      <trkpt lat="43.24021" lon="-1.46934">
        <ele>721.36</ele>
        <time>2025-05-07T15:31:05.761Z</time>
      </trkpt>
      <trkpt lat="43.24017" lon="-1.46945">
        <ele>721.18</ele>
        <time>2025-05-07T15:31:10.051Z</time>
      </trkpt>
      <trkpt lat="43.24012" lon="-1.4697">
        <ele>720.99</ele>
        <time>2025-05-07T15:31:14.347Z</time>
      </trkpt>
      <trkpt lat="43.24006" lon="-1.46994">
        <ele>720.68</ele>
        <time>2025-05-07T15:31:18.649Z</time>
      </trkpt>
      <trkpt lat="43.24005" lon="-1.47013">
        <ele>720.34</ele>
        <time>2025-05-07T15:31:22.956Z</time>
      </trkpt>
      <trkpt lat="43.24006" lon="-1.47018">
        <ele>720.02</ele>
        <time>2025-05-07T15:31:27.264Z</time>
      </trkpt>
      <trkpt lat="43.24008" lon="-1.4702">
        <ele>719.7</ele>
        <time>2025-05-07T15:31:31.573Z</time>
      </trkpt>
      <trkpt lat="43.24009" lon="-1.47021">
        <ele>719.39</ele>
        <time>2025-05-07T15:31:35.882Z</time>
      </trkpt>
      <trkpt lat="43.24015" lon="-1.4702">
        <ele>719.03</ele>
        <time>2025-05-07T15:31:40.193Z</time>
      </trkpt>
      <trkpt lat="43.24019" lon="-1.47024">
        <ele>718.66</ele>
        <time>2025-05-07T15:31:44.506Z</time>
      </trkpt>
      <trkpt lat="43.24019" lon="-1.47027">
        <ele>718.35</ele>
        <time>2025-05-07T15:31:48.820Z</time>
      </trkpt>
      <trkpt lat="43.24018" lon="-1.47029">
        <ele>718.07</ele>
        <time>2025-05-07T15:31:53.134Z</time>
      </trkpt>
      <trkpt lat="43.24016" lon="-1.47035">
        <ele>717.8</ele>
        <time>2025-05-07T15:31:57.450Z</time>
      </trkpt>
      <trkpt lat="43.24015" lon="-1.47042">
        <ele>717.51</ele>
        <time>2025-05-07T15:32:01.767Z</time>
      </trkpt>
      <trkpt lat="43.24012" lon="-1.47049">
        <ele>717.26</ele>
        <time>2025-05-07T15:32:06.086Z</time>
      </trkpt>
      <trkpt lat="43.2401" lon="-1.47053">
        <ele>717.03</ele>
        <time>2025-05-07T15:32:10.407Z</time>
      </trkpt>
      <trkpt lat="43.24008" lon="-1.47057">
        <ele>716.81</ele>
        <time>2025-05-07T15:32:14.729Z</time>
      </trkpt>
      <trkpt lat="43.24007" lon="-1.47062">
        <ele>716.59</ele>
        <time>2025-05-07T15:32:19.052Z</time>
      </trkpt>
      <trkpt lat="43.24007" lon="-1.47069">
        <ele>716.37</ele>
        <time>2025-05-07T15:32:23.377Z</time>
      </trkpt>
      <trkpt lat="43.24009" lon="-1.47075">
        <ele>716.16</ele>
        <time>2025-05-07T15:32:27.703Z</time>
      </trkpt>
      <trkpt lat="43.24009" lon="-1.47075">
        <ele>716.01</ele>
        <time>2025-05-07T15:32:32.029Z</time>
      </trkpt>
      <trkpt lat="43.24011" lon="-1.47081">
        <ele>715.84</ele>
        <time>2025-05-07T15:32:36.357Z</time>
      </trkpt>
      <trkpt lat="43.24013" lon="-1.47086">
        <ele>715.67</ele>
        <time>2025-05-07T15:32:40.686Z</time>
      </trkpt>
      <trkpt lat="43.24015" lon="-1.47089">
        <ele>715.54</ele>
        <time>2025-05-07T15:32:45.016Z</time>
      </trkpt>
      <trkpt lat="43.24017" lon="-1.47095">
        <ele>715.45</ele>
        <time>2025-05-07T15:32:49.348Z</time>
      </trkpt>
      <trkpt lat="43.24019" lon="-1.47102">
        <ele>715.38</ele>
        <time>2025-05-07T15:32:53.682Z</time>
      </trkpt>
      <trkpt lat="43.24022" lon="-1.47111">
        <ele>715.32</ele>
        <time>2025-05-07T15:32:58.018Z</time>
      </trkpt>
      <trkpt lat="43.24025" lon="-1.4712">
        <ele>715.24</ele>
        <time>2025-05-07T15:33:02.357Z</time>
      </trkpt>
      <trkpt lat="43.24029" lon="-1.47128">
        <ele>715.16</ele>
        <time>2025-05-07T15:33:06.698Z</time>
      </trkpt>
      <trkpt lat="43.24033" lon="-1.47139">
        <ele>715.19</ele>
        <time>2025-05-07T15:33:11.042Z</time>
      </trkpt>
      <trkpt lat="43.24038" lon="-1.47151">
        <ele>715.16</ele>
        <time>2025-05-07T15:33:15.389Z</time>
      </trkpt>
      <trkpt lat="43.24042" lon="-1.47163">
        <ele>715.23</ele>
        <time>2025-05-07T15:33:19.740Z</time>
      </trkpt>
      <trkpt lat="43.24045" lon="-1.47169">
        <ele>715.24</ele>
        <time>2025-05-07T15:33:24.092Z</time>
      </trkpt>
      <trkpt lat="43.24047" lon="-1.47174">
        <ele>715.23</ele>
        <time>2025-05-07T15:33:28.446Z</time>
      </trkpt>
      <trkpt lat="43.24048" lon="-1.47178">
        <ele>715.2</ele>
        <time>2025-05-07T15:33:32.801Z</time>
      </trkpt>
      <trkpt lat="43.24049" lon="-1.47181">
        <ele>715.14</ele>
        <time>2025-05-07T15:33:37.157Z</time>
      </trkpt>
      <trkpt lat="43.24054" lon="-1.47188">
        <ele>715.06</ele>
        <time>2025-05-07T15:33:41.515Z</time>
      </trkpt>
      <trkpt lat="43.24054" lon="-1.47191">
        <ele>714.95</ele>
        <time>2025-05-07T15:33:45.874Z</time>
      </trkpt>
      <trkpt lat="43.24056" lon="-1.47195">
        <ele>714.82</ele>
        <time>2025-05-07T15:33:50.234Z</time>
      </trkpt>
      <trkpt lat="43.24065" lon="-1.47213">
        <ele>714.67</ele>
        <time>2025-05-07T15:33:54.599Z</time>
      </trkpt>
      <trkpt lat="43.24073" lon="-1.47238">
        <ele>714.54</ele>
        <time>2025-05-07T15:33:58.971Z</time>
      </trkpt>
      <trkpt lat="43.24078" lon="-1.47253">
        <ele>714.29</ele>
        <time>2025-05-07T15:34:03.347Z</time>
      </trkpt>
      <trkpt lat="43.2408" lon="-1.47259">
        <ele>713.9</ele>
        <time>2025-05-07T15:34:07.724Z</time>
      </trkpt>
      <trkpt lat="43.24081" lon="-1.47266">
        <ele>713.45</ele>
        <time>2025-05-07T15:34:12.103Z</time>
      </trkpt>
      <trkpt lat="43.24083" lon="-1.47272">
        <ele>712.95</ele>
        <time>2025-05-07T15:34:16.484Z</time>
      </trkpt>
      <trkpt lat="43.24085" lon="-1.4728">
        <ele>712.42</ele>
        <time>2025-05-07T15:34:20.867Z</time>
      </trkpt>
      <trkpt lat="43.24087" lon="-1.47288">
        <ele>711.79</ele>
        <time>2025-05-07T15:34:25.252Z</time>
      </trkpt>
      <trkpt lat="43.2409" lon="-1.473">
        <ele>711.1</ele>
        <time>2025-05-07T15:34:29.640Z</time>
      </trkpt>
      <trkpt lat="43.24096" lon="-1.47326">
        <ele>710.24</ele>
        <time>2025-05-07T15:34:34.035Z</time>
      </trkpt>
      <trkpt lat="43.24095" lon="-1.47331">
        <ele>709.47</ele>
        <time>2025-05-07T15:34:38.431Z</time>
      </trkpt>
      <trkpt lat="43.24094" lon="-1.47343">
        <ele>708.58</ele>
        <time>2025-05-07T15:34:42.830Z</time>
      </trkpt>
      <trkpt lat="43.24091" lon="-1.47353">
        <ele>707.67</ele>
        <time>2025-05-07T15:34:47.232Z</time>
      </trkpt>
      <trkpt lat="43.24088" lon="-1.47363">
        <ele>706.72</ele>
        <time>2025-05-07T15:34:51.636Z</time>
      </trkpt>
      <trkpt lat="43.24085" lon="-1.4738">
        <ele>705.69</ele>
        <time>2025-05-07T15:34:56.044Z</time>
      </trkpt>
      <trkpt lat="43.24089" lon="-1.47405">
        <ele>704.63</ele>
        <time>2025-05-07T15:35:00.459Z</time>
      </trkpt>
      <trkpt lat="43.24093" lon="-1.47425">
        <ele>703.59</ele>
        <time>2025-05-07T15:35:04.879Z</time>
      </trkpt>
      <trkpt lat="43.24096" lon="-1.47434">
        <ele>702.59</ele>
        <time>2025-05-07T15:35:09.301Z</time>
      </trkpt>
      <trkpt lat="43.24098" lon="-1.47439">
        <ele>701.61</ele>
        <time>2025-05-07T15:35:13.724Z</time>
      </trkpt>
      <trkpt lat="43.241" lon="-1.47445">
        <ele>700.62</ele>
        <time>2025-05-07T15:35:18.149Z</time>
      </trkpt>
      <trkpt lat="43.24102" lon="-1.4745">
        <ele>699.65</ele>
        <time>2025-05-07T15:35:22.575Z</time>
      </trkpt>
      <trkpt lat="43.24103" lon="-1.47453">
        <ele>698.69</ele>
        <time>2025-05-07T15:35:27.002Z</time>
      </trkpt>
      <trkpt lat="43.24104" lon="-1.47457">
        <ele>697.73</ele>
        <time>2025-05-07T15:35:31.430Z</time>
      </trkpt>
      <trkpt lat="43.24105" lon="-1.47461">
        <ele>696.76</ele>
        <time>2025-05-07T15:35:35.859Z</time>
      </trkpt>
      <trkpt lat="43.24105" lon="-1.47466">
        <ele>695.81</ele>
        <time>2025-05-07T15:35:40.290Z</time>
      </trkpt>
      <trkpt lat="43.24105" lon="-1.47472">
        <ele>694.86</ele>
        <time>2025-05-07T15:35:44.722Z</time>
      </trkpt>
      <trkpt lat="43.24106" lon="-1.4748">
        <ele>693.9</ele>
        <time>2025-05-07T15:35:49.156Z</time>
      </trkpt>
      <trkpt lat="43.24106" lon="-1.47487">
        <ele>692.97</ele>
        <time>2025-05-07T15:35:53.592Z</time>
      </trkpt>
      <trkpt lat="43.24107" lon="-1.47498">
        <ele>692.01</ele>
        <time>2025-05-07T15:35:58.030Z</time>
      </trkpt>
      <trkpt lat="43.24106" lon="-1.47507">
        <ele>691.07</ele>
        <time>2025-05-07T15:36:02.471Z</time>
      </trkpt>
      <trkpt lat="43.24106" lon="-1.4751">
        <ele>690.17</ele>
        <time>2025-05-07T15:36:06.912Z</time>
      </trkpt>
      <trkpt lat="43.24101" lon="-1.47531">
        <ele>689.18</ele>
        <time>2025-05-07T15:36:11.359Z</time>
      </trkpt>
      <trkpt lat="43.24109" lon="-1.47552">
        <ele>688.31</ele>
        <time>2025-05-07T15:36:15.812Z</time>
      </trkpt>
      <trkpt lat="43.24109" lon="-1.47555">
        <ele>687.46</ele>
        <time>2025-05-07T15:36:20.265Z</time>
      </trkpt>
      <trkpt lat="43.24115" lon="-1.4758">
        <ele>686.56</ele>
        <time>2025-05-07T15:36:24.725Z</time>
      </trkpt>
      <trkpt lat="43.24116" lon="-1.47607">
        <ele>685.66</ele>
        <time>2025-05-07T15:36:29.191Z</time>
      </trkpt>
      <trkpt lat="43.24114" lon="-1.47633">
        <ele>684.68</ele>
        <time>2025-05-07T15:36:33.664Z</time>
      </trkpt>
      <trkpt lat="43.24111" lon="-1.47648">
        <ele>683.77</ele>
        <time>2025-05-07T15:36:38.140Z</time>
      </trkpt>
      <trkpt lat="43.24108" lon="-1.47658">
        <ele>682.9</ele>
        <time>2025-05-07T15:36:42.619Z</time>
      </trkpt>
      <trkpt lat="43.24105" lon="-1.47666">
        <ele>682.03</ele>
        <time>2025-05-07T15:36:47.100Z</time>
      </trkpt>
      <trkpt lat="43.24101" lon="-1.47679">
        <ele>681.18</ele>
        <time>2025-05-07T15:36:51.585Z</time>
      </trkpt>
      <trkpt lat="43.24099" lon="-1.4769">
        <ele>680.32</ele>
        <time>2025-05-07T15:36:56.072Z</time>
      </trkpt>
      <trkpt lat="43.24096" lon="-1.47701">
        <ele>679.45</ele>
        <time>2025-05-07T15:37:00.562Z</time>
      </trkpt>
      <trkpt lat="43.24095" lon="-1.47709">
        <ele>678.55</ele>
        <time>2025-05-07T15:37:05.054Z</time>
      </trkpt>
      <trkpt lat="43.24092" lon="-1.47725">
        <ele>677.64</ele>
        <time>2025-05-07T15:37:09.550Z</time>
      </trkpt>
      <trkpt lat="43.2409" lon="-1.47733">
        <ele>676.7</ele>
        <time>2025-05-07T15:37:14.048Z</time>
      </trkpt>
      <trkpt lat="43.24087" lon="-1.47743">
        <ele>675.73</ele>
        <time>2025-05-07T15:37:18.549Z</time>
      </trkpt>
      <trkpt lat="43.24084" lon="-1.47753">
        <ele>674.74</ele>
        <time>2025-05-07T15:37:23.053Z</time>
      </trkpt>
      <trkpt lat="43.24077" lon="-1.47776">
        <ele>673.71</ele>
        <time>2025-05-07T15:37:27.563Z</time>
      </trkpt>
      <trkpt lat="43.24067" lon="-1.47796">
        <ele>672.56</ele>
        <time>2025-05-07T15:37:32.079Z</time>
      </trkpt>
      <trkpt lat="43.24065" lon="-1.47802">
        <ele>671.49</ele>
        <time>2025-05-07T15:37:36.596Z</time>
      </trkpt>
      <trkpt lat="43.24062" lon="-1.47808">
        <ele>670.39</ele>
        <time>2025-05-07T15:37:41.115Z</time>
      </trkpt>
      <trkpt lat="43.24058" lon="-1.47816">
        <ele>669.25</ele>
        <time>2025-05-07T15:37:45.636Z</time>
      </trkpt>
      <trkpt lat="43.24057" lon="-1.47818">
        <ele>668.15</ele>
        <time>2025-05-07T15:37:50.158Z</time>
      </trkpt>
      <trkpt lat="43.24053" lon="-1.47826">
        <ele>666.97</ele>
        <time>2025-05-07T15:37:54.682Z</time>
      </trkpt>
      <trkpt lat="43.24047" lon="-1.47834">
        <ele>665.78</ele>
        <time>2025-05-07T15:37:59.209Z</time>
      </trkpt>
      <trkpt lat="43.24037" lon="-1.47849">
        <ele>664.51</ele>
        <time>2025-05-07T15:38:03.741Z</time>
      </trkpt>
      <trkpt lat="43.24031" lon="-1.47857">
        <ele>663.31</ele>
        <time>2025-05-07T15:38:08.276Z</time>
      </trkpt>
      <trkpt lat="43.24024" lon="-1.47869">
        <ele>662.11</ele>
        <time>2025-05-07T15:38:12.815Z</time>
      </trkpt>
      <trkpt lat="43.2402" lon="-1.47876">
        <ele>660.97</ele>
        <time>2025-05-07T15:38:17.356Z</time>
      </trkpt>
      <trkpt lat="43.24014" lon="-1.47887">
        <ele>659.8</ele>
        <time>2025-05-07T15:38:21.900Z</time>
      </trkpt>
      <trkpt lat="43.24008" lon="-1.47899">
        <ele>658.65</ele>
        <time>2025-05-07T15:38:26.448Z</time>
      </trkpt>
      <trkpt lat="43.24003" lon="-1.47908">
        <ele>657.52</ele>
        <time>2025-05-07T15:38:30.998Z</time>
      </trkpt>
      <trkpt lat="43.23999" lon="-1.47917">
        <ele>656.38</ele>
        <time>2025-05-07T15:38:35.551Z</time>
      </trkpt>
      <trkpt lat="43.23995" lon="-1.47926">
        <ele>655.25</ele>
        <time>2025-05-07T15:38:40.106Z</time>
      </trkpt>
      <trkpt lat="43.23991" lon="-1.47936">
        <ele>654.12</ele>
        <time>2025-05-07T15:38:44.664Z</time>
      </trkpt>
      <trkpt lat="43.23988" lon="-1.47944">
        <ele>653.03</ele>
        <time>2025-05-07T15:38:49.224Z</time>
      </trkpt>
      <trkpt lat="43.23986" lon="-1.47948">
        <ele>652.01</ele>
        <time>2025-05-07T15:38:53.786Z</time>
      </trkpt>
      <trkpt lat="43.2398" lon="-1.47963">
        <ele>650.91</ele>
        <time>2025-05-07T15:38:58.352Z</time>
      </trkpt>
      <trkpt lat="43.23975" lon="-1.47988">
        <ele>649.81</ele>
        <time>2025-05-07T15:39:02.924Z</time>
      </trkpt>
      <trkpt lat="43.23974" lon="-1.47997">
        <ele>648.84</ele>
        <time>2025-05-07T15:39:07.498Z</time>
      </trkpt>
      <trkpt lat="43.2397" lon="-1.48006">
        <ele>647.94</ele>
        <time>2025-05-07T15:39:12.075Z</time>
      </trkpt>
      <trkpt lat="43.23959" lon="-1.48026">
        <ele>647.1</ele>
        <time>2025-05-07T15:39:16.658Z</time>
      </trkpt>
      <trkpt lat="43.23946" lon="-1.48044">
        <ele>646.35</ele>
        <time>2025-05-07T15:39:21.247Z</time>
      </trkpt>
      <trkpt lat="43.23941" lon="-1.48053">
        <ele>645.57</ele>
        <time>2025-05-07T15:39:25.839Z</time>
      </trkpt>
      <trkpt lat="43.23925" lon="-1.48065">
        <ele>644.82</ele>
        <time>2025-05-07T15:39:30.437Z</time>
      </trkpt>
      <trkpt lat="43.23912" lon="-1.48083">
        <ele>644.04</ele>
        <time>2025-05-07T15:39:35.041Z</time>
      </trkpt>
      <trkpt lat="43.2391" lon="-1.48085">
        <ele>643.25</ele>
        <time>2025-05-07T15:39:39.646Z</time>
      </trkpt>
      <trkpt lat="43.23907" lon="-1.48088">
        <ele>642.46</ele>
        <time>2025-05-07T15:39:44.252Z</time>
      </trkpt>
      <trkpt lat="43.23902" lon="-1.48094">
        <ele>641.64</ele>
        <time>2025-05-07T15:39:48.860Z</time>
      </trkpt>
      <trkpt lat="43.23898" lon="-1.48099">
        <ele>640.83</ele>
        <time>2025-05-07T15:39:53.470Z</time>
      </trkpt>
      <trkpt lat="43.23893" lon="-1.48102">
        <ele>640.04</ele>
        <time>2025-05-07T15:39:58.082Z</time>
      </trkpt>
      <trkpt lat="43.23887" lon="-1.48106">
        <ele>639.23</ele>
        <time>2025-05-07T15:40:02.696Z</time>
      </trkpt>
      <trkpt lat="43.23882" lon="-1.4811">
        <ele>638.4</ele>
        <time>2025-05-07T15:40:07.312Z</time>
      </trkpt>
      <trkpt lat="43.23879" lon="-1.4812">
        <ele>637.46</ele>
        <time>2025-05-07T15:40:11.931Z</time>
      </trkpt>
      <trkpt lat="43.23875" lon="-1.48127">
        <ele>636.54</ele>
        <time>2025-05-07T15:40:16.552Z</time>
      </trkpt>
      <trkpt lat="43.23871" lon="-1.48134">
        <ele>635.6</ele>
        <time>2025-05-07T15:40:21.175Z</time>
      </trkpt>
      <trkpt lat="43.23869" lon="-1.48139">
        <ele>634.67</ele>
        <time>2025-05-07T15:40:25.800Z</time>
      </trkpt>
      <trkpt lat="43.23866" lon="-1.48143">
        <ele>633.74</ele>
        <time>2025-05-07T15:40:30.426Z</time>
      </trkpt>
      <trkpt lat="43.23864" lon="-1.48149">
        <ele>632.78</ele>
        <time>2025-05-07T15:40:35.054Z</time>
      </trkpt>
      <trkpt lat="43.23861" lon="-1.48154">
        <ele>631.82</ele>
        <time>2025-05-07T15:40:39.683Z</time>
      </trkpt>
      <trkpt lat="43.23859" lon="-1.4816">
        <ele>630.83</ele>
        <time>2025-05-07T15:40:44.314Z</time>
      </trkpt>
      <trkpt lat="43.23856" lon="-1.48165">
        <ele>629.84</ele>
        <time>2025-05-07T15:40:48.946Z</time>
      </trkpt>
      <trkpt lat="43.23852" lon="-1.4817">
        <ele>628.83</ele>
        <time>2025-05-07T15:40:53.580Z</time>
      </trkpt>
      <trkpt lat="43.23849" lon="-1.48175">
        <ele>627.79</ele>
        <time>2025-05-07T15:40:58.216Z</time>
      </trkpt>
      <trkpt lat="43.23846" lon="-1.4818">
        <ele>626.75</ele>
        <time>2025-05-07T15:41:02.853Z</time>
      </trkpt>
      <trkpt lat="43.23843" lon="-1.48186">
        <ele>625.69</ele>
        <time>2025-05-07T15:41:07.492Z</time>
      </trkpt>
      <trkpt lat="43.23841" lon="-1.48192">
        <ele>624.63</ele>
        <time>2025-05-07T15:41:12.133Z</time>
      </trkpt>
      <trkpt lat="43.23838" lon="-1.48201">
        <ele>623.57</ele>
        <time>2025-05-07T15:41:16.776Z</time>
      </trkpt>
      <trkpt lat="43.23837" lon="-1.48204">
        <ele>622.55</ele>
        <time>2025-05-07T15:41:21.420Z</time>
      </trkpt>
      <trkpt lat="43.23837" lon="-1.48207">
        <ele>621.53</ele>
        <time>2025-05-07T15:41:26.065Z</time>
      </trkpt>
      <trkpt lat="43.23836" lon="-1.48209">
        <ele>620.52</ele>
        <time>2025-05-07T15:41:30.710Z</time>
      </trkpt>
      <trkpt lat="43.23834" lon="-1.48215">
        <ele>619.49</ele>
        <time>2025-05-07T15:41:35.357Z</time>
      </trkpt>
      <trkpt lat="43.23833" lon="-1.4822">
        <ele>618.45</ele>
        <time>2025-05-07T15:41:40.005Z</time>
      </trkpt>
      <trkpt lat="43.2383" lon="-1.48225">
        <ele>617.44</ele>
        <time>2025-05-07T15:41:44.655Z</time>
      </trkpt>
      <trkpt lat="43.23828" lon="-1.4823">
        <ele>616.44</ele>
        <time>2025-05-07T15:41:49.306Z</time>
      </trkpt>
      <trkpt lat="43.23826" lon="-1.48235">
        <ele>615.45</ele>
        <time>2025-05-07T15:41:53.958Z</time>
      </trkpt>
      <trkpt lat="43.23826" lon="-1.48239">
        <ele>614.48</ele>
        <time>2025-05-07T15:41:58.611Z</time>
      </trkpt>
      <trkpt lat="43.23825" lon="-1.48245">
        <ele>613.52</ele>
        <time>2025-05-07T15:42:03.266Z</time>
      </trkpt>
      <trkpt lat="43.23823" lon="-1.48252">
        <ele>612.57</ele>
        <time>2025-05-07T15:42:07.923Z</time>
      </trkpt>
      <trkpt lat="43.23824" lon="-1.48259">
        <ele>611.63</ele>
        <time>2025-05-07T15:42:12.581Z</time>
      </trkpt>
      <trkpt lat="43.23824" lon="-1.48266">
        <ele>610.72</ele>
        <time>2025-05-07T15:42:17.241Z</time>
      </trkpt>
      <trkpt lat="43.23824" lon="-1.48275">
        <ele>609.82</ele>
        <time>2025-05-07T15:42:21.903Z</time>
      </trkpt>
      <trkpt lat="43.23823" lon="-1.48281">
        <ele>608.99</ele>
        <time>2025-05-07T15:42:26.567Z</time>
      </trkpt>
      <trkpt lat="43.23822" lon="-1.48284">
        <ele>608.22</ele>
        <time>2025-05-07T15:42:31.232Z</time>
      </trkpt>
      <trkpt lat="43.23822" lon="-1.48289">
        <ele>607.47</ele>
        <time>2025-05-07T15:42:35.898Z</time>
      </trkpt>
      <trkpt lat="43.23821" lon="-1.48291">
        <ele>606.78</ele>
        <time>2025-05-07T15:42:40.564Z</time>
      </trkpt>
      <trkpt lat="43.23821" lon="-1.48293">
        <ele>606.13</ele>
        <time>2025-05-07T15:42:45.231Z</time>
      </trkpt>
      <trkpt lat="43.23821" lon="-1.48296">
        <ele>605.52</ele>
        <time>2025-05-07T15:42:49.899Z</time>
      </trkpt>
      <trkpt lat="43.2382" lon="-1.48299">
        <ele>604.95</ele>
        <time>2025-05-07T15:42:54.568Z</time>
      </trkpt>
      <trkpt lat="43.23814" lon="-1.48307">
        <ele>604.43</ele>
        <time>2025-05-07T15:42:59.239Z</time>
      </trkpt>
      <trkpt lat="43.23813" lon="-1.48312">
        <ele>603.97</ele>
        <time>2025-05-07T15:43:03.912Z</time>
      </trkpt>
      <trkpt lat="43.23812" lon="-1.48317">
        <ele>603.56</ele>
        <time>2025-05-07T15:43:08.586Z</time>
      </trkpt>
      <trkpt lat="43.23811" lon="-1.48321">
        <ele>603.21</ele>
        <time>2025-05-07T15:43:13.261Z</time>
      </trkpt>
      <trkpt lat="43.2381" lon="-1.48327">
        <ele>602.9</ele>
        <time>2025-05-07T15:43:17.937Z</time>
      </trkpt>
      <trkpt lat="43.23807" lon="-1.48334">
        <ele>602.66</ele>
        <time>2025-05-07T15:43:22.615Z</time>
      </trkpt>
      <trkpt lat="43.23805" lon="-1.48341">
        <ele>602.49</ele>
        <time>2025-05-07T15:43:27.295Z</time>
      </trkpt>
      <trkpt lat="43.23803" lon="-1.48351">
        <ele>602.39</ele>
        <time>2025-05-07T15:43:31.978Z</time>
      </trkpt>
      <trkpt lat="43.23802" lon="-1.48357">
        <ele>602.34</ele>
        <time>2025-05-07T15:43:36.662Z</time>
      </trkpt>
      <trkpt lat="43.23804" lon="-1.4837">
        <ele>602.3</ele>
        <time>2025-05-07T15:43:41.349Z</time>
      </trkpt>
      <trkpt lat="43.23805" lon="-1.48371">
        <ele>602.35</ele>
        <time>2025-05-07T15:43:46.037Z</time>
      </trkpt>
      <trkpt lat="43.23805" lon="-1.48372">
        <ele>602.48</ele>
        <time>2025-05-07T15:43:50.725Z</time>
      </trkpt>
      <trkpt lat="43.23803" lon="-1.48375">
        <ele>602.69</ele>
        <time>2025-05-07T15:43:55.414Z</time>
      </trkpt>
      <trkpt lat="43.23801" lon="-1.48377">
        <ele>602.96</ele>
        <time>2025-05-07T15:44:00.104Z</time>
      </trkpt>
      <trkpt lat="43.23798" lon="-1.48379">
        <ele>603.3</ele>
        <time>2025-05-07T15:44:04.795Z</time>
      </trkpt>
      <trkpt lat="43.23797" lon="-1.48381">
        <ele>603.68</ele>
        <time>2025-05-07T15:44:09.487Z</time>
      </trkpt>
      <trkpt lat="43.23794" lon="-1.48382">
        <ele>604.14</ele>
        <time>2025-05-07T15:44:14.180Z</time>
      </trkpt>
      <trkpt lat="43.23791" lon="-1.48383">
        <ele>604.66</ele>
        <time>2025-05-07T15:44:18.874Z</time>
      </trkpt>
      <trkpt lat="43.2379" lon="-1.48384">
        <ele>605.22</ele>
        <time>2025-05-07T15:44:23.568Z</time>
      </trkpt>
      <trkpt lat="43.23785" lon="-1.48388">
        <ele>605.87</ele>
        <time>2025-05-07T15:44:28.264Z</time>
      </trkpt>
      <trkpt lat="43.23782" lon="-1.48392">
        <ele>606.58</ele>
        <time>2025-05-07T15:44:32.961Z</time>
      </trkpt>
      <trkpt lat="43.23779" lon="-1.48398">
        <ele>607.35</ele>
        <time>2025-05-07T15:44:37.660Z</time>
      </trkpt>
      <trkpt lat="43.23776" lon="-1.48402">
        <ele>608.15</ele>
        <time>2025-05-07T15:44:42.361Z</time>
      </trkpt>
      <trkpt lat="43.23774" lon="-1.48407">
        <ele>609</ele>
        <time>2025-05-07T15:44:47.063Z</time>
      </trkpt>
      <trkpt lat="43.23774" lon="-1.48412">
        <ele>609.88</ele>
        <time>2025-05-07T15:44:51.766Z</time>
      </trkpt>
      <trkpt lat="43.23772" lon="-1.48417">
        <ele>610.8</ele>
        <time>2025-05-07T15:44:56.471Z</time>
      </trkpt>
      <trkpt lat="43.2377" lon="-1.48421">
        <ele>611.76</ele>
        <time>2025-05-07T15:45:01.177Z</time>
      </trkpt>
      <trkpt lat="43.23769" lon="-1.48426">
        <ele>612.75</ele>
        <time>2025-05-07T15:45:05.884Z</time>
      </trkpt>
      <trkpt lat="43.23768" lon="-1.4843">
        <ele>613.78</ele>
        <time>2025-05-07T15:45:10.592Z</time>
      </trkpt>
      <trkpt lat="43.23765" lon="-1.48434">
        <ele>614.85</ele>
        <time>2025-05-07T15:45:15.301Z</time>
      </trkpt>
      <trkpt lat="43.23762" lon="-1.48438">
        <ele>615.96</ele>
        <time>2025-05-07T15:45:20.012Z</time>
      </trkpt>
      <trkpt lat="43.23759" lon="-1.48442">
        <ele>617.1</ele>
        <time>2025-05-07T15:45:24.724Z</time>
      </trkpt>
      <trkpt lat="43.23757" lon="-1.48444">
        <ele>618.25</ele>
        <time>2025-05-07T15:45:29.437Z</time>
      </trkpt>
      <trkpt lat="43.2375" lon="-1.48443">
        <ele>619.48</ele>
        <time>2025-05-07T15:45:34.152Z</time>
      </trkpt>
      <trkpt lat="43.23745" lon="-1.4844">
        <ele>620.69</ele>
        <time>2025-05-07T15:45:38.869Z</time>
      </trkpt>
      <trkpt lat="43.2374" lon="-1.4844">
        <ele>621.9</ele>
        <time>2025-05-07T15:45:43.588Z</time>
      </trkpt>
      <trkpt lat="43.23735" lon="-1.48441">
        <ele>623.13</ele>
        <time>2025-05-07T15:45:48.309Z</time>
      </trkpt>
      <trkpt lat="43.23732" lon="-1.48447">
        <ele>624.44</ele>
        <time>2025-05-07T15:45:53.031Z</time>
      </trkpt>
      <trkpt lat="43.23731" lon="-1.48452">
        <ele>625.76</ele>
        <time>2025-05-07T15:45:57.755Z</time>
      </trkpt>
      <trkpt lat="43.23731" lon="-1.48456">
        <ele>627.06</ele>
        <time>2025-05-07T15:46:02.480Z</time>
      </trkpt>
      <trkpt lat="43.23728" lon="-1.48461">
        <ele>628.37</ele>
        <time>2025-05-07T15:46:07.206Z</time>
      </trkpt>
      <trkpt lat="43.23725" lon="-1.48467">
        <ele>629.7</ele>
        <time>2025-05-07T15:46:11.934Z</time>
      </trkpt>
      <trkpt lat="43.23724" lon="-1.4847">
        <ele>630.98</ele>
        <time>2025-05-07T15:46:16.663Z</time>
      </trkpt>
      <trkpt lat="43.23722" lon="-1.48474">
        <ele>632.28</ele>
        <time>2025-05-07T15:46:21.393Z</time>
      </trkpt>
      <trkpt lat="43.23719" lon="-1.48479">
        <ele>633.59</ele>
        <time>2025-05-07T15:46:26.124Z</time>
      </trkpt>
      <trkpt lat="43.23716" lon="-1.48486">
        <ele>634.92</ele>
        <time>2025-05-07T15:46:30.857Z</time>
      </trkpt>
      <trkpt lat="43.23712" lon="-1.48492">
        <ele>636.18</ele>
        <time>2025-05-07T15:46:35.592Z</time>
      </trkpt>
      <trkpt lat="43.2371" lon="-1.48495">
        <ele>637.39</ele>
        <time>2025-05-07T15:46:40.328Z</time>
      </trkpt>
      <trkpt lat="43.23708" lon="-1.48499">
        <ele>638.6</ele>
        <time>2025-05-07T15:46:45.066Z</time>
      </trkpt>
      <trkpt lat="43.23706" lon="-1.48505">
        <ele>639.82</ele>
        <time>2025-05-07T15:46:49.805Z</time>
      </trkpt>
      <trkpt lat="43.23703" lon="-1.48512">
        <ele>641.03</ele>
        <time>2025-05-07T15:46:54.546Z</time>
      </trkpt>
      <trkpt lat="43.23701" lon="-1.4852">
        <ele>642.21</ele>
        <time>2025-05-07T15:46:59.289Z</time>
      </trkpt>
      <trkpt lat="43.23701" lon="-1.48525">
        <ele>643.36</ele>
        <time>2025-05-07T15:47:04.033Z</time>
      </trkpt>
      <trkpt lat="43.23701" lon="-1.4853">
        <ele>644.5</ele>
        <time>2025-05-07T15:47:08.779Z</time>
      </trkpt>
      <trkpt lat="43.23701" lon="-1.48536">
        <ele>645.64</ele>
        <time>2025-05-07T15:47:13.526Z</time>
      </trkpt>
      <trkpt lat="43.23701" lon="-1.48539">
        <ele>646.73</ele>
        <time>2025-05-07T15:47:18.274Z</time>
      </trkpt>
      <trkpt lat="43.23699" lon="-1.48545">
        <ele>647.82</ele>
        <time>2025-05-07T15:47:23.024Z</time>
      </trkpt>
      <trkpt lat="43.23699" lon="-1.4855">
        <ele>648.87</ele>
        <time>2025-05-07T15:47:27.775Z</time>
      </trkpt>
      <trkpt lat="43.23699" lon="-1.48555">
        <ele>649.91</ele>
        <time>2025-05-07T15:47:32.527Z</time>
      </trkpt>
      <trkpt lat="43.23699" lon="-1.48561">
        <ele>650.96</ele>
        <time>2025-05-07T15:47:37.280Z</time>
      </trkpt>
      <trkpt lat="43.23701" lon="-1.48567">
        <ele>651.98</ele>
        <time>2025-05-07T15:47:42.035Z</time>
      </trkpt>
      <trkpt lat="43.23701" lon="-1.48572">
        <ele>653.01</ele>
        <time>2025-05-07T15:47:46.791Z</time>
      </trkpt>
      <trkpt lat="43.23696" lon="-1.48594">
        <ele>654.16</ele>
        <time>2025-05-07T15:47:51.553Z</time>
      </trkpt>
      <trkpt lat="43.23696" lon="-1.48602">
        <ele>655.2</ele>
        <time>2025-05-07T15:47:56.317Z</time>
      </trkpt>
      <trkpt lat="43.23695" lon="-1.48608">
        <ele>656.18</ele>
        <time>2025-05-07T15:48:01.082Z</time>
      </trkpt>
      <trkpt lat="43.23694" lon="-1.48614">
        <ele>657.15</ele>
        <time>2025-05-07T15:48:05.849Z</time>
      </trkpt>
      <trkpt lat="43.23692" lon="-1.48621">
        <ele>658.14</ele>
        <time>2025-05-07T15:48:10.618Z</time>
      </trkpt>
      <trkpt lat="43.23691" lon="-1.48621">
        <ele>659.09</ele>
        <time>2025-05-07T15:48:15.387Z</time>
      </trkpt>
      <trkpt lat="43.2369" lon="-1.48627">
        <ele>660.04</ele>
        <time>2025-05-07T15:48:20.157Z</time>
      </trkpt>
      <trkpt lat="43.23689" lon="-1.48632">
        <ele>660.99</ele>
        <time>2025-05-07T15:48:24.929Z</time>
      </trkpt>
      <trkpt lat="43.23688" lon="-1.48636">
        <ele>661.91</ele>
        <time>2025-05-07T15:48:29.702Z</time>
      </trkpt>
      <trkpt lat="43.23688" lon="-1.48641">
        <ele>662.8</ele>
        <time>2025-05-07T15:48:34.476Z</time>
      </trkpt>
      <trkpt lat="43.23687" lon="-1.48646">
        <ele>663.67</ele>
        <time>2025-05-07T15:48:39.251Z</time>
      </trkpt>
      <trkpt lat="43.23683" lon="-1.48658">
        <ele>664.55</ele>
        <time>2025-05-07T15:48:44.029Z</time>
      </trkpt>
      <trkpt lat="43.2368" lon="-1.48665">
        <ele>665.41</ele>
        <time>2025-05-07T15:48:48.809Z</time>
      </trkpt>
      <trkpt lat="43.23678" lon="-1.48671">
        <ele>666.31</ele>
        <time>2025-05-07T15:48:53.591Z</time>
      </trkpt>
      <trkpt lat="43.23675" lon="-1.48675">
        <ele>667.18</ele>
        <time>2025-05-07T15:48:58.374Z</time>
      </trkpt>
      <trkpt lat="43.23672" lon="-1.4868">
        <ele>668.05</ele>
        <time>2025-05-07T15:49:03.159Z</time>
      </trkpt>
      <trkpt lat="43.23668" lon="-1.48686">
        <ele>668.91</ele>
        <time>2025-05-07T15:49:07.946Z</time>
      </trkpt>
      <trkpt lat="43.23668" lon="-1.4869">
        <ele>669.65</ele>
        <time>2025-05-07T15:49:12.734Z</time>
      </trkpt>
      <trkpt lat="43.23665" lon="-1.48698">
        <ele>670.43</ele>
        <time>2025-05-07T15:49:17.524Z</time>
      </trkpt>
      <trkpt lat="43.23664" lon="-1.48706">
        <ele>671.16</ele>
        <time>2025-05-07T15:49:22.316Z</time>
      </trkpt>
      <trkpt lat="43.23664" lon="-1.48712">
        <ele>671.8</ele>
        <time>2025-05-07T15:49:27.110Z</time>
      </trkpt>
      <trkpt lat="43.23662" lon="-1.4872">
        <ele>672.44</ele>
        <time>2025-05-07T15:49:31.906Z</time>
      </trkpt>
      <trkpt lat="43.23661" lon="-1.48728">
        <ele>672.99</ele>
        <time>2025-05-07T15:49:36.704Z</time>
      </trkpt>
      <trkpt lat="43.2366" lon="-1.48733">
        <ele>673.46</ele>
        <time>2025-05-07T15:49:41.503Z</time>
      </trkpt>
      <trkpt lat="43.23658" lon="-1.48737">
        <ele>673.84</ele>
        <time>2025-05-07T15:49:46.303Z</time>
      </trkpt>
      <trkpt lat="43.23656" lon="-1.48741">
        <ele>674.14</ele>
        <time>2025-05-07T15:49:51.104Z</time>
      </trkpt>
      <trkpt lat="43.23653" lon="-1.48755">
        <ele>674.41</ele>
        <time>2025-05-07T15:49:55.909Z</time>
      </trkpt>
      <trkpt lat="43.2365" lon="-1.48766">
        <ele>674.55</ele>
        <time>2025-05-07T15:50:00.717Z</time>
      </trkpt>
      <trkpt lat="43.23645" lon="-1.48791">
        <ele>674.57</ele>
        <time>2025-05-07T15:50:05.531Z</time>
      </trkpt>
      <trkpt lat="43.23642" lon="-1.48806">
        <ele>674.48</ele>
        <time>2025-05-07T15:50:10.349Z</time>
      </trkpt>
      <trkpt lat="43.23638" lon="-1.4883">
        <ele>674.21</ele>
        <time>2025-05-07T15:50:15.173Z</time>
      </trkpt>
      <trkpt lat="43.2364" lon="-1.48833">
        <ele>673.98</ele>
        <time>2025-05-07T15:50:19.998Z</time>
      </trkpt>
      <trkpt lat="43.23639" lon="-1.4884">
        <ele>673.71</ele>
        <time>2025-05-07T15:50:24.824Z</time>
      </trkpt>
      <trkpt lat="43.23633" lon="-1.48845">
        <ele>673.44</ele>
        <time>2025-05-07T15:50:29.653Z</time>
      </trkpt>
      <trkpt lat="43.23632" lon="-1.48852">
        <ele>673.04</ele>
        <time>2025-05-07T15:50:34.484Z</time>
      </trkpt>
      <trkpt lat="43.2363" lon="-1.48859">
        <ele>672.59</ele>
        <time>2025-05-07T15:50:39.316Z</time>
      </trkpt>
      <trkpt lat="43.23627" lon="-1.48869">
        <ele>672.11</ele>
        <time>2025-05-07T15:50:44.151Z</time>
      </trkpt>
      <trkpt lat="43.23625" lon="-1.48879">
        <ele>671.58</ele>
        <time>2025-05-07T15:50:48.989Z</time>
      </trkpt>
      <trkpt lat="43.23622" lon="-1.48886">
        <ele>671.03</ele>
        <time>2025-05-07T15:50:53.829Z</time>
      </trkpt>
      <trkpt lat="43.2362" lon="-1.489">
        <ele>670.4</ele>
        <time>2025-05-07T15:50:58.672Z</time>
      </trkpt>
      <trkpt lat="43.23614" lon="-1.4892">
        <ele>669.66</ele>
        <time>2025-05-07T15:51:03.520Z</time>
      </trkpt>
      <trkpt lat="43.23612" lon="-1.48928">
        <ele>668.96</ele>
        <time>2025-05-07T15:51:08.370Z</time>
      </trkpt>
      <trkpt lat="43.23611" lon="-1.48937">
        <ele>668.21</ele>
        <time>2025-05-07T15:51:13.223Z</time>
      </trkpt>
      <trkpt lat="43.2361" lon="-1.48945">
        <ele>667.42</ele>
        <time>2025-05-07T15:51:18.078Z</time>
      </trkpt>
      <trkpt lat="43.23609" lon="-1.48951">
        <ele>666.65</ele>
        <time>2025-05-07T15:51:22.934Z</time>
      </trkpt>
      <trkpt lat="43.23608" lon="-1.48958">
        <ele>665.84</ele>
        <time>2025-05-07T15:51:27.792Z</time>
      </trkpt>
      <trkpt lat="43.23607" lon="-1.48966">
        <ele>665.01</ele>
        <time>2025-05-07T15:51:32.652Z</time>
      </trkpt>
      <trkpt lat="43.23607" lon="-1.48976">
        <ele>664.14</ele>
        <time>2025-05-07T15:51:37.514Z</time>
      </trkpt>
      <trkpt lat="43.23609" lon="-1.48985">
        <ele>663.22</ele>
        <time>2025-05-07T15:51:42.378Z</time>
      </trkpt>
      <trkpt lat="43.2361" lon="-1.48988">
        <ele>662.31</ele>
        <time>2025-05-07T15:51:47.243Z</time>
      </trkpt>
      <trkpt lat="43.23611" lon="-1.48993">
        <ele>661.36</ele>
        <time>2025-05-07T15:51:52.110Z</time>
      </trkpt>
      <trkpt lat="43.23612" lon="-1.49008">
        <ele>660.36</ele>
        <time>2025-05-07T15:51:56.980Z</time>
      </trkpt>
      <trkpt lat="43.23612" lon="-1.49021">
        <ele>659.33</ele>
        <time>2025-05-07T15:52:01.853Z</time>
      </trkpt>
      <trkpt lat="43.23611" lon="-1.49027">
        <ele>658.32</ele>
        <time>2025-05-07T15:52:06.728Z</time>
      </trkpt>
      <trkpt lat="43.23613" lon="-1.49034">
        <ele>657.25</ele>
        <time>2025-05-07T15:52:11.605Z</time>
      </trkpt>
      <trkpt lat="43.23617" lon="-1.49039">
        <ele>656.15</ele>
        <time>2025-05-07T15:52:16.484Z</time>
      </trkpt>
      <trkpt lat="43.23619" lon="-1.49045">
        <ele>655.04</ele>
        <time>2025-05-07T15:52:21.364Z</time>
      </trkpt>
      <trkpt lat="43.23621" lon="-1.49048">
        <ele>653.93</ele>
        <time>2025-05-07T15:52:26.245Z</time>
      </trkpt>
      <trkpt lat="43.23625" lon="-1.49052">
        <ele>652.78</ele>
        <time>2025-05-07T15:52:31.128Z</time>
      </trkpt>
      <trkpt lat="43.23627" lon="-1.49056">
        <ele>651.61</ele>
        <time>2025-05-07T15:52:36.012Z</time>
      </trkpt>
      <trkpt lat="43.23629" lon="-1.49063">
        <ele>650.41</ele>
        <time>2025-05-07T15:52:40.898Z</time>
      </trkpt>
      <trkpt lat="43.2363" lon="-1.49067">
        <ele>649.22</ele>
        <time>2025-05-07T15:52:45.785Z</time>
      </trkpt>
      <trkpt lat="43.23632" lon="-1.4907">
        <ele>648</ele>
        <time>2025-05-07T15:52:50.673Z</time>
      </trkpt>
      <trkpt lat="43.23634" lon="-1.49075">
        <ele>646.71</ele>
        <time>2025-05-07T15:52:55.562Z</time>
      </trkpt>
      <trkpt lat="43.23638" lon="-1.49082">
        <ele>645.33</ele>
        <time>2025-05-07T15:53:00.453Z</time>
      </trkpt>
      <trkpt lat="43.23638" lon="-1.49084">
        <ele>644.03</ele>
        <time>2025-05-07T15:53:05.345Z</time>
      </trkpt>
      <trkpt lat="43.23637" lon="-1.49089">
        <ele>642.71</ele>
        <time>2025-05-07T15:53:10.238Z</time>
      </trkpt>
      <trkpt lat="43.23637" lon="-1.49093">
        <ele>641.35</ele>
        <time>2025-05-07T15:53:15.132Z</time>
      </trkpt>
      <trkpt lat="43.23636" lon="-1.491">
        <ele>639.97</ele>
        <time>2025-05-07T15:53:20.028Z</time>
      </trkpt>
      <trkpt lat="43.23638" lon="-1.49107">
        <ele>638.5</ele>
        <time>2025-05-07T15:53:24.926Z</time>
      </trkpt>
      <trkpt lat="43.2364" lon="-1.49112">
        <ele>637.05</ele>
        <time>2025-05-07T15:53:29.825Z</time>
      </trkpt>
      <trkpt lat="43.23642" lon="-1.49117">
        <ele>635.55</ele>
        <time>2025-05-07T15:53:34.725Z</time>
      </trkpt>
      <trkpt lat="43.23644" lon="-1.49124">
        <ele>634.02</ele>
        <time>2025-05-07T15:53:39.627Z</time>
      </trkpt>
      <trkpt lat="43.23646" lon="-1.49129">
        <ele>632.47</ele>
        <time>2025-05-07T15:53:44.531Z</time>
      </trkpt>
      <trkpt lat="43.23646" lon="-1.49134">
        <ele>630.96</ele>
        <time>2025-05-07T15:53:49.436Z</time>
      </trkpt>
      <trkpt lat="43.23646" lon="-1.49138">
        <ele>629.46</ele>
        <time>2025-05-07T15:53:54.342Z</time>
      </trkpt>
      <trkpt lat="43.23645" lon="-1.49145">
        <ele>627.91</ele>
        <time>2025-05-07T15:53:59.250Z</time>
      </trkpt>
      <trkpt lat="43.23645" lon="-1.4915">
        <ele>626.36</ele>
        <time>2025-05-07T15:54:04.159Z</time>
      </trkpt>
      <trkpt lat="43.23645" lon="-1.49155">
        <ele>624.83</ele>
        <time>2025-05-07T15:54:09.069Z</time>
      </trkpt>
      <trkpt lat="43.23646" lon="-1.49159">
        <ele>623.32</ele>
        <time>2025-05-07T15:54:13.980Z</time>
      </trkpt>
      <trkpt lat="43.23647" lon="-1.49163">
        <ele>621.82</ele>
        <time>2025-05-07T15:54:18.892Z</time>
      </trkpt>
      <trkpt lat="43.23648" lon="-1.49167">
        <ele>620.34</ele>
        <time>2025-05-07T15:54:23.805Z</time>
      </trkpt>
      <trkpt lat="43.23648" lon="-1.49172">
        <ele>618.88</ele>
        <time>2025-05-07T15:54:28.719Z</time>
      </trkpt>
      <trkpt lat="43.23648" lon="-1.49177">
        <ele>617.44</ele>
        <time>2025-05-07T15:54:33.635Z</time>
      </trkpt>
      <trkpt lat="43.23648" lon="-1.49178">
        <ele>616.08</ele>
        <time>2025-05-07T15:54:38.551Z</time>
      </trkpt>
      <trkpt lat="43.23648" lon="-1.49181">
        <ele>614.72</ele>
        <time>2025-05-07T15:54:43.468Z</time>
      </trkpt>
      <trkpt lat="43.23648" lon="-1.49182">
        <ele>613.41</ele>
        <time>2025-05-07T15:54:48.385Z</time>
      </trkpt>
      <trkpt lat="43.23648" lon="-1.49187">
        <ele>612.08</ele>
        <time>2025-05-07T15:54:53.303Z</time>
      </trkpt>
      <trkpt lat="43.23649" lon="-1.49193">
        <ele>610.75</ele>
        <time>2025-05-07T15:54:58.222Z</time>
      </trkpt>
      <trkpt lat="43.2365" lon="-1.49199">
        <ele>609.44</ele>
        <time>2025-05-07T15:55:03.143Z</time>
      </trkpt>
      <trkpt lat="43.23651" lon="-1.49203">
        <ele>608.17</ele>
        <time>2025-05-07T15:55:08.065Z</time>
      </trkpt>
      <trkpt lat="43.23652" lon="-1.49208">
        <ele>606.95</ele>
        <time>2025-05-07T15:55:12.988Z</time>
      </trkpt>
      <trkpt lat="43.23652" lon="-1.49214">
        <ele>605.74</ele>
        <time>2025-05-07T15:55:17.913Z</time>
      </trkpt>
      <trkpt lat="43.23653" lon="-1.49219">
        <ele>604.56</ele>
        <time>2025-05-07T15:55:22.839Z</time>
      </trkpt>
      <trkpt lat="43.23654" lon="-1.49224">
        <ele>603.38</ele>
        <time>2025-05-07T15:55:27.766Z</time>
      </trkpt>
      <trkpt lat="43.23655" lon="-1.49229">
        <ele>602.22</ele>
        <time>2025-05-07T15:55:32.695Z</time>
      </trkpt>
      <trkpt lat="43.23655" lon="-1.49232">
        <ele>601.11</ele>
        <time>2025-05-07T15:55:37.624Z</time>
      </trkpt>
      <trkpt lat="43.23655" lon="-1.49236">
        <ele>600.02</ele>
        <time>2025-05-07T15:55:42.554Z</time>
      </trkpt>
      <trkpt lat="43.23656" lon="-1.49241">
        <ele>598.92</ele>
        <time>2025-05-07T15:55:47.486Z</time>
      </trkpt>
      <trkpt lat="43.23656" lon="-1.49246">
        <ele>597.87</ele>
        <time>2025-05-07T15:55:52.419Z</time>
      </trkpt>
      <trkpt lat="43.23658" lon="-1.49252">
        <ele>596.81</ele>
        <time>2025-05-07T15:55:57.353Z</time>
      </trkpt>
      <trkpt lat="43.23659" lon="-1.49258">
        <ele>595.81</ele>
        <time>2025-05-07T15:56:02.289Z</time>
      </trkpt>
      <trkpt lat="43.23659" lon="-1.49262">
        <ele>594.86</ele>
        <time>2025-05-07T15:56:07.226Z</time>
      </trkpt>
      <trkpt lat="43.23658" lon="-1.49266">
        <ele>593.95</ele>
        <time>2025-05-07T15:56:12.164Z</time>
      </trkpt>
      <trkpt lat="43.23657" lon="-1.4927">
        <ele>593.08</ele>
        <time>2025-05-07T15:56:17.103Z</time>
      </trkpt>
      <trkpt lat="43.23656" lon="-1.49275">
        <ele>592.23</ele>
        <time>2025-05-07T15:56:22.043Z</time>
      </trkpt>
      <trkpt lat="43.23658" lon="-1.4928">
        <ele>591.39</ele>
        <time>2025-05-07T15:56:26.985Z</time>
      </trkpt>
      <trkpt lat="43.23659" lon="-1.49285">
        <ele>590.6</ele>
        <time>2025-05-07T15:56:31.928Z</time>
      </trkpt>
      <trkpt lat="43.23662" lon="-1.49292">
        <ele>589.79</ele>
        <time>2025-05-07T15:56:36.873Z</time>
      </trkpt>
      <trkpt lat="43.23663" lon="-1.49298">
        <ele>589.05</ele>
        <time>2025-05-07T15:56:41.819Z</time>
      </trkpt>
      <trkpt lat="43.23663" lon="-1.49301">
        <ele>588.38</ele>
        <time>2025-05-07T15:56:46.766Z</time>
      </trkpt>
      <trkpt lat="43.23662" lon="-1.49302">
        <ele>587.78</ele>
        <time>2025-05-07T15:56:51.713Z</time>
      </trkpt>
      <trkpt lat="43.23662" lon="-1.49303">
        <ele>587.2</ele>
        <time>2025-05-07T15:56:56.661Z</time>
      </trkpt>
      <trkpt lat="43.2366" lon="-1.49304">
        <ele>586.68</ele>
        <time>2025-05-07T15:57:01.609Z</time>
      </trkpt>
      <trkpt lat="43.23655" lon="-1.49306">
        <ele>586.15</ele>
        <time>2025-05-07T15:57:06.559Z</time>
      </trkpt>
      <trkpt lat="43.23651" lon="-1.49307">
        <ele>585.66</ele>
        <time>2025-05-07T15:57:11.510Z</time>
      </trkpt>
      <trkpt lat="43.23649" lon="-1.49309">
        <ele>585.18</ele>
        <time>2025-05-07T15:57:16.462Z</time>
      </trkpt>
      <trkpt lat="43.23646" lon="-1.49312">
        <ele>584.71</ele>
        <time>2025-05-07T15:57:21.416Z</time>
      </trkpt>
      <trkpt lat="43.23645" lon="-1.49313">
        <ele>584.28</ele>
        <time>2025-05-07T15:57:26.370Z</time>
      </trkpt>
      <trkpt lat="43.23642" lon="-1.49314">
        <ele>583.86</ele>
        <time>2025-05-07T15:57:31.325Z</time>
      </trkpt>
      <trkpt lat="43.2364" lon="-1.49314">
        <ele>583.45</ele>
        <time>2025-05-07T15:57:36.281Z</time>
      </trkpt>
      <trkpt lat="43.23636" lon="-1.49314">
        <ele>583.06</ele>
        <time>2025-05-07T15:57:41.238Z</time>
      </trkpt>
      <trkpt lat="43.23631" lon="-1.49315">
        <ele>582.66</ele>
        <time>2025-05-07T15:57:46.197Z</time>
      </trkpt>
      <trkpt lat="43.23626" lon="-1.49315">
        <ele>582.22</ele>
        <time>2025-05-07T15:57:51.157Z</time>
      </trkpt>
      <trkpt lat="43.23622" lon="-1.49314">
        <ele>581.8</ele>
        <time>2025-05-07T15:57:56.119Z</time>
      </trkpt>
      <trkpt lat="43.23618" lon="-1.49313">
        <ele>581.4</ele>
        <time>2025-05-07T15:58:01.082Z</time>
      </trkpt>
      <trkpt lat="43.23615" lon="-1.49313">
        <ele>581</ele>
        <time>2025-05-07T15:58:06.046Z</time>
      </trkpt>
      <trkpt lat="43.23613" lon="-1.49313">
        <ele>580.6</ele>
        <time>2025-05-07T15:58:11.011Z</time>
      </trkpt>
      <trkpt lat="43.23611" lon="-1.49314">
        <ele>580.19</ele>
        <time>2025-05-07T15:58:15.976Z</time>
      </trkpt>
      <trkpt lat="43.23606" lon="-1.49316">
        <ele>579.74</ele>
        <time>2025-05-07T15:58:20.943Z</time>
      </trkpt>
      <trkpt lat="43.23613" lon="-1.49339">
        <ele>579.23</ele>
        <time>2025-05-07T15:58:25.916Z</time>
      </trkpt>
      <trkpt lat="43.23617" lon="-1.49346">
        <ele>578.83</ele>
        <time>2025-05-07T15:58:30.891Z</time>
      </trkpt>
      <trkpt lat="43.23619" lon="-1.49348">
        <ele>578.44</ele>
        <time>2025-05-07T15:58:35.867Z</time>
      </trkpt>
      <trkpt lat="43.23628" lon="-1.4937">
        <ele>578.06</ele>
        <time>2025-05-07T15:58:40.849Z</time>
      </trkpt>
      <trkpt lat="43.23634" lon="-1.49394">
        <ele>577.66</ele>
        <time>2025-05-07T15:58:45.838Z</time>
      </trkpt>
      <trkpt lat="43.23639" lon="-1.49418">
        <ele>580.73</ele>
        <time>2025-05-25T15:38:36.000Z</time>
      </trkpt>
      <trkpt lat="43.23648" lon="-1.49446">
        <ele>580.43</ele>
        <time>2025-05-25T15:38:36.007Z</time>
      </trkpt>
      <trkpt lat="43.23633" lon="-1.49466">
        <ele>578.64</ele>
        <time>2025-05-25T15:38:36.021Z</time>
      </trkpt>
      <trkpt lat="43.23618" lon="-1.49485">
        <ele>577.73</ele>
        <time>2025-05-25T15:38:36.042Z</time>
      </trkpt>
      <trkpt lat="43.23607" lon="-1.49512">
        <ele>576.97</ele>
        <time>2025-05-25T15:38:36.071Z</time>
      </trkpt>
      <trkpt lat="43.23597" lon="-1.49539">
        <ele>576.29</ele>
        <time>2025-05-25T15:38:36.107Z</time>
      </trkpt>
      <trkpt lat="43.23586" lon="-1.49577">
        <ele>575.69</ele>
        <time>2025-05-25T15:38:36.153Z</time>
      </trkpt>
      <trkpt lat="43.23583" lon="-1.49618">
        <ele>574.9</ele>
        <time>2025-05-25T15:38:36.209Z</time>
      </trkpt>
      <trkpt lat="43.23579" lon="-1.49659">
        <ele>574.03</ele>
        <time>2025-05-25T15:38:36.275Z</time>
      </trkpt>
      <trkpt lat="43.23566" lon="-1.49696">
        <ele>572.87</ele>
        <time>2025-05-25T15:38:36.351Z</time>
      </trkpt>
      <trkpt lat="43.23554" lon="-1.49734">
        <ele>571.98</ele>
        <time>2025-05-25T15:38:36.437Z</time>
      </trkpt>
      <trkpt lat="43.23536" lon="-1.49751">
        <ele>570.82</ele>
        <time>2025-05-25T15:38:36.531Z</time>
      </trkpt>
      <trkpt lat="43.23518" lon="-1.49768">
        <ele>569.47</ele>
        <time>2025-05-25T15:38:36.632Z</time>
      </trkpt>
      <trkpt lat="43.235" lon="-1.49785">
        <ele>567.86</ele>
        <time>2025-05-25T15:38:36.740Z</time>
      </trkpt>
      <trkpt lat="43.23483" lon="-1.49805">
        <ele>566</ele>
        <time>2025-05-25T15:38:36.856Z</time>
      </trkpt>
      <trkpt lat="43.23466" lon="-1.49824">
        <ele>564.08</ele>
        <time>2025-05-25T15:38:36.979Z</time>
      </trkpt>
      <trkpt lat="43.23446" lon="-1.49839">
        <ele>562.2</ele>
        <time>2025-05-25T15:38:37.109Z</time>
      </trkpt>
      <trkpt lat="43.23423" lon="-1.49846">
        <ele>560.38</ele>
        <time>2025-05-25T15:38:37.247Z</time>
      </trkpt>
      <trkpt lat="43.23399" lon="-1.49853">
        <ele>558.61</ele>
        <time>2025-05-25T15:38:37.393Z</time>
      </trkpt>
      <trkpt lat="43.23376" lon="-1.49859">
        <ele>556.92</ele>
        <time>2025-05-25T15:38:37.547Z</time>
      </trkpt>
      <trkpt lat="43.2335" lon="-1.49867">
        <ele>554.06</ele>
        <time>2025-05-25T15:38:37.710Z</time>
      </trkpt>
      <trkpt lat="43.23345" lon="-1.49869">
        <ele>552.92</ele>
        <time>2025-05-25T15:38:37.875Z</time>
      </trkpt>
      <trkpt lat="43.23345" lon="-1.49882">
        <ele>551.94</ele>
        <time>2025-05-25T15:38:38.043Z</time>
      </trkpt>
      <trkpt lat="43.2332" lon="-1.4988">
        <ele>551.08</ele>
        <time>2025-05-25T15:38:38.220Z</time>
      </trkpt>
      <trkpt lat="43.23303" lon="-1.49884">
        <ele>550.56</ele>
        <time>2025-05-25T15:38:38.402Z</time>
      </trkpt>
      <trkpt lat="43.23294" lon="-1.49905">
        <ele>550.11</ele>
        <time>2025-05-25T15:38:38.590Z</time>
      </trkpt>
      <trkpt lat="43.23283" lon="-1.49921">
        <ele>549.89</ele>
        <time>2025-05-25T15:38:38.783Z</time>
      </trkpt>
      <trkpt lat="43.23262" lon="-1.49939">
        <ele>549.95</ele>
        <time>2025-05-25T15:38:38.985Z</time>
      </trkpt>
      <trkpt lat="43.2324" lon="-1.49957">
        <ele>550.34</ele>
        <time>2025-05-25T15:38:39.195Z</time>
      </trkpt>
      <trkpt lat="43.23225" lon="-1.49979">
        <ele>550.87</ele>
        <time>2025-05-25T15:38:39.413Z</time>
      </trkpt>
      <trkpt lat="43.2321" lon="-1.50001">
        <ele>551.53</ele>
        <time>2025-05-25T15:38:39.638Z</time>
      </trkpt>
      <trkpt lat="43.23195" lon="-1.50024">
        <ele>552.28</ele>
        <time>2025-05-25T15:38:39.870Z</time>
      </trkpt>
      <trkpt lat="43.2318" lon="-1.50041">
        <ele>553.25</ele>
        <time>2025-05-25T15:38:40.109Z</time>
      </trkpt>
      <trkpt lat="43.23165" lon="-1.50058">
        <ele>554.33</ele>
        <time>2025-05-25T15:38:40.354Z</time>
      </trkpt>
      <trkpt lat="43.23139" lon="-1.50074">
        <ele>555.66</ele>
        <time>2025-05-25T15:38:40.609Z</time>
      </trkpt>
      <trkpt lat="43.23114" lon="-1.5009">
        <ele>556.95</ele>
        <time>2025-05-25T15:38:40.873Z</time>
      </trkpt>
      <trkpt lat="43.23096" lon="-1.50095">
        <ele>558.31</ele>
        <time>2025-05-25T15:38:41.143Z</time>
      </trkpt>
      <trkpt lat="43.23077" lon="-1.50101">
        <ele>559.64</ele>
        <time>2025-05-25T15:38:41.420Z</time>
      </trkpt>
      <trkpt lat="43.23067" lon="-1.50107">
        <ele>560.94</ele>
        <time>2025-05-25T15:38:41.701Z</time>
      </trkpt>
      <trkpt lat="43.23043" lon="-1.50134">
        <ele>562.31</ele>
        <time>2025-05-25T15:38:41.992Z</time>
      </trkpt>
      <trkpt lat="43.23019" lon="-1.50161">
        <ele>563.68</ele>
        <time>2025-05-25T15:38:42.293Z</time>
      </trkpt>
      <trkpt lat="43.23002" lon="-1.50189">
        <ele>565.02</ele>
        <time>2025-05-25T15:38:42.603Z</time>
      </trkpt>
      <trkpt lat="43.22989" lon="-1.50217">
        <ele>566.42</ele>
        <time>2025-05-25T15:38:42.921Z</time>
      </trkpt>
      <trkpt lat="43.2298" lon="-1.50249">
        <ele>567.96</ele>
        <time>2025-05-25T15:38:43.247Z</time>
      </trkpt>
      <trkpt lat="43.2297" lon="-1.50281">
        <ele>569.88</ele>
        <time>2025-05-25T15:38:43.582Z</time>
      </trkpt>
      <trkpt lat="43.2296" lon="-1.50313">
        <ele>571.84</ele>
        <time>2025-05-25T15:38:43.925Z</time>
      </trkpt>
      <trkpt lat="43.22951" lon="-1.50345">
        <ele>573.6</ele>
        <time>2025-05-25T15:38:44.277Z</time>
      </trkpt>
      <trkpt lat="43.22942" lon="-1.50343">
        <ele>575.02</ele>
        <time>2025-05-25T15:38:44.632Z</time>
      </trkpt>
      <trkpt lat="43.22942" lon="-1.50343">
        <ele>576.58</ele>
        <time>2025-05-25T15:38:44.987Z</time>
      </trkpt>
      <trkpt lat="43.22942" lon="-1.50343">
        <ele>579.73</ele>
        <time>2025-05-25T15:38:45.342Z</time>
      </trkpt>
      <trkpt lat="43.22931" lon="-1.50359">
        <ele>581.31</ele>
        <time>2025-05-25T15:38:45.702Z</time>
      </trkpt>
      <trkpt lat="43.22921" lon="-1.50375">
        <ele>583</ele>
        <time>2025-05-25T15:38:46.067Z</time>
      </trkpt>
      <trkpt lat="43.22908" lon="-1.50404">
        <ele>584.67</ele>
        <time>2025-05-25T15:38:46.441Z</time>
      </trkpt>
      <trkpt lat="43.22895" lon="-1.50433">
        <ele>586.46</ele>
        <time>2025-05-25T15:38:46.823Z</time>
      </trkpt>
      <trkpt lat="43.22883" lon="-1.50452">
        <ele>588.4</ele>
        <time>2025-05-25T15:38:47.211Z</time>
      </trkpt>
      <trkpt lat="43.22871" lon="-1.5047">
        <ele>590.42</ele>
        <time>2025-05-25T15:38:47.605Z</time>
      </trkpt>
      <trkpt lat="43.22852" lon="-1.50492">
        <ele>592.56</ele>
        <time>2025-05-25T15:38:48.007Z</time>
      </trkpt>
      <trkpt lat="43.22833" lon="-1.50515">
        <ele>595.12</ele>
        <time>2025-05-25T15:38:48.418Z</time>
      </trkpt>
      <trkpt lat="43.22818" lon="-1.50526">
        <ele>598</ele>
        <time>2025-05-25T15:38:48.834Z</time>
      </trkpt>
      <trkpt lat="43.22798" lon="-1.50556">
        <ele>601.15</ele>
        <time>2025-05-25T15:38:49.260Z</time>
      </trkpt>
      <trkpt lat="43.22779" lon="-1.50586">
        <ele>604.32</ele>
        <time>2025-05-25T15:38:49.696Z</time>
      </trkpt>
      <trkpt lat="43.2276" lon="-1.50616">
        <ele>607.46</ele>
        <time>2025-05-25T15:38:50.142Z</time>
      </trkpt>
      <trkpt lat="43.2274" lon="-1.50646">
        <ele>610.6</ele>
        <time>2025-05-25T15:38:50.597Z</time>
      </trkpt>
      <trkpt lat="43.22721" lon="-1.50676">
        <ele>613.8</ele>
        <time>2025-05-25T15:38:51.062Z</time>
      </trkpt>
      <trkpt lat="43.22701" lon="-1.50694">
        <ele>617.11</ele>
        <time>2025-05-25T15:38:51.535Z</time>
      </trkpt>
      <trkpt lat="43.2268" lon="-1.50712">
        <ele>620.48</ele>
        <time>2025-05-25T15:38:52.016Z</time>
      </trkpt>
      <trkpt lat="43.22663" lon="-1.50739">
        <ele>623.75</ele>
        <time>2025-05-25T15:38:52.506Z</time>
      </trkpt>
      <trkpt lat="43.22646" lon="-1.50766">
        <ele>627.05</ele>
        <time>2025-05-25T15:38:53.005Z</time>
      </trkpt>
      <trkpt lat="43.22629" lon="-1.50793">
        <ele>630.4</ele>
        <time>2025-05-25T15:38:53.512Z</time>
      </trkpt>
      <trkpt lat="43.22612" lon="-1.5082">
        <ele>633.89</ele>
        <time>2025-05-25T15:38:54.028Z</time>
      </trkpt>
      <trkpt lat="43.2259" lon="-1.5085">
        <ele>637.47</ele>
        <time>2025-05-25T15:38:54.554Z</time>
      </trkpt>
      <trkpt lat="43.22569" lon="-1.5088">
        <ele>641</ele>
        <time>2025-05-25T15:38:55.091Z</time>
      </trkpt>
      <trkpt lat="43.22556" lon="-1.50915">
        <ele>644.38</ele>
        <time>2025-05-25T15:38:55.637Z</time>
      </trkpt>
      <trkpt lat="43.22544" lon="-1.50951">
        <ele>647.66</ele>
        <time>2025-05-25T15:38:56.193Z</time>
      </trkpt>
      <trkpt lat="43.22531" lon="-1.50986">
        <ele>650.82</ele>
        <time>2025-05-25T15:38:56.758Z</time>
      </trkpt>
      <trkpt lat="43.22528" lon="-1.50996">
        <ele>656.59</ele>
        <time>2025-05-25T15:38:57.326Z</time>
      </trkpt>
      <trkpt lat="43.22516" lon="-1.51021">
        <ele>659.36</ele>
        <time>2025-05-25T15:38:57.901Z</time>
      </trkpt>
      <trkpt lat="43.22505" lon="-1.51046">
        <ele>662.07</ele>
        <time>2025-05-25T15:38:58.483Z</time>
      </trkpt>
      <trkpt lat="43.22494" lon="-1.51071">
        <ele>664.86</ele>
        <time>2025-05-25T15:38:59.073Z</time>
      </trkpt>
      <trkpt lat="43.22489" lon="-1.51105">
        <ele>667.49</ele>
        <time>2025-05-25T15:38:59.671Z</time>
      </trkpt>
      <trkpt lat="43.22489" lon="-1.51105">
        <ele>670.15</ele>
        <time>2025-05-25T15:39:00.269Z</time>
      </trkpt>
      <trkpt lat="43.22487" lon="-1.5112">
        <ele>672.81</ele>
        <time>2025-05-25T15:39:00.871Z</time>
      </trkpt>
      <trkpt lat="43.22483" lon="-1.51154">
        <ele>675.63</ele>
        <time>2025-05-25T15:39:01.481Z</time>
      </trkpt>
      <trkpt lat="43.22476" lon="-1.51169">
        <ele>678.6</ele>
        <time>2025-05-25T15:39:02.095Z</time>
      </trkpt>
      <trkpt lat="43.22461" lon="-1.51188">
        <ele>681.76</ele>
        <time>2025-05-25T15:39:02.716Z</time>
      </trkpt>
      <trkpt lat="43.22446" lon="-1.51206">
        <ele>684.8</ele>
        <time>2025-05-25T15:39:03.344Z</time>
      </trkpt>
      <trkpt lat="43.2244" lon="-1.51223">
        <ele>687.65</ele>
        <time>2025-05-25T15:39:03.977Z</time>
      </trkpt>
      <trkpt lat="43.22431" lon="-1.51238">
        <ele>690.45</ele>
        <time>2025-05-25T15:39:04.614Z</time>
      </trkpt>
      <trkpt lat="43.22419" lon="-1.5124">
        <ele>693.41</ele>
        <time>2025-05-25T15:39:05.256Z</time>
      </trkpt>
      <trkpt lat="43.22397" lon="-1.51234">
        <ele>696.62</ele>
        <time>2025-05-25T15:39:05.905Z</time>
      </trkpt>
      <trkpt lat="43.22378" lon="-1.51219">
        <ele>699.89</ele>
        <time>2025-05-25T15:39:06.561Z</time>
      </trkpt>
      <trkpt lat="43.2236" lon="-1.51204">
        <ele>703.19</ele>
        <time>2025-05-25T15:39:07.224Z</time>
      </trkpt>
      <trkpt lat="43.22341" lon="-1.51189">
        <ele>706.44</ele>
        <time>2025-05-25T15:39:07.894Z</time>
      </trkpt>
      <trkpt lat="43.2232" lon="-1.51184">
        <ele>709.5</ele>
        <time>2025-05-25T15:39:08.572Z</time>
      </trkpt>
      <trkpt lat="43.22297" lon="-1.5119">
        <ele>712.21</ele>
        <time>2025-05-25T15:39:09.257Z</time>
      </trkpt>
      <trkpt lat="43.22275" lon="-1.51195">
        <ele>714.89</ele>
        <time>2025-05-25T15:39:09.950Z</time>
      </trkpt>
      <trkpt lat="43.22249" lon="-1.51199">
        <ele>717.58</ele>
        <time>2025-05-25T15:39:10.652Z</time>
      </trkpt>
      <trkpt lat="43.22223" lon="-1.51202">
        <ele>720.1</ele>
        <time>2025-05-25T15:39:11.362Z</time>
      </trkpt>
      <trkpt lat="43.22197" lon="-1.51206">
        <ele>722.42</ele>
        <time>2025-05-25T15:39:12.081Z</time>
      </trkpt>
      <trkpt lat="43.22176" lon="-1.5121">
        <ele>724.58</ele>
        <time>2025-05-25T15:39:12.807Z</time>
      </trkpt>
      <trkpt lat="43.22155" lon="-1.51214">
        <ele>726.62</ele>
        <time>2025-05-25T15:39:13.540Z</time>
      </trkpt>
      <trkpt lat="43.22133" lon="-1.51219">
        <ele>728.66</ele>
        <time>2025-05-25T15:39:14.280Z</time>
      </trkpt>
      <trkpt lat="43.22106" lon="-1.51217">
        <ele>730.72</ele>
        <time>2025-05-25T15:39:15.030Z</time>
      </trkpt>
      <trkpt lat="43.22078" lon="-1.51214">
        <ele>732.74</ele>
        <time>2025-05-25T15:39:15.789Z</time>
      </trkpt>
      <trkpt lat="43.22051" lon="-1.51212">
        <ele>734.63</ele>
        <time>2025-05-25T15:39:16.557Z</time>
      </trkpt>
      <trkpt lat="43.22024" lon="-1.5121">
        <ele>736.38</ele>
        <time>2025-05-25T15:39:17.334Z</time>
      </trkpt>
      <trkpt lat="43.22008" lon="-1.51214">
        <ele>737.8</ele>
        <time>2025-05-25T15:39:18.116Z</time>
      </trkpt>
      <trkpt lat="43.21991" lon="-1.51219">
        <ele>739.06</ele>
        <time>2025-05-25T15:39:18.904Z</time>
      </trkpt>
      <trkpt lat="43.21972" lon="-1.51229">
        <ele>740.17</ele>
        <time>2025-05-25T15:39:19.699Z</time>
      </trkpt>
      <trkpt lat="43.21955" lon="-1.51227">
        <ele>741.33</ele>
        <time>2025-05-25T15:39:20.500Z</time>
      </trkpt>
      <trkpt lat="43.21949" lon="-1.51242">
        <ele>741.87</ele>
        <time>2025-05-25T15:39:21.305Z</time>
      </trkpt>
      <trkpt lat="43.21946" lon="-1.5127">
        <ele>742.19</ele>
        <time>2025-05-25T15:39:22.117Z</time>
      </trkpt>
      <trkpt lat="43.2195" lon="-1.51308">
        <ele>742.38</ele>
        <time>2025-05-25T15:39:22.938Z</time>
      </trkpt>
      <trkpt lat="43.21953" lon="-1.51345">
        <ele>742.85</ele>
        <time>2025-05-25T15:39:23.768Z</time>
      </trkpt>
      <trkpt lat="43.21957" lon="-1.51384">
        <ele>743.2</ele>
        <time>2025-05-25T15:39:24.608Z</time>
      </trkpt>
      <trkpt lat="43.21964" lon="-1.51418">
        <ele>743.55</ele>
        <time>2025-05-25T15:39:25.456Z</time>
      </trkpt>
      <trkpt lat="43.21975" lon="-1.51441">
        <ele>743.63</ele>
        <time>2025-05-25T15:39:26.311Z</time>
      </trkpt>
      <trkpt lat="43.21987" lon="-1.51463">
        <ele>743.88</ele>
        <time>2025-05-25T15:39:27.173Z</time>
      </trkpt>
      <trkpt lat="43.21991" lon="-1.51493">
        <ele>744.24</ele>
        <time>2025-05-25T15:39:28.042Z</time>
      </trkpt>
      <trkpt lat="43.21992" lon="-1.51528">
        <ele>744.66</ele>
        <time>2025-05-25T15:39:28.920Z</time>
      </trkpt>
      <trkpt lat="43.21993" lon="-1.51563">
        <ele>745.19</ele>
        <time>2025-05-25T15:39:29.806Z</time>
      </trkpt>
      <trkpt lat="43.21993" lon="-1.51598">
        <ele>745.66</ele>
        <time>2025-05-25T15:39:30.701Z</time>
      </trkpt>
      <trkpt lat="43.21994" lon="-1.51633">
        <ele>746.11</ele>
        <time>2025-05-25T15:39:31.604Z</time>
      </trkpt>
      <trkpt lat="43.21988" lon="-1.51626">
        <ele>747.15</ele>
        <time>2025-05-25T15:39:32.510Z</time>
      </trkpt>
      <trkpt lat="43.21974" lon="-1.51606">
        <ele>749.75</ele>
        <time>2025-05-25T15:39:33.423Z</time>
      </trkpt>
      <trkpt lat="43.21959" lon="-1.51586">
        <ele>751.61</ele>
        <time>2025-05-25T15:39:34.343Z</time>
      </trkpt>
      <trkpt lat="43.21945" lon="-1.51558">
        <ele>753.67</ele>
        <time>2025-05-25T15:39:35.271Z</time>
      </trkpt>
      <trkpt lat="43.21931" lon="-1.5153">
        <ele>756.03</ele>
        <time>2025-05-25T15:39:36.207Z</time>
      </trkpt>
      <trkpt lat="43.21922" lon="-1.51499">
        <ele>758.42</ele>
        <time>2025-05-25T15:39:37.151Z</time>
      </trkpt>
      <trkpt lat="43.21913" lon="-1.51468">
        <ele>761.21</ele>
        <time>2025-05-25T15:39:38.103Z</time>
      </trkpt>
      <trkpt lat="43.21904" lon="-1.51438">
        <ele>764.04</ele>
        <time>2025-05-25T15:39:39.063Z</time>
      </trkpt>
      <trkpt lat="43.21894" lon="-1.51415">
        <ele>767.04</ele>
        <time>2025-05-25T15:39:40.030Z</time>
      </trkpt>
      <trkpt lat="43.21884" lon="-1.51393">
        <ele>770.13</ele>
        <time>2025-05-25T15:39:41.003Z</time>
      </trkpt>
      <trkpt lat="43.21877" lon="-1.51356">
        <ele>773.4</ele>
        <time>2025-05-25T15:39:41.985Z</time>
      </trkpt>
      <trkpt lat="43.2187" lon="-1.51319">
        <ele>776.72</ele>
        <time>2025-05-25T15:39:42.977Z</time>
      </trkpt>
      <trkpt lat="43.21862" lon="-1.51282">
        <ele>780.04</ele>
        <time>2025-05-25T15:39:43.978Z</time>
      </trkpt>
      <trkpt lat="43.21855" lon="-1.51245">
        <ele>783.49</ele>
        <time>2025-05-25T15:39:44.988Z</time>
      </trkpt>
      <trkpt lat="43.21848" lon="-1.51208">
        <ele>787.04</ele>
        <time>2025-05-25T15:39:46.008Z</time>
      </trkpt>
      <trkpt lat="43.21846" lon="-1.51178">
        <ele>790.54</ele>
        <time>2025-05-25T15:39:47.035Z</time>
      </trkpt>
      <trkpt lat="43.21843" lon="-1.51148">
        <ele>794.27</ele>
        <time>2025-05-25T15:39:48.069Z</time>
      </trkpt>
      <trkpt lat="43.21841" lon="-1.51118">
        <ele>798.28</ele>
        <time>2025-05-25T15:39:49.111Z</time>
      </trkpt>
      <trkpt lat="43.21835" lon="-1.51099">
        <ele>802.47</ele>
        <time>2025-05-25T15:39:50.158Z</time>
      </trkpt>
      <trkpt lat="43.21835" lon="-1.51099">
        <ele>806.51</ele>
        <time>2025-05-25T15:39:51.205Z</time>
      </trkpt>
      <trkpt lat="43.21818" lon="-1.5108">
        <ele>810.85</ele>
        <time>2025-05-25T15:39:52.259Z</time>
      </trkpt>
      <trkpt lat="43.21801" lon="-1.51061">
        <ele>815.28</ele>
        <time>2025-05-25T15:39:53.321Z</time>
      </trkpt>
      <trkpt lat="43.21783" lon="-1.51043">
        <ele>819.64</ele>
        <time>2025-05-25T15:39:54.390Z</time>
      </trkpt>
      <trkpt lat="43.21803" lon="-1.51034">
        <ele>824.3</ele>
        <time>2025-05-25T15:39:55.466Z</time>
      </trkpt>
      <trkpt lat="43.21813" lon="-1.51019">
        <ele>829.11</ele>
        <time>2025-05-25T15:39:56.547Z</time>
      </trkpt>
      <trkpt lat="43.21813" lon="-1.51019">
        <ele>833.92</ele>
        <time>2025-05-25T15:39:57.628Z</time>
      </trkpt>
      <trkpt lat="43.21833" lon="-1.50996">
        <ele>839.15</ele>
        <time>2025-05-25T15:39:58.717Z</time>
      </trkpt>
      <trkpt lat="43.21852" lon="-1.50972">
        <ele>844.55</ele>
        <time>2025-05-25T15:39:59.815Z</time>
      </trkpt>
      <trkpt lat="43.21861" lon="-1.50953">
        <ele>849.8</ele>
        <time>2025-05-25T15:40:00.918Z</time>
      </trkpt>
      <trkpt lat="43.21878" lon="-1.50926">
        <ele>855.42</ele>
        <time>2025-05-25T15:40:02.030Z</time>
      </trkpt>
      <trkpt lat="43.21895" lon="-1.50899">
        <ele>861.09</ele>
        <time>2025-05-25T15:40:03.151Z</time>
      </trkpt>
      <trkpt lat="43.2191" lon="-1.50882">
        <ele>866.64</ele>
        <time>2025-05-25T15:40:04.278Z</time>
      </trkpt>
      <trkpt lat="43.21917" lon="-1.50853">
        <ele>872.17</ele>
        <time>2025-05-25T15:40:05.413Z</time>
      </trkpt>
      <trkpt lat="43.21925" lon="-1.50824">
        <ele>877.57</ele>
        <time>2025-05-25T15:40:06.555Z</time>
      </trkpt>
      <trkpt lat="43.21936" lon="-1.50807">
        <ele>882.76</ele>
        <time>2025-05-25T15:40:07.703Z</time>
      </trkpt>
      <trkpt lat="43.21949" lon="-1.508">
        <ele>887.75</ele>
        <time>2025-05-25T15:40:08.855Z</time>
      </trkpt>
      <trkpt lat="43.21959" lon="-1.50781">
        <ele>892.62</ele>
        <time>2025-05-25T15:40:10.013Z</time>
      </trkpt>
      <trkpt lat="43.21966" lon="-1.50757">
        <ele>897.12</ele>
        <time>2025-05-25T15:40:11.177Z</time>
      </trkpt>
      <trkpt lat="43.21962" lon="-1.50757">
        <ele>901.08</ele>
        <time>2025-05-25T15:40:12.343Z</time>
      </trkpt>
      <trkpt lat="43.21966" lon="-1.50757">
        <ele>908.33</ele>
        <time>2025-05-25T15:40:13.510Z</time>
      </trkpt>
      <trkpt lat="43.21972" lon="-1.50736">
        <ele>911.67</ele>
        <time>2025-05-25T15:40:14.682Z</time>
      </trkpt>
      <trkpt lat="43.21983" lon="-1.50721">
        <ele>914.7</ele>
        <time>2025-05-25T15:40:15.860Z</time>
      </trkpt>
      <trkpt lat="43.21989" lon="-1.50708">
        <ele>917.19</ele>
        <time>2025-05-25T15:40:17.041Z</time>
      </trkpt>
      <trkpt lat="43.22013" lon="-1.50729">
        <ele>919.3</ele>
        <time>2025-05-25T15:40:18.232Z</time>
      </trkpt>
      <trkpt lat="43.22013" lon="-1.50704">
        <ele>920.83</ele>
        <time>2025-05-25T15:40:19.429Z</time>
      </trkpt>
      <trkpt lat="43.22026" lon="-1.50712">
        <ele>922.01</ele>
        <time>2025-05-25T15:40:20.631Z</time>
      </trkpt>
      <trkpt lat="43.22047" lon="-1.50717">
        <ele>922.68</ele>
        <time>2025-05-25T15:40:21.840Z</time>
      </trkpt>
      <trkpt lat="43.22052" lon="-1.50725">
        <ele>922.85</ele>
        <time>2025-05-25T15:40:23.052Z</time>
      </trkpt>
      <trkpt lat="43.22056" lon="-1.50727">
        <ele>922.54</ele>
        <time>2025-05-25T15:40:24.265Z</time>
      </trkpt>
      <trkpt lat="43.22067" lon="-1.50719">
        <ele>921.75</ele>
        <time>2025-05-25T15:40:25.482Z</time>
      </trkpt>
      <trkpt lat="43.22069" lon="-1.50708">
        <ele>920.58</ele>
        <time>2025-05-25T15:40:26.702Z</time>
      </trkpt>
      <trkpt lat="43.22069" lon="-1.50708">
        <ele>918.95</ele>
        <time>2025-05-25T15:40:27.922Z</time>
      </trkpt>
      <trkpt lat="43.22073" lon="-1.50697">
        <ele>916.83</ele>
        <time>2025-05-25T15:40:29.145Z</time>
      </trkpt>
      <trkpt lat="43.22077" lon="-1.50695">
        <ele>914.23</ele>
        <time>2025-05-25T15:40:30.369Z</time>
      </trkpt>
      <trkpt lat="43.22093" lon="-1.50693">
        <ele>910.88</ele>
        <time>2025-05-25T15:40:31.599Z</time>
      </trkpt>
      <trkpt lat="43.2211" lon="-1.50691">
        <ele>907.08</ele>
        <time>2025-05-25T15:40:32.834Z</time>
      </trkpt>
      <trkpt lat="43.22111" lon="-1.5069">
        <ele>903.25</ele>
        <time>2025-05-25T15:40:34.070Z</time>
      </trkpt>
      <trkpt lat="43.2212" lon="-1.50684">
        <ele>894.19</ele>
        <time>2025-05-25T15:40:35.309Z</time>
      </trkpt>
      <trkpt lat="43.22122" lon="-1.50667">
        <ele>889.2</ele>
        <time>2025-05-25T15:40:36.552Z</time>
      </trkpt>
      <trkpt lat="43.22133" lon="-1.50657">
        <ele>883.58</ele>
        <time>2025-05-25T15:40:37.800Z</time>
      </trkpt>
      <trkpt lat="43.22144" lon="-1.50663">
        <ele>877.95</ele>
        <time>2025-05-25T15:40:39.052Z</time>
      </trkpt>
      <trkpt lat="43.22157" lon="-1.50654">
        <ele>871.87</ele>
        <time>2025-05-25T15:40:40.309Z</time>
      </trkpt>
      <trkpt lat="43.2217" lon="-1.50665">
        <ele>865.46</ele>
        <time>2025-05-25T15:40:41.571Z</time>
      </trkpt>
      <trkpt lat="43.2218" lon="-1.50665">
        <ele>858.83</ele>
        <time>2025-05-25T15:40:42.836Z</time>
      </trkpt>
      <trkpt lat="43.22197" lon="-1.50663">
        <ele>851.85</ele>
        <time>2025-05-25T15:40:44.107Z</time>
      </trkpt>
      <trkpt lat="43.22208" lon="-1.50667">
        <ele>845.01</ele>
        <time>2025-05-25T15:40:45.382Z</time>
      </trkpt>
      <trkpt lat="43.22221" lon="-1.50661">
        <ele>838.1</ele>
        <time>2025-05-25T15:40:46.661Z</time>
      </trkpt>
      <trkpt lat="43.22238" lon="-1.50636">
        <ele>831.13</ele>
        <time>2025-05-25T15:40:47.948Z</time>
      </trkpt>
      <trkpt lat="43.22255" lon="-1.50611">
        <ele>824.27</ele>
        <time>2025-05-25T15:40:49.244Z</time>
      </trkpt>
      <trkpt lat="43.22269" lon="-1.50595">
        <ele>817.46</ele>
        <time>2025-05-25T15:40:50.546Z</time>
      </trkpt>
      <trkpt lat="43.22283" lon="-1.50579">
        <ele>810.68</ele>
        <time>2025-05-25T15:40:51.854Z</time>
      </trkpt>
      <trkpt lat="43.22288" lon="-1.5056">
        <ele>804.2</ele>
        <time>2025-05-25T15:40:53.167Z</time>
      </trkpt>
      <trkpt lat="43.22309" lon="-1.50545">
        <ele>797.67</ele>
        <time>2025-05-25T15:40:54.488Z</time>
      </trkpt>
      <trkpt lat="43.22331" lon="-1.5053">
        <ele>791.34</ele>
        <time>2025-05-25T15:40:55.817Z</time>
      </trkpt>
      <trkpt lat="43.22331" lon="-1.5053">
        <ele>785.71</ele>
        <time>2025-05-25T15:40:57.146Z</time>
      </trkpt>
      <trkpt lat="43.22346" lon="-1.50526">
        <ele>779.92</ele>
        <time>2025-05-25T15:40:58.480Z</time>
      </trkpt>
      <trkpt lat="43.22367" lon="-1.50506">
        <ele>774.29</ele>
        <time>2025-05-25T15:40:59.823Z</time>
      </trkpt>
      <trkpt lat="43.22376" lon="-1.50506">
        <ele>769.08</ele>
        <time>2025-05-25T15:41:01.168Z</time>
      </trkpt>
      <trkpt lat="43.22406" lon="-1.50506">
        <ele>763.96</ele>
        <time>2025-05-25T15:41:02.523Z</time>
      </trkpt>
      <trkpt lat="43.22426" lon="-1.505">
        <ele>758.85</ele>
        <time>2025-05-25T15:41:03.885Z</time>
      </trkpt>
      <trkpt lat="43.22434" lon="-1.50498">
        <ele>744.09</ele>
        <time>2025-05-25T15:41:05.250Z</time>
      </trkpt>
      <trkpt lat="43.2244" lon="-1.50489">
        <ele>739.01</ele>
        <time>2025-05-25T15:41:06.618Z</time>
      </trkpt>
      <trkpt lat="43.22442" lon="-1.50466">
        <ele>733.77</ele>
        <time>2025-05-25T15:41:07.992Z</time>
      </trkpt>
      <trkpt lat="43.22449" lon="-1.50457">
        <ele>728.45</ele>
        <time>2025-05-25T15:41:09.369Z</time>
      </trkpt>
      <trkpt lat="43.22472" lon="-1.50453">
        <ele>722.81</ele>
        <time>2025-05-25T15:41:10.754Z</time>
      </trkpt>
      <trkpt lat="43.22479" lon="-1.50444">
        <ele>717.32</ele>
        <time>2025-05-25T15:41:12.142Z</time>
      </trkpt>
      <trkpt lat="43.22491" lon="-1.5044">
        <ele>711.69</ele>
        <time>2025-05-25T15:41:13.534Z</time>
      </trkpt>
      <trkpt lat="43.22511" lon="-1.50438">
        <ele>705.94</ele>
        <time>2025-05-25T15:41:14.933Z</time>
      </trkpt>
      <trkpt lat="43.22527" lon="-1.50427">
        <ele>700.06</ele>
        <time>2025-05-25T15:41:16.338Z</time>
      </trkpt>
      <trkpt lat="43.22543" lon="-1.50416">
        <ele>694.07</ele>
        <time>2025-05-25T15:41:17.749Z</time>
      </trkpt>
      <trkpt lat="43.22567" lon="-1.50417">
        <ele>687.83</ele>
        <time>2025-05-25T15:41:19.167Z</time>
      </trkpt>
      <trkpt lat="43.2259" lon="-1.50418">
        <ele>681.35</ele>
        <time>2025-05-25T15:41:20.593Z</time>
      </trkpt>
      <trkpt lat="43.22616" lon="-1.50412">
        <ele>674.69</ele>
        <time>2025-05-25T15:41:22.028Z</time>
      </trkpt>
      <trkpt lat="43.22644" lon="-1.50425">
        <ele>668.06</ele>
        <time>2025-05-25T15:41:23.473Z</time>
      </trkpt>
      <trkpt lat="43.22667" lon="-1.50427">
        <ele>661.43</ele>
        <time>2025-05-25T15:41:24.926Z</time>
      </trkpt>
      <trkpt lat="43.22693" lon="-1.50422">
        <ele>654.58</ele>
        <time>2025-05-25T15:41:26.387Z</time>
      </trkpt>
      <trkpt lat="43.22719" lon="-1.50416">
        <ele>647.67</ele>
        <time>2025-05-25T15:41:27.857Z</time>
      </trkpt>
      <trkpt lat="43.2274" lon="-1.50418">
        <ele>640.99</ele>
        <time>2025-05-25T15:41:29.334Z</time>
      </trkpt>
      <trkpt lat="43.22753" lon="-1.5041">
        <ele>634.67</ele>
        <time>2025-05-25T15:41:30.816Z</time>
      </trkpt>
      <trkpt lat="43.2277" lon="-1.5041">
        <ele>628.42</ele>
        <time>2025-05-25T15:41:32.304Z</time>
      </trkpt>
      <trkpt lat="43.22788" lon="-1.5041">
        <ele>622.14</ele>
        <time>2025-05-25T15:41:33.797Z</time>
      </trkpt>
      <trkpt lat="43.22803" lon="-1.50425">
        <ele>616.15</ele>
        <time>2025-05-25T15:41:35.297Z</time>
      </trkpt>
      <trkpt lat="43.22811" lon="-1.50427">
        <ele>610.6</ele>
        <time>2025-05-25T15:41:36.800Z</time>
      </trkpt>
      <trkpt lat="43.22839" lon="-1.50408">
        <ele>604.9</ele>
        <time>2025-05-25T15:41:38.313Z</time>
      </trkpt>
      <trkpt lat="43.22857" lon="-1.50407">
        <ele>599.8</ele>
        <time>2025-05-25T15:41:39.832Z</time>
      </trkpt>
      <trkpt lat="43.22876" lon="-1.50405">
        <ele>595.14</ele>
        <time>2025-05-25T15:41:41.357Z</time>
      </trkpt>
      <trkpt lat="43.22899" lon="-1.5039">
        <ele>590.77</ele>
        <time>2025-05-25T15:41:42.891Z</time>
      </trkpt>
      <trkpt lat="43.22921" lon="-1.50375">
        <ele>583.11</ele>
        <time>2025-05-25T15:41:44.433Z</time>
      </trkpt>
      <trkpt lat="43.22931" lon="-1.50359">
        <ele>579.67</ele>
        <time>2025-05-25T15:41:45.980Z</time>
      </trkpt>
      <trkpt lat="43.22942" lon="-1.50343">
        <ele>576.51</ele>
        <time>2025-05-25T15:41:47.532Z</time>
      </trkpt>
      <trkpt lat="43.22951" lon="-1.50345">
        <ele>573.65</ele>
        <time>2025-05-25T15:41:49.087Z</time>
      </trkpt>
      <trkpt lat="43.2296" lon="-1.50313">
        <ele>570.66</ele>
        <time>2025-05-25T15:41:50.651Z</time>
      </trkpt>
      <trkpt lat="43.2297" lon="-1.50281">
        <ele>567.66</ele>
        <time>2025-05-25T15:41:52.223Z</time>
      </trkpt>
      <trkpt lat="43.2298" lon="-1.50249">
        <ele>564.91</ele>
        <time>2025-05-25T15:41:53.804Z</time>
      </trkpt>
      <trkpt lat="43.22989" lon="-1.50217">
        <ele>562.72</ele>
        <time>2025-05-25T15:41:55.393Z</time>
      </trkpt>
      <trkpt lat="43.23002" lon="-1.50189">
        <ele>560.84</ele>
        <time>2025-05-25T15:41:56.990Z</time>
      </trkpt>
      <trkpt lat="43.23019" lon="-1.50161">
        <ele>559.17</ele>
        <time>2025-05-25T15:41:58.596Z</time>
      </trkpt>
      <trkpt lat="43.23043" lon="-1.50134">
        <ele>557.61</ele>
        <time>2025-05-25T15:42:00.212Z</time>
      </trkpt>
      <trkpt lat="43.23066" lon="-1.50108">
        <ele>556.17</ele>
        <time>2025-05-25T15:42:01.838Z</time>
      </trkpt>
      <trkpt lat="43.23067" lon="-1.50107">
        <ele>553.73</ele>
        <time>2025-05-25T15:42:03.465Z</time>
      </trkpt>
      <trkpt lat="43.23077" lon="-1.50101">
        <ele>552.63</ele>
        <time>2025-05-25T15:42:05.096Z</time>
      </trkpt>
      <trkpt lat="43.23095" lon="-1.50095">
        <ele>551.56</ele>
        <time>2025-05-25T15:42:06.733Z</time>
      </trkpt>
      <trkpt lat="43.23114" lon="-1.5009">
        <ele>550.52</ele>
        <time>2025-05-25T15:42:08.376Z</time>
      </trkpt>
      <trkpt lat="43.23139" lon="-1.50074">
        <ele>549.58</ele>
        <time>2025-05-25T15:42:10.028Z</time>
      </trkpt>
      <trkpt lat="43.23165" lon="-1.50058">
        <ele>548.64</ele>
        <time>2025-05-25T15:42:11.690Z</time>
      </trkpt>
      <trkpt lat="43.2318" lon="-1.50041">
        <ele>547.95</ele>
        <time>2025-05-25T15:42:13.358Z</time>
      </trkpt>
      <trkpt lat="43.23195" lon="-1.50024">
        <ele>547.42</ele>
        <time>2025-05-25T15:42:15.033Z</time>
      </trkpt>
      <trkpt lat="43.2321" lon="-1.50001">
        <ele>547.09</ele>
        <time>2025-05-25T15:42:16.715Z</time>
      </trkpt>
      <trkpt lat="43.23225" lon="-1.49979">
        <ele>546.86</ele>
        <time>2025-05-25T15:42:18.405Z</time>
      </trkpt>
      <trkpt lat="43.2324" lon="-1.49957">
        <ele>546.74</ele>
        <time>2025-05-25T15:42:20.102Z</time>
      </trkpt>
      <trkpt lat="43.23262" lon="-1.49939">
        <ele>546.76</ele>
        <time>2025-05-25T15:42:21.807Z</time>
      </trkpt>
      <trkpt lat="43.23283" lon="-1.49921">
        <ele>547.1</ele>
        <time>2025-05-25T15:42:23.521Z</time>
      </trkpt>
      <trkpt lat="43.23294" lon="-1.49905">
        <ele>547.7</ele>
        <time>2025-05-25T15:42:25.240Z</time>
      </trkpt>
      <trkpt lat="43.23303" lon="-1.49884">
        <ele>548.52</ele>
        <time>2025-05-25T15:42:26.965Z</time>
      </trkpt>
      <trkpt lat="43.2332" lon="-1.4988">
        <ele>549.38</ele>
        <time>2025-05-25T15:42:28.696Z</time>
      </trkpt>
      <trkpt lat="43.23345" lon="-1.49882">
        <ele>550.56</ele>
        <time>2025-05-25T15:42:30.435Z</time>
      </trkpt>
      <trkpt lat="43.23345" lon="-1.49869">
        <ele>551.84</ele>
        <time>2025-05-25T15:42:32.178Z</time>
      </trkpt>
      <trkpt lat="43.2335" lon="-1.49867">
        <ele>553.27</ele>
        <time>2025-05-25T15:42:33.922Z</time>
      </trkpt>
      <trkpt lat="43.2337" lon="-1.49861">
        <ele>554.98</ele>
        <time>2025-05-25T15:42:35.673Z</time>
      </trkpt>
      <trkpt lat="43.23391" lon="-1.49855">
        <ele>556.75</ele>
        <time>2025-05-25T15:42:37.431Z</time>
      </trkpt>
      <trkpt lat="43.23419" lon="-1.49847">
        <ele>560.5</ele>
        <time>2025-05-25T15:42:39.198Z</time>
      </trkpt>
      <trkpt lat="43.23446" lon="-1.49839">
        <ele>562.57</ele>
        <time>2025-05-25T15:42:40.975Z</time>
      </trkpt>
      <trkpt lat="43.23466" lon="-1.49824">
        <ele>564.64</ele>
        <time>2025-05-25T15:42:42.759Z</time>
      </trkpt>
      <trkpt lat="43.23483" lon="-1.49805">
        <ele>566.73</ele>
        <time>2025-05-25T15:42:44.551Z</time>
      </trkpt>
      <trkpt lat="43.235" lon="-1.49785">
        <ele>568.73</ele>
        <time>2025-05-25T15:42:46.350Z</time>
      </trkpt>
      <trkpt lat="43.23518" lon="-1.49768">
        <ele>570.43</ele>
        <time>2025-05-25T15:42:48.156Z</time>
      </trkpt>
      <trkpt lat="43.23536" lon="-1.49751">
        <ele>571.81</ele>
        <time>2025-05-25T15:42:49.970Z</time>
      </trkpt>
      <trkpt lat="43.23554" lon="-1.49734">
        <ele>572.97</ele>
        <time>2025-05-25T15:42:51.791Z</time>
      </trkpt>
      <trkpt lat="43.23567" lon="-1.49696">
        <ele>573.84</ele>
        <time>2025-05-25T15:42:53.622Z</time>
      </trkpt>
      <trkpt lat="43.23579" lon="-1.49659">
        <ele>574.98</ele>
        <time>2025-05-25T15:42:55.463Z</time>
      </trkpt>
      <trkpt lat="43.23583" lon="-1.49618">
        <ele>575.8</ele>
        <time>2025-05-25T15:42:57.314Z</time>
      </trkpt>
      <trkpt lat="43.23586" lon="-1.49577">
        <ele>576.51</ele>
        <time>2025-05-25T15:42:59.175Z</time>
      </trkpt>
      <trkpt lat="43.23597" lon="-1.49539">
        <ele>577.04</ele>
        <time>2025-05-25T15:43:01.046Z</time>
      </trkpt>
      <trkpt lat="43.23607" lon="-1.49512">
        <ele>577.69</ele>
        <time>2025-05-25T15:43:02.925Z</time>
      </trkpt>
      <trkpt lat="43.23618" lon="-1.49485">
        <ele>578.49</ele>
        <time>2025-05-25T15:43:04.811Z</time>
      </trkpt>
      <trkpt lat="43.23633" lon="-1.49466">
        <ele>579.48</ele>
        <time>2025-05-25T15:43:06.704Z</time>
      </trkpt>
      <trkpt lat="43.23648" lon="-1.49446">
        <ele>580.36</ele>
        <time>2025-05-25T15:43:08.604Z</time>
      </trkpt>
      <trkpt lat="43.23654" lon="-1.4945">
        <ele>580.85</ele>
        <time>2025-05-25T15:43:10.506Z</time>
      </trkpt>
      <trkpt lat="43.23662" lon="-1.49453">
        <ele>575.86</ele>
        <time>2025-05-07T15:59:05.836Z</time>
      </trkpt>
      <trkpt lat="43.23667" lon="-1.49456">
        <ele>575.33</ele>
        <time>2025-05-07T15:59:10.844Z</time>
      </trkpt>
      <trkpt lat="43.23673" lon="-1.49462">
        <ele>574.78</ele>
        <time>2025-05-07T15:59:15.854Z</time>
      </trkpt>
      <trkpt lat="43.23677" lon="-1.4947">
        <ele>574.23</ele>
        <time>2025-05-07T15:59:20.867Z</time>
      </trkpt>
      <trkpt lat="43.23685" lon="-1.4948">
        <ele>573.64</ele>
        <time>2025-05-07T15:59:25.883Z</time>
      </trkpt>
      <trkpt lat="43.23691" lon="-1.49488">
        <ele>573.01</ele>
        <time>2025-05-07T15:59:30.902Z</time>
      </trkpt>
      <trkpt lat="43.23694" lon="-1.49493">
        <ele>572.43</ele>
        <time>2025-05-07T15:59:35.923Z</time>
      </trkpt>
      <trkpt lat="43.23695" lon="-1.49493">
        <ele>571.88</ele>
        <time>2025-05-07T15:59:40.944Z</time>
      </trkpt>
      <trkpt lat="43.23695" lon="-1.49494">
        <ele>571.34</ele>
        <time>2025-05-07T15:59:45.965Z</time>
      </trkpt>
      <trkpt lat="43.23698" lon="-1.49493">
        <ele>570.76</ele>
        <time>2025-05-07T15:59:50.987Z</time>
      </trkpt>
      <trkpt lat="43.23703" lon="-1.49496">
        <ele>570.15</ele>
        <time>2025-05-07T15:59:56.011Z</time>
      </trkpt>
      <trkpt lat="43.23704" lon="-1.49495">
        <ele>569.59</ele>
        <time>2025-05-07T16:00:01.035Z</time>
      </trkpt>
      <trkpt lat="43.2371" lon="-1.49471">
        <ele>569.03</ele>
        <time>2025-05-07T16:00:06.066Z</time>
      </trkpt>
      <trkpt lat="43.23723" lon="-1.49453">
        <ele>568.42</ele>
        <time>2025-05-07T16:00:11.103Z</time>
      </trkpt>
      <trkpt lat="43.23738" lon="-1.4944">
        <ele>567.79</ele>
        <time>2025-05-07T16:00:16.146Z</time>
      </trkpt>
      <trkpt lat="43.23741" lon="-1.49435">
        <ele>567.23</ele>
        <time>2025-05-07T16:00:21.190Z</time>
      </trkpt>
      <trkpt lat="43.23742" lon="-1.49432">
        <ele>566.69</ele>
        <time>2025-05-07T16:00:26.235Z</time>
      </trkpt>
      <trkpt lat="43.23747" lon="-1.49423">
        <ele>566.12</ele>
        <time>2025-05-07T16:00:31.283Z</time>
      </trkpt>
      <trkpt lat="43.2375" lon="-1.49417">
        <ele>565.55</ele>
        <time>2025-05-07T16:00:36.333Z</time>
      </trkpt>
      <trkpt lat="43.23753" lon="-1.49408">
        <ele>564.99</ele>
        <time>2025-05-07T16:00:41.385Z</time>
      </trkpt>
      <trkpt lat="43.23757" lon="-1.49398">
        <ele>564.41</ele>
        <time>2025-05-07T16:00:46.440Z</time>
      </trkpt>
      <trkpt lat="43.23759" lon="-1.49388">
        <ele>563.84</ele>
        <time>2025-05-07T16:00:51.497Z</time>
      </trkpt>
      <trkpt lat="43.23761" lon="-1.4938">
        <ele>563.24</ele>
        <time>2025-05-07T16:00:56.556Z</time>
      </trkpt>
      <trkpt lat="43.23764" lon="-1.49369">
        <ele>562.62</ele>
        <time>2025-05-07T16:01:01.618Z</time>
      </trkpt>
      <trkpt lat="43.23765" lon="-1.49356">
        <ele>562</ele>
        <time>2025-05-07T16:01:06.683Z</time>
      </trkpt>
      <trkpt lat="43.23765" lon="-1.49351">
        <ele>561.37</ele>
        <time>2025-05-07T16:01:11.750Z</time>
      </trkpt>
      <trkpt lat="43.23766" lon="-1.49345">
        <ele>560.71</ele>
        <time>2025-05-07T16:01:16.818Z</time>
      </trkpt>
      <trkpt lat="43.23768" lon="-1.49342">
        <ele>560.01</ele>
        <time>2025-05-07T16:01:21.887Z</time>
      </trkpt>
      <trkpt lat="43.23768" lon="-1.49341">
        <ele>559.31</ele>
        <time>2025-05-07T16:01:26.956Z</time>
      </trkpt>
      <trkpt lat="43.23769" lon="-1.4934">
        <ele>558.56</ele>
        <time>2025-05-07T16:01:32.026Z</time>
      </trkpt>
      <trkpt lat="43.23772" lon="-1.49339">
        <ele>557.75</ele>
        <time>2025-05-07T16:01:37.097Z</time>
      </trkpt>
      <trkpt lat="43.23774" lon="-1.49339">
        <ele>556.91</ele>
        <time>2025-05-07T16:01:42.168Z</time>
      </trkpt>
      <trkpt lat="43.23778" lon="-1.4934">
        <ele>556</ele>
        <time>2025-05-07T16:01:47.241Z</time>
      </trkpt>
      <trkpt lat="43.23781" lon="-1.49334">
        <ele>555.07</ele>
        <time>2025-05-07T16:01:52.316Z</time>
      </trkpt>
      <trkpt lat="43.23783" lon="-1.49327">
        <ele>554.1</ele>
        <time>2025-05-07T16:01:57.392Z</time>
      </trkpt>
      <trkpt lat="43.23783" lon="-1.4932">
        <ele>553.11</ele>
        <time>2025-05-07T16:02:02.470Z</time>
      </trkpt>
      <trkpt lat="43.23783" lon="-1.49313">
        <ele>552.07</ele>
        <time>2025-05-07T16:02:07.550Z</time>
      </trkpt>
      <trkpt lat="43.23786" lon="-1.49303">
        <ele>550.95</ele>
        <time>2025-05-07T16:02:12.633Z</time>
      </trkpt>
      <trkpt lat="43.23789" lon="-1.49297">
        <ele>549.81</ele>
        <time>2025-05-07T16:02:17.717Z</time>
      </trkpt>
      <trkpt lat="43.23793" lon="-1.49294">
        <ele>548.6</ele>
        <time>2025-05-07T16:02:22.803Z</time>
      </trkpt>
      <trkpt lat="43.23799" lon="-1.49291">
        <ele>547.32</ele>
        <time>2025-05-07T16:02:27.891Z</time>
      </trkpt>
      <trkpt lat="43.23806" lon="-1.49289">
        <ele>545.95</ele>
        <time>2025-05-07T16:02:32.981Z</time>
      </trkpt>
      <trkpt lat="43.2381" lon="-1.49288">
        <ele>544.6</ele>
        <time>2025-05-07T16:02:38.073Z</time>
      </trkpt>
      <trkpt lat="43.23815" lon="-1.49285">
        <ele>543.19</ele>
        <time>2025-05-07T16:02:43.166Z</time>
      </trkpt>
      <trkpt lat="43.23821" lon="-1.49283">
        <ele>541.74</ele>
        <time>2025-05-07T16:02:48.262Z</time>
      </trkpt>
      <trkpt lat="43.23823" lon="-1.4928">
        <ele>540.33</ele>
        <time>2025-05-07T16:02:53.359Z</time>
      </trkpt>
      <trkpt lat="43.23826" lon="-1.49277">
        <ele>538.9</ele>
        <time>2025-05-07T16:02:58.457Z</time>
      </trkpt>
      <trkpt lat="43.23835" lon="-1.49265">
        <ele>537.38</ele>
        <time>2025-05-07T16:03:03.559Z</time>
      </trkpt>
      <trkpt lat="43.23839" lon="-1.49263">
        <ele>535.89</ele>
        <time>2025-05-07T16:03:08.662Z</time>
      </trkpt>
      <trkpt lat="43.23842" lon="-1.49263">
        <ele>534.42</ele>
        <time>2025-05-07T16:03:13.766Z</time>
      </trkpt>
      <trkpt lat="43.23845" lon="-1.49264">
        <ele>532.93</ele>
        <time>2025-05-07T16:03:18.871Z</time>
      </trkpt>
      <trkpt lat="43.2385" lon="-1.49265">
        <ele>531.42</ele>
        <time>2025-05-07T16:03:23.978Z</time>
      </trkpt>
      <trkpt lat="43.23853" lon="-1.49275">
        <ele>529.94</ele>
        <time>2025-05-07T16:03:29.088Z</time>
      </trkpt>
      <trkpt lat="43.23859" lon="-1.49278">
        <ele>528.39</ele>
        <time>2025-05-07T16:03:34.200Z</time>
      </trkpt>
      <trkpt lat="43.23862" lon="-1.49278">
        <ele>526.91</ele>
        <time>2025-05-07T16:03:39.313Z</time>
      </trkpt>
      <trkpt lat="43.23866" lon="-1.49278">
        <ele>525.42</ele>
        <time>2025-05-07T16:03:44.427Z</time>
      </trkpt>
      <trkpt lat="43.23872" lon="-1.4928">
        <ele>523.9</ele>
        <time>2025-05-07T16:03:49.543Z</time>
      </trkpt>
      <trkpt lat="43.23877" lon="-1.49281">
        <ele>522.43</ele>
        <time>2025-05-07T16:03:54.661Z</time>
      </trkpt>
      <trkpt lat="43.23883" lon="-1.49279">
        <ele>520.95</ele>
        <time>2025-05-07T16:03:59.781Z</time>
      </trkpt>
      <trkpt lat="43.23888" lon="-1.49279">
        <ele>519.51</ele>
        <time>2025-05-07T16:04:04.903Z</time>
      </trkpt>
      <trkpt lat="43.23893" lon="-1.49278">
        <ele>518.1</ele>
        <time>2025-05-07T16:04:10.026Z</time>
      </trkpt>
      <trkpt lat="43.23897" lon="-1.49275">
        <ele>516.71</ele>
        <time>2025-05-07T16:04:15.151Z</time>
      </trkpt>
      <trkpt lat="43.23899" lon="-1.4927">
        <ele>515.38</ele>
        <time>2025-05-07T16:04:20.277Z</time>
      </trkpt>
      <trkpt lat="43.23899" lon="-1.49264">
        <ele>514.11</ele>
        <time>2025-05-07T16:04:25.405Z</time>
      </trkpt>
      <trkpt lat="43.23898" lon="-1.49255">
        <ele>512.89</ele>
        <time>2025-05-07T16:04:30.535Z</time>
      </trkpt>
      <trkpt lat="43.23898" lon="-1.49248">
        <ele>511.7</ele>
        <time>2025-05-07T16:04:35.667Z</time>
      </trkpt>
      <trkpt lat="43.23898" lon="-1.49241">
        <ele>510.52</ele>
        <time>2025-05-07T16:04:40.800Z</time>
      </trkpt>
      <trkpt lat="43.23897" lon="-1.49234">
        <ele>509.39</ele>
        <time>2025-05-07T16:04:45.935Z</time>
      </trkpt>
      <trkpt lat="43.2389" lon="-1.49221">
        <ele>508.41</ele>
        <time>2025-05-07T16:04:51.074Z</time>
      </trkpt>
      <trkpt lat="43.23884" lon="-1.49211">
        <ele>507.41</ele>
        <time>2025-05-07T16:04:56.216Z</time>
      </trkpt>
      <trkpt lat="43.23882" lon="-1.49201">
        <ele>506.33</ele>
        <time>2025-05-07T16:05:01.361Z</time>
      </trkpt>
      <trkpt lat="43.23882" lon="-1.49193">
        <ele>505.26</ele>
        <time>2025-05-07T16:05:06.508Z</time>
      </trkpt>
      <trkpt lat="43.23885" lon="-1.49185">
        <ele>504.15</ele>
        <time>2025-05-07T16:05:11.657Z</time>
      </trkpt>
      <trkpt lat="43.23888" lon="-1.49179">
        <ele>503.08</ele>
        <time>2025-05-07T16:05:16.808Z</time>
      </trkpt>
      <trkpt lat="43.23889" lon="-1.49173">
        <ele>502.09</ele>
        <time>2025-05-07T16:05:21.960Z</time>
      </trkpt>
      <trkpt lat="43.23889" lon="-1.49168">
        <ele>501.15</ele>
        <time>2025-05-07T16:05:27.113Z</time>
      </trkpt>
      <trkpt lat="43.2389" lon="-1.49163">
        <ele>500.24</ele>
        <time>2025-05-07T16:05:32.268Z</time>
      </trkpt>
      <trkpt lat="43.23892" lon="-1.49158">
        <ele>499.34</ele>
        <time>2025-05-07T16:05:37.424Z</time>
      </trkpt>
      <trkpt lat="43.23894" lon="-1.49153">
        <ele>498.46</ele>
        <time>2025-05-07T16:05:42.581Z</time>
      </trkpt>
      <trkpt lat="43.23895" lon="-1.49147">
        <ele>497.63</ele>
        <time>2025-05-07T16:05:47.740Z</time>
      </trkpt>
      <trkpt lat="43.23898" lon="-1.49143">
        <ele>496.78</ele>
        <time>2025-05-07T16:05:52.900Z</time>
      </trkpt>
      <trkpt lat="43.23899" lon="-1.49143">
        <ele>496</ele>
        <time>2025-05-07T16:05:58.061Z</time>
      </trkpt>
      <trkpt lat="43.23903" lon="-1.49149">
        <ele>495.22</ele>
        <time>2025-05-07T16:06:03.224Z</time>
      </trkpt>
      <trkpt lat="43.23907" lon="-1.49158">
        <ele>494.45</ele>
        <time>2025-05-07T16:06:08.389Z</time>
      </trkpt>
      <trkpt lat="43.2391" lon="-1.49159">
        <ele>493.68</ele>
        <time>2025-05-07T16:06:13.555Z</time>
      </trkpt>
      <trkpt lat="43.23913" lon="-1.49159">
        <ele>492.94</ele>
        <time>2025-05-07T16:06:18.722Z</time>
      </trkpt>
      <trkpt lat="43.23915" lon="-1.49156">
        <ele>492.2</ele>
        <time>2025-05-07T16:06:23.890Z</time>
      </trkpt>
      <trkpt lat="43.23916" lon="-1.49152">
        <ele>491.48</ele>
        <time>2025-05-07T16:06:29.059Z</time>
      </trkpt>
      <trkpt lat="43.23917" lon="-1.49144">
        <ele>490.75</ele>
        <time>2025-05-07T16:06:34.230Z</time>
      </trkpt>
      <trkpt lat="43.23919" lon="-1.49129">
        <ele>490.01</ele>
        <time>2025-05-07T16:06:39.405Z</time>
      </trkpt>
      <trkpt lat="43.23911" lon="-1.49108">
        <ele>489.43</ele>
        <time>2025-05-07T16:06:44.586Z</time>
      </trkpt>
      <trkpt lat="43.23907" lon="-1.49104">
        <ele>488.78</ele>
        <time>2025-05-07T16:06:49.768Z</time>
      </trkpt>
      <trkpt lat="43.23903" lon="-1.49088">
        <ele>488.19</ele>
        <time>2025-05-07T16:06:54.954Z</time>
      </trkpt>
      <trkpt lat="43.23906" lon="-1.49088">
        <ele>487.37</ele>
        <time>2025-05-07T16:07:00.141Z</time>
      </trkpt>
      <trkpt lat="43.23907" lon="-1.49088">
        <ele>486.54</ele>
        <time>2025-05-07T16:07:05.329Z</time>
      </trkpt>
      <trkpt lat="43.23926" lon="-1.49086">
        <ele>485.54</ele>
        <time>2025-05-07T16:07:10.523Z</time>
      </trkpt>
      <trkpt lat="43.23944" lon="-1.49079">
        <ele>484.58</ele>
        <time>2025-05-07T16:07:15.723Z</time>
      </trkpt>
      <trkpt lat="43.23946" lon="-1.49079">
        <ele>483.65</ele>
        <time>2025-05-07T16:07:20.924Z</time>
      </trkpt>
      <trkpt lat="43.23951" lon="-1.49077">
        <ele>482.69</ele>
        <time>2025-05-07T16:07:26.127Z</time>
      </trkpt>
      <trkpt lat="43.23965" lon="-1.49076">
        <ele>481.61</ele>
        <time>2025-05-07T16:07:31.334Z</time>
      </trkpt>
      <trkpt lat="43.23975" lon="-1.49083">
        <ele>480.49</ele>
        <time>2025-05-07T16:07:36.545Z</time>
      </trkpt>
      <trkpt lat="43.23983" lon="-1.49094">
        <ele>479.36</ele>
        <time>2025-05-07T16:07:41.760Z</time>
      </trkpt>
      <trkpt lat="43.23985" lon="-1.491">
        <ele>478.27</ele>
        <time>2025-05-07T16:07:46.977Z</time>
      </trkpt>
      <trkpt lat="43.23989" lon="-1.49107">
        <ele>477.13</ele>
        <time>2025-05-07T16:07:52.196Z</time>
      </trkpt>
      <trkpt lat="43.23996" lon="-1.49116">
        <ele>475.96</ele>
        <time>2025-05-07T16:07:57.418Z</time>
      </trkpt>
      <trkpt lat="43.24007" lon="-1.49126">
        <ele>474.73</ele>
        <time>2025-05-07T16:08:02.644Z</time>
      </trkpt>
      <trkpt lat="43.24016" lon="-1.49132">
        <ele>473.55</ele>
        <time>2025-05-07T16:08:07.874Z</time>
      </trkpt>
      <trkpt lat="43.24027" lon="-1.49145">
        <ele>472.33</ele>
        <time>2025-05-07T16:08:13.108Z</time>
      </trkpt>
      <trkpt lat="43.24043" lon="-1.49156">
        <ele>471.17</ele>
        <time>2025-05-07T16:08:18.348Z</time>
      </trkpt>
      <trkpt lat="43.24045" lon="-1.49156">
        <ele>470.07</ele>
        <time>2025-05-07T16:08:23.589Z</time>
      </trkpt>
      <trkpt lat="43.24051" lon="-1.49155">
        <ele>468.99</ele>
        <time>2025-05-07T16:08:28.832Z</time>
      </trkpt>
      <trkpt lat="43.24058" lon="-1.49153">
        <ele>467.91</ele>
        <time>2025-05-07T16:08:34.078Z</time>
      </trkpt>
      <trkpt lat="43.24069" lon="-1.49153">
        <ele>466.83</ele>
        <time>2025-05-07T16:08:39.327Z</time>
      </trkpt>
      <trkpt lat="43.24088" lon="-1.49155">
        <ele>465.74</ele>
        <time>2025-05-07T16:08:44.583Z</time>
      </trkpt>
      <trkpt lat="43.24091" lon="-1.49155">
        <ele>464.72</ele>
        <time>2025-05-07T16:08:49.840Z</time>
      </trkpt>
      <trkpt lat="43.24104" lon="-1.49155">
        <ele>463.7</ele>
        <time>2025-05-07T16:08:55.101Z</time>
      </trkpt>
      <trkpt lat="43.24118" lon="-1.49151">
        <ele>462.68</ele>
        <time>2025-05-07T16:09:00.367Z</time>
      </trkpt>
      <trkpt lat="43.24122" lon="-1.4915">
        <ele>461.72</ele>
        <time>2025-05-07T16:09:05.634Z</time>
      </trkpt>
      <trkpt lat="43.24132" lon="-1.49153">
        <ele>460.71</ele>
        <time>2025-05-07T16:09:10.904Z</time>
      </trkpt>
      <trkpt lat="43.2414" lon="-1.4915">
        <ele>459.79</ele>
        <time>2025-05-07T16:09:16.177Z</time>
      </trkpt>
      <trkpt lat="43.24157" lon="-1.49138">
        <ele>458.9</ele>
        <time>2025-05-07T16:09:21.457Z</time>
      </trkpt>
      <trkpt lat="43.24165" lon="-1.49126">
        <ele>458.17</ele>
        <time>2025-05-07T16:09:26.741Z</time>
      </trkpt>
      <trkpt lat="43.2417" lon="-1.49121">
        <ele>457.46</ele>
        <time>2025-05-07T16:09:32.027Z</time>
      </trkpt>
      <trkpt lat="43.24176" lon="-1.49117">
        <ele>456.79</ele>
        <time>2025-05-07T16:09:37.315Z</time>
      </trkpt>
      <trkpt lat="43.24194" lon="-1.49117">
        <ele>456.12</ele>
        <time>2025-05-07T16:09:42.609Z</time>
      </trkpt>
      <trkpt lat="43.24198" lon="-1.49118">
        <ele>455.55</ele>
        <time>2025-05-07T16:09:47.904Z</time>
      </trkpt>
      <trkpt lat="43.24208" lon="-1.49121">
        <ele>455.01</ele>
        <time>2025-05-07T16:09:53.203Z</time>
      </trkpt>
      <trkpt lat="43.24225" lon="-1.49131">
        <ele>454.46</ele>
        <time>2025-05-07T16:09:58.508Z</time>
      </trkpt>
      <trkpt lat="43.24227" lon="-1.49131">
        <ele>454.09</ele>
        <time>2025-05-07T16:10:03.813Z</time>
      </trkpt>
      <trkpt lat="43.24231" lon="-1.49127">
        <ele>453.8</ele>
        <time>2025-05-07T16:10:09.120Z</time>
      </trkpt>
      <trkpt lat="43.24228" lon="-1.49133">
        <ele>453.54</ele>
        <time>2025-05-07T16:10:14.429Z</time>
      </trkpt>
      <trkpt lat="43.24229" lon="-1.49137">
        <ele>453.36</ele>
        <time>2025-05-07T16:10:19.739Z</time>
      </trkpt>
      <trkpt lat="43.24236" lon="-1.4916">
        <ele>453.15</ele>
        <time>2025-05-07T16:10:25.055Z</time>
      </trkpt>
      <trkpt lat="43.24238" lon="-1.49182">
        <ele>453.11</ele>
        <time>2025-05-07T16:10:30.376Z</time>
      </trkpt>
      <trkpt lat="43.24236" lon="-1.49202">
        <ele>453.18</ele>
        <time>2025-05-07T16:10:35.702Z</time>
      </trkpt>
      <trkpt lat="43.24238" lon="-1.49221">
        <ele>453.41</ele>
        <time>2025-05-07T16:10:41.033Z</time>
      </trkpt>
      <trkpt lat="43.24242" lon="-1.49241">
        <ele>453.67</ele>
        <time>2025-05-07T16:10:46.369Z</time>
      </trkpt>
      <trkpt lat="43.24247" lon="-1.49256">
        <ele>454.01</ele>
        <time>2025-05-07T16:10:51.709Z</time>
      </trkpt>
      <trkpt lat="43.24262" lon="-1.49274">
        <ele>454.48</ele>
        <time>2025-05-07T16:10:57.056Z</time>
      </trkpt>
      <trkpt lat="43.24266" lon="-1.49279">
        <ele>454.95</ele>
        <time>2025-05-07T16:11:02.404Z</time>
      </trkpt>
      <trkpt lat="43.24281" lon="-1.49297">
        <ele>455.62</ele>
        <time>2025-05-07T16:11:07.759Z</time>
      </trkpt>
      <trkpt lat="43.24282" lon="-1.49306">
        <ele>456.2</ele>
        <time>2025-05-07T16:11:13.116Z</time>
      </trkpt>
      <trkpt lat="43.24281" lon="-1.4931">
        <ele>456.84</ele>
        <time>2025-05-07T16:11:18.474Z</time>
      </trkpt>
      <trkpt lat="43.24279" lon="-1.49317">
        <ele>457.53</ele>
        <time>2025-05-07T16:11:23.834Z</time>
      </trkpt>
      <trkpt lat="43.24277" lon="-1.4932">
        <ele>458.28</ele>
        <time>2025-05-07T16:11:29.195Z</time>
      </trkpt>
      <trkpt lat="43.24276" lon="-1.49329">
        <ele>459.1</ele>
        <time>2025-05-07T16:11:34.558Z</time>
      </trkpt>
      <trkpt lat="43.24279" lon="-1.49341">
        <ele>459.99</ele>
        <time>2025-05-07T16:11:39.924Z</time>
      </trkpt>
      <trkpt lat="43.24279" lon="-1.49352">
        <ele>460.9</ele>
        <time>2025-05-07T16:11:45.293Z</time>
      </trkpt>
      <trkpt lat="43.24284" lon="-1.49356">
        <ele>461.93</ele>
        <time>2025-05-07T16:11:50.664Z</time>
      </trkpt>
      <trkpt lat="43.24286" lon="-1.49355">
        <ele>462.98</ele>
        <time>2025-05-07T16:11:56.036Z</time>
      </trkpt>
      <trkpt lat="43.24288" lon="-1.49352">
        <ele>464.07</ele>
        <time>2025-05-07T16:12:01.409Z</time>
      </trkpt>
      <trkpt lat="43.24289" lon="-1.49349">
        <ele>465.18</ele>
        <time>2025-05-07T16:12:06.783Z</time>
      </trkpt>
      <trkpt lat="43.2429" lon="-1.49346">
        <ele>466.34</ele>
        <time>2025-05-07T16:12:12.157Z</time>
      </trkpt>
      <trkpt lat="43.24293" lon="-1.49341">
        <ele>467.54</ele>
        <time>2025-05-07T16:12:17.533Z</time>
      </trkpt>
      <trkpt lat="43.24296" lon="-1.49337">
        <ele>468.77</ele>
        <time>2025-05-07T16:12:22.910Z</time>
      </trkpt>
      <trkpt lat="43.24304" lon="-1.49328">
        <ele>470.13</ele>
        <time>2025-05-07T16:12:28.291Z</time>
      </trkpt>
      <trkpt lat="43.24312" lon="-1.49317">
        <ele>471.52</ele>
        <time>2025-05-07T16:12:33.676Z</time>
      </trkpt>
      <trkpt lat="43.24324" lon="-1.49307">
        <ele>473.01</ele>
        <time>2025-05-07T16:12:39.065Z</time>
      </trkpt>
      <trkpt lat="43.24334" lon="-1.49292">
        <ele>474.36</ele>
        <time>2025-05-07T16:12:44.459Z</time>
      </trkpt>
      <trkpt lat="43.24342" lon="-1.49278">
        <ele>475.67</ele>
        <time>2025-05-07T16:12:49.858Z</time>
      </trkpt>
      <trkpt lat="43.24344" lon="-1.49268">
        <ele>476.86</ele>
        <time>2025-05-07T16:12:55.259Z</time>
      </trkpt>
      <trkpt lat="43.24346" lon="-1.49263">
        <ele>478.07</ele>
        <time>2025-05-07T16:13:00.661Z</time>
      </trkpt>
      <trkpt lat="43.24349" lon="-1.49256">
        <ele>479.24</ele>
        <time>2025-05-07T16:13:06.065Z</time>
      </trkpt>
      <trkpt lat="43.24351" lon="-1.49246">
        <ele>480.37</ele>
        <time>2025-05-07T16:13:11.472Z</time>
      </trkpt>
      <trkpt lat="43.24353" lon="-1.49242">
        <ele>481.49</ele>
        <time>2025-05-07T16:13:16.880Z</time>
      </trkpt>
      <trkpt lat="43.24354" lon="-1.49238">
        <ele>482.56</ele>
        <time>2025-05-07T16:13:22.289Z</time>
      </trkpt>
      <trkpt lat="43.24354" lon="-1.49238">
        <ele>483.61</ele>
        <time>2025-05-07T16:13:27.698Z</time>
      </trkpt>
      <trkpt lat="43.24361" lon="-1.49231">
        <ele>484.65</ele>
        <time>2025-05-07T16:13:33.110Z</time>
      </trkpt>
      <trkpt lat="43.24371" lon="-1.49224">
        <ele>485.69</ele>
        <time>2025-05-07T16:13:38.526Z</time>
      </trkpt>
      <trkpt lat="43.24389" lon="-1.49216">
        <ele>486.75</ele>
        <time>2025-05-07T16:13:43.948Z</time>
      </trkpt>
      <trkpt lat="43.2439" lon="-1.49216">
        <ele>487.65</ele>
        <time>2025-05-07T16:13:49.370Z</time>
      </trkpt>
      <trkpt lat="43.24407" lon="-1.49206">
        <ele>488.6</ele>
        <time>2025-05-07T16:13:54.799Z</time>
      </trkpt>
      <trkpt lat="43.24409" lon="-1.49206">
        <ele>489.41</ele>
        <time>2025-05-07T16:14:00.228Z</time>
      </trkpt>
      <trkpt lat="43.24424" lon="-1.49194">
        <ele>490.12</ele>
        <time>2025-05-07T16:14:05.663Z</time>
      </trkpt>
      <trkpt lat="43.24438" lon="-1.49188">
        <ele>490.83</ele>
        <time>2025-05-07T16:14:11.103Z</time>
      </trkpt>
      <trkpt lat="43.24456" lon="-1.49179">
        <ele>491.49</ele>
        <time>2025-05-07T16:14:16.549Z</time>
      </trkpt>
      <trkpt lat="43.24471" lon="-1.49168">
        <ele>492.06</ele>
        <time>2025-05-07T16:14:22.001Z</time>
      </trkpt>
      <trkpt lat="43.24486" lon="-1.49153">
        <ele>492.48</ele>
        <time>2025-05-07T16:14:27.459Z</time>
      </trkpt>
      <trkpt lat="43.2449" lon="-1.49149">
        <ele>492.88</ele>
        <time>2025-05-07T16:14:32.919Z</time>
      </trkpt>
      <trkpt lat="43.24502" lon="-1.49136">
        <ele>493.17</ele>
        <time>2025-05-07T16:14:38.384Z</time>
      </trkpt>
      <trkpt lat="43.24519" lon="-1.49125">
        <ele>493.52</ele>
        <time>2025-05-07T16:14:43.855Z</time>
      </trkpt>
      <trkpt lat="43.24529" lon="-1.49123">
        <ele>493.81</ele>
        <time>2025-05-07T16:14:49.330Z</time>
      </trkpt>
      <trkpt lat="43.24549" lon="-1.49122">
        <ele>494.14</ele>
        <time>2025-05-07T16:14:54.811Z</time>
      </trkpt>
      <trkpt lat="43.24561" lon="-1.49122">
        <ele>494.25</ele>
        <time>2025-05-07T16:15:00.296Z</time>
      </trkpt>
      <trkpt lat="43.24579" lon="-1.49123">
        <ele>494.25</ele>
        <time>2025-05-07T16:15:05.787Z</time>
      </trkpt>
      <trkpt lat="43.24597" lon="-1.4913">
        <ele>494.16</ele>
        <time>2025-05-07T16:15:11.285Z</time>
      </trkpt>
      <trkpt lat="43.24611" lon="-1.49141">
        <ele>493.94</ele>
        <time>2025-05-07T16:15:16.788Z</time>
      </trkpt>
      <trkpt lat="43.24626" lon="-1.49157">
        <ele>493.65</ele>
        <time>2025-05-07T16:15:22.297Z</time>
      </trkpt>
      <trkpt lat="43.24639" lon="-1.49174">
        <ele>493.39</ele>
        <time>2025-05-07T16:15:27.812Z</time>
      </trkpt>
      <trkpt lat="43.24651" lon="-1.49192">
        <ele>493.12</ele>
        <time>2025-05-07T16:15:33.333Z</time>
      </trkpt>
      <trkpt lat="43.24653" lon="-1.49197">
        <ele>492.81</ele>
        <time>2025-05-07T16:15:38.856Z</time>
      </trkpt>
      <trkpt lat="43.24659" lon="-1.49207">
        <ele>492.44</ele>
        <time>2025-05-07T16:15:44.382Z</time>
      </trkpt>
      <trkpt lat="43.2466" lon="-1.4921">
        <ele>492.01</ele>
        <time>2025-05-07T16:15:49.909Z</time>
      </trkpt>
      <trkpt lat="43.24661" lon="-1.49212">
        <ele>491.52</ele>
        <time>2025-05-07T16:15:55.436Z</time>
      </trkpt>
      <trkpt lat="43.24664" lon="-1.49218">
        <ele>490.98</ele>
        <time>2025-05-07T16:16:00.965Z</time>
      </trkpt>
      <trkpt lat="43.24668" lon="-1.49224">
        <ele>490.38</ele>
        <time>2025-05-07T16:16:06.496Z</time>
      </trkpt>
      <trkpt lat="43.2467" lon="-1.49224">
        <ele>489.67</ele>
        <time>2025-05-07T16:16:12.028Z</time>
      </trkpt>
      <trkpt lat="43.24673" lon="-1.49228">
        <ele>488.95</ele>
        <time>2025-05-07T16:16:17.561Z</time>
      </trkpt>
      <trkpt lat="43.24683" lon="-1.49238">
        <ele>488.13</ele>
        <time>2025-05-07T16:16:23.098Z</time>
      </trkpt>
      <trkpt lat="43.24702" lon="-1.49244">
        <ele>487.14</ele>
        <time>2025-05-07T16:16:28.642Z</time>
      </trkpt>
      <trkpt lat="43.24716" lon="-1.49248">
        <ele>486.17</ele>
        <time>2025-05-07T16:16:34.190Z</time>
      </trkpt>
      <trkpt lat="43.24729" lon="-1.49251">
        <ele>485.1</ele>
        <time>2025-05-07T16:16:39.743Z</time>
      </trkpt>
      <trkpt lat="43.24743" lon="-1.49258">
        <ele>484.04</ele>
        <time>2025-05-07T16:16:45.301Z</time>
      </trkpt>
      <trkpt lat="43.24755" lon="-1.49262">
        <ele>483</ele>
        <time>2025-05-07T16:16:50.863Z</time>
      </trkpt>
      <trkpt lat="43.24762" lon="-1.49265">
        <ele>481.96</ele>
        <time>2025-05-07T16:16:56.427Z</time>
      </trkpt>
      <trkpt lat="43.24767" lon="-1.49267">
        <ele>480.9</ele>
        <time>2025-05-07T16:17:01.993Z</time>
      </trkpt>
      <trkpt lat="43.24777" lon="-1.49269">
        <ele>479.77</ele>
        <time>2025-05-07T16:17:07.562Z</time>
      </trkpt>
      <trkpt lat="43.24788" lon="-1.49272">
        <ele>478.54</ele>
        <time>2025-05-07T16:17:13.135Z</time>
      </trkpt>
      <trkpt lat="43.24797" lon="-1.49277">
        <ele>477.32</ele>
        <time>2025-05-07T16:17:18.711Z</time>
      </trkpt>
      <trkpt lat="43.24809" lon="-1.49283">
        <ele>476.18</ele>
        <time>2025-05-07T16:17:24.292Z</time>
      </trkpt>
      <trkpt lat="43.24819" lon="-1.49289">
        <ele>475.02</ele>
        <time>2025-05-07T16:17:29.876Z</time>
      </trkpt>
      <trkpt lat="43.24828" lon="-1.49293">
        <ele>473.8</ele>
        <time>2025-05-07T16:17:35.463Z</time>
      </trkpt>
      <trkpt lat="43.24839" lon="-1.493">
        <ele>472.62</ele>
        <time>2025-05-07T16:17:41.054Z</time>
      </trkpt>
      <trkpt lat="43.24856" lon="-1.49308">
        <ele>471.41</ele>
        <time>2025-05-07T16:17:46.651Z</time>
      </trkpt>
      <trkpt lat="43.24873" lon="-1.49315">
        <ele>470.24</ele>
        <time>2025-05-07T16:17:52.254Z</time>
      </trkpt>
      <trkpt lat="43.24885" lon="-1.49319">
        <ele>468.95</ele>
        <time>2025-05-07T16:17:57.861Z</time>
      </trkpt>
      <trkpt lat="43.24902" lon="-1.49327">
        <ele>467.72</ele>
        <time>2025-05-07T16:18:03.474Z</time>
      </trkpt>
      <trkpt lat="43.24911" lon="-1.49334">
        <ele>466.52</ele>
        <time>2025-05-07T16:18:09.091Z</time>
      </trkpt>
      <trkpt lat="43.24922" lon="-1.49341">
        <ele>465.01</ele>
        <time>2025-05-07T16:18:14.712Z</time>
      </trkpt>
      <trkpt lat="43.24935" lon="-1.49346">
        <ele>463.52</ele>
        <time>2025-05-07T16:18:20.337Z</time>
      </trkpt>
      <trkpt lat="43.24947" lon="-1.49351">
        <ele>462.05</ele>
        <time>2025-05-07T16:18:25.967Z</time>
      </trkpt>
      <trkpt lat="43.24964" lon="-1.49361">
        <ele>460.73</ele>
        <time>2025-05-07T16:18:31.603Z</time>
      </trkpt>
      <trkpt lat="43.24969" lon="-1.49363">
        <ele>459.14</ele>
        <time>2025-05-07T16:18:37.241Z</time>
      </trkpt>
      <trkpt lat="43.24986" lon="-1.4937">
        <ele>457.28</ele>
        <time>2025-05-07T16:18:42.884Z</time>
      </trkpt>
      <trkpt lat="43.25" lon="-1.49375">
        <ele>455.66</ele>
        <time>2025-05-07T16:18:48.532Z</time>
      </trkpt>
      <trkpt lat="43.25017" lon="-1.49383">
        <ele>454.05</ele>
        <time>2025-05-07T16:18:54.186Z</time>
      </trkpt>
      <trkpt lat="43.25034" lon="-1.4939">
        <ele>452.28</ele>
        <time>2025-05-07T16:18:59.846Z</time>
      </trkpt>
      <trkpt lat="43.25051" lon="-1.49403">
        <ele>450.47</ele>
        <time>2025-05-07T16:19:05.513Z</time>
      </trkpt>
      <trkpt lat="43.25058" lon="-1.49407">
        <ele>448.76</ele>
        <time>2025-05-07T16:19:11.182Z</time>
      </trkpt>
      <trkpt lat="43.25063" lon="-1.49413">
        <ele>447.1</ele>
        <time>2025-05-07T16:19:16.853Z</time>
      </trkpt>
      <trkpt lat="43.25066" lon="-1.49417">
        <ele>445.48</ele>
        <time>2025-05-07T16:19:22.526Z</time>
      </trkpt>
      <trkpt lat="43.25067" lon="-1.49418">
        <ele>443.88</ele>
        <time>2025-05-07T16:19:28.199Z</time>
      </trkpt>
      <trkpt lat="43.25071" lon="-1.49421">
        <ele>442.23</ele>
        <time>2025-05-07T16:19:33.874Z</time>
      </trkpt>
      <trkpt lat="43.25075" lon="-1.49424">
        <ele>440.66</ele>
        <time>2025-05-07T16:19:39.550Z</time>
      </trkpt>
      <trkpt lat="43.25079" lon="-1.49429">
        <ele>439.12</ele>
        <time>2025-05-07T16:19:45.228Z</time>
      </trkpt>
      <trkpt lat="43.25086" lon="-1.49431">
        <ele>437.56</ele>
        <time>2025-05-07T16:19:50.908Z</time>
      </trkpt>
      <trkpt lat="43.25092" lon="-1.49436">
        <ele>436.09</ele>
        <time>2025-05-07T16:19:56.591Z</time>
      </trkpt>
      <trkpt lat="43.25098" lon="-1.49439">
        <ele>434.68</ele>
        <time>2025-05-07T16:20:02.276Z</time>
      </trkpt>
      <trkpt lat="43.25101" lon="-1.49442">
        <ele>433.38</ele>
        <time>2025-05-07T16:20:07.962Z</time>
      </trkpt>
      <trkpt lat="43.25104" lon="-1.49443">
        <ele>432.12</ele>
        <time>2025-05-07T16:20:13.649Z</time>
      </trkpt>
      <trkpt lat="43.25109" lon="-1.49448">
        <ele>430.91</ele>
        <time>2025-05-07T16:20:19.338Z</time>
      </trkpt>
      <trkpt lat="43.25112" lon="-1.49452">
        <ele>429.77</ele>
        <time>2025-05-07T16:20:25.029Z</time>
      </trkpt>
      <trkpt lat="43.25116" lon="-1.49456">
        <ele>428.68</ele>
        <time>2025-05-07T16:20:30.721Z</time>
      </trkpt>
      <trkpt lat="43.25121" lon="-1.49459">
        <ele>427.67</ele>
        <time>2025-05-07T16:20:36.415Z</time>
      </trkpt>
      <trkpt lat="43.25124" lon="-1.49465">
        <ele>426.77</ele>
        <time>2025-05-07T16:20:42.111Z</time>
      </trkpt>
      <trkpt lat="43.25127" lon="-1.4947">
        <ele>425.92</ele>
        <time>2025-05-07T16:20:47.808Z</time>
      </trkpt>
      <trkpt lat="43.2513" lon="-1.49474">
        <ele>425.09</ele>
        <time>2025-05-07T16:20:53.507Z</time>
      </trkpt>
      <trkpt lat="43.25133" lon="-1.49476">
        <ele>424.32</ele>
        <time>2025-05-07T16:20:59.207Z</time>
      </trkpt>
      <trkpt lat="43.25134" lon="-1.49476">
        <ele>423.56</ele>
        <time>2025-05-07T16:21:04.907Z</time>
      </trkpt>
      <trkpt lat="43.25139" lon="-1.4948">
        <ele>422.85</ele>
        <time>2025-05-07T16:21:10.609Z</time>
      </trkpt>
      <trkpt lat="43.25147" lon="-1.49485">
        <ele>422.15</ele>
        <time>2025-05-07T16:21:16.314Z</time>
      </trkpt>
      <trkpt lat="43.25157" lon="-1.49493">
        <ele>421.45</ele>
        <time>2025-05-07T16:21:22.023Z</time>
      </trkpt>
      <trkpt lat="43.25165" lon="-1.495">
        <ele>420.8</ele>
        <time>2025-05-07T16:21:27.735Z</time>
      </trkpt>
      <trkpt lat="43.25175" lon="-1.49506">
        <ele>420.16</ele>
        <time>2025-05-07T16:21:33.451Z</time>
      </trkpt>
      <trkpt lat="43.25182" lon="-1.49513">
        <ele>419.56</ele>
        <time>2025-05-07T16:21:39.170Z</time>
      </trkpt>
      <trkpt lat="43.25191" lon="-1.49521">
        <ele>418.96</ele>
        <time>2025-05-07T16:21:44.892Z</time>
      </trkpt>
      <trkpt lat="43.25204" lon="-1.49534">
        <ele>418.32</ele>
        <time>2025-05-07T16:21:50.620Z</time>
      </trkpt>
      <trkpt lat="43.25212" lon="-1.49542">
        <ele>417.74</ele>
        <time>2025-05-07T16:21:56.351Z</time>
      </trkpt>
      <trkpt lat="43.25223" lon="-1.4955">
        <ele>417.12</ele>
        <time>2025-05-07T16:22:02.086Z</time>
      </trkpt>
      <trkpt lat="43.2523" lon="-1.4954">
        <ele>416.43</ele>
        <time>2025-05-07T16:22:07.824Z</time>
      </trkpt>
      <trkpt lat="43.25231" lon="-1.49539">
        <ele>415.85</ele>
        <time>2025-05-07T16:22:13.563Z</time>
      </trkpt>
      <trkpt lat="43.25232" lon="-1.49539">
        <ele>415.28</ele>
        <time>2025-05-07T16:22:19.302Z</time>
      </trkpt>
      <trkpt lat="43.25248" lon="-1.49553">
        <ele>414.65</ele>
        <time>2025-05-07T16:22:25.048Z</time>
      </trkpt>
      <trkpt lat="43.25251" lon="-1.49556">
        <ele>414.07</ele>
        <time>2025-05-07T16:22:30.795Z</time>
      </trkpt>
      <trkpt lat="43.25257" lon="-1.49565">
        <ele>413.45</ele>
        <time>2025-05-07T16:22:36.545Z</time>
      </trkpt>
      <trkpt lat="43.25262" lon="-1.49574">
        <ele>412.85</ele>
        <time>2025-05-07T16:22:42.298Z</time>
      </trkpt>
      <trkpt lat="43.25268" lon="-1.49581">
        <ele>412.24</ele>
        <time>2025-05-07T16:22:48.053Z</time>
      </trkpt>
      <trkpt lat="43.25275" lon="-1.4959">
        <ele>411.59</ele>
        <time>2025-05-07T16:22:53.811Z</time>
      </trkpt>
      <trkpt lat="43.25286" lon="-1.49605">
        <ele>410.88</ele>
        <time>2025-05-07T16:22:59.575Z</time>
      </trkpt>
      <trkpt lat="43.25292" lon="-1.49613">
        <ele>410.22</ele>
        <time>2025-05-07T16:23:05.341Z</time>
      </trkpt>
      <trkpt lat="43.25299" lon="-1.49622">
        <ele>409.51</ele>
        <time>2025-05-07T16:23:11.111Z</time>
      </trkpt>
      <trkpt lat="43.25304" lon="-1.49632">
        <ele>408.84</ele>
        <time>2025-05-07T16:23:16.883Z</time>
      </trkpt>
      <trkpt lat="43.25308" lon="-1.49641">
        <ele>408.2</ele>
        <time>2025-05-07T16:23:22.658Z</time>
      </trkpt>
      <trkpt lat="43.25312" lon="-1.49649">
        <ele>407.53</ele>
        <time>2025-05-07T16:23:28.435Z</time>
      </trkpt>
      <trkpt lat="43.25319" lon="-1.49659">
        <ele>406.91</ele>
        <time>2025-05-07T16:23:34.216Z</time>
      </trkpt>
      <trkpt lat="43.25325" lon="-1.49664">
        <ele>406.3</ele>
        <time>2025-05-07T16:23:39.999Z</time>
      </trkpt>
      <trkpt lat="43.25329" lon="-1.49668">
        <ele>405.65</ele>
        <time>2025-05-07T16:23:45.784Z</time>
      </trkpt>
      <trkpt lat="43.25333" lon="-1.49673">
        <ele>404.96</ele>
        <time>2025-05-07T16:23:51.571Z</time>
      </trkpt>
      <trkpt lat="43.25336" lon="-1.49677">
        <ele>404.28</ele>
        <time>2025-05-07T16:23:57.359Z</time>
      </trkpt>
      <trkpt lat="43.25339" lon="-1.49681">
        <ele>403.59</ele>
        <time>2025-05-07T16:24:03.148Z</time>
      </trkpt>
      <trkpt lat="43.25342" lon="-1.49686">
        <ele>402.93</ele>
        <time>2025-05-07T16:24:08.939Z</time>
      </trkpt>
      <trkpt lat="43.25348" lon="-1.49694">
        <ele>402.26</ele>
        <time>2025-05-07T16:24:14.733Z</time>
      </trkpt>
      <trkpt lat="43.25353" lon="-1.49701">
        <ele>401.53</ele>
        <time>2025-05-07T16:24:20.529Z</time>
      </trkpt>
      <trkpt lat="43.25359" lon="-1.4971">
        <ele>400.75</ele>
        <time>2025-05-07T16:24:26.328Z</time>
      </trkpt>
      <trkpt lat="43.25363" lon="-1.49715">
        <ele>399.97</ele>
        <time>2025-05-07T16:24:32.129Z</time>
      </trkpt>
      <trkpt lat="43.25369" lon="-1.49723">
        <ele>399.22</ele>
        <time>2025-05-07T16:24:37.933Z</time>
      </trkpt>
      <trkpt lat="43.25371" lon="-1.49724">
        <ele>398.44</ele>
        <time>2025-05-07T16:24:43.737Z</time>
      </trkpt>
      <trkpt lat="43.25374" lon="-1.49725">
        <ele>397.62</ele>
        <time>2025-05-07T16:24:49.542Z</time>
      </trkpt>
      <trkpt lat="43.25377" lon="-1.49729">
        <ele>396.76</ele>
        <time>2025-05-07T16:24:55.349Z</time>
      </trkpt>
      <trkpt lat="43.25379" lon="-1.49731">
        <ele>395.89</ele>
        <time>2025-05-07T16:25:01.157Z</time>
      </trkpt>
      <trkpt lat="43.2538" lon="-1.49732">
        <ele>394.99</ele>
        <time>2025-05-07T16:25:06.965Z</time>
      </trkpt>
      <trkpt lat="43.25381" lon="-1.49733">
        <ele>394.05</ele>
        <time>2025-05-07T16:25:12.773Z</time>
      </trkpt>
      <trkpt lat="43.25396" lon="-1.4974">
        <ele>392.94</ele>
        <time>2025-05-07T16:25:18.587Z</time>
      </trkpt>
      <trkpt lat="43.25402" lon="-1.49745">
        <ele>391.91</ele>
        <time>2025-05-07T16:25:24.403Z</time>
      </trkpt>
      <trkpt lat="43.25409" lon="-1.49749">
        <ele>390.84</ele>
        <time>2025-05-07T16:25:30.222Z</time>
      </trkpt>
      <trkpt lat="43.25415" lon="-1.49752">
        <ele>389.7</ele>
        <time>2025-05-07T16:25:36.043Z</time>
      </trkpt>
      <trkpt lat="43.25422" lon="-1.49756">
        <ele>388.5</ele>
        <time>2025-05-07T16:25:41.866Z</time>
      </trkpt>
      <trkpt lat="43.25428" lon="-1.4976">
        <ele>387.28</ele>
        <time>2025-05-07T16:25:47.692Z</time>
      </trkpt>
      <trkpt lat="43.25432" lon="-1.49763">
        <ele>386.11</ele>
        <time>2025-05-07T16:25:53.519Z</time>
      </trkpt>
      <trkpt lat="43.25437" lon="-1.49767">
        <ele>384.89</ele>
        <time>2025-05-07T16:25:59.348Z</time>
      </trkpt>
      <trkpt lat="43.25442" lon="-1.4977">
        <ele>383.64</ele>
        <time>2025-05-07T16:26:05.179Z</time>
      </trkpt>
      <trkpt lat="43.25447" lon="-1.49773">
        <ele>382.36</ele>
        <time>2025-05-07T16:26:11.012Z</time>
      </trkpt>
      <trkpt lat="43.25453" lon="-1.49777">
        <ele>381.03</ele>
        <time>2025-05-07T16:26:16.847Z</time>
      </trkpt>
      <trkpt lat="43.2546" lon="-1.49782">
        <ele>379.65</ele>
        <time>2025-05-07T16:26:22.684Z</time>
      </trkpt>
      <trkpt lat="43.25468" lon="-1.49782">
        <ele>378.31</ele>
        <time>2025-05-07T16:26:28.524Z</time>
      </trkpt>
      <trkpt lat="43.25475" lon="-1.49778">
        <ele>377.02</ele>
        <time>2025-05-07T16:26:34.367Z</time>
      </trkpt>
      <trkpt lat="43.25485" lon="-1.49776">
        <ele>375.68</ele>
        <time>2025-05-07T16:26:40.213Z</time>
      </trkpt>
      <trkpt lat="43.25493" lon="-1.49779">
        <ele>374.34</ele>
        <time>2025-05-07T16:26:46.062Z</time>
      </trkpt>
      <trkpt lat="43.25498" lon="-1.49784">
        <ele>373.01</ele>
        <time>2025-05-07T16:26:51.913Z</time>
      </trkpt>
      <trkpt lat="43.25503" lon="-1.49791">
        <ele>371.67</ele>
        <time>2025-05-07T16:26:57.766Z</time>
      </trkpt>
      <trkpt lat="43.25506" lon="-1.49798">
        <ele>370.34</ele>
        <time>2025-05-07T16:27:03.621Z</time>
      </trkpt>
      <trkpt lat="43.25511" lon="-1.49802">
        <ele>368.99</ele>
        <time>2025-05-07T16:27:09.478Z</time>
      </trkpt>
      <trkpt lat="43.25513" lon="-1.49804">
        <ele>367.68</ele>
        <time>2025-05-07T16:27:15.336Z</time>
      </trkpt>
      <trkpt lat="43.25514" lon="-1.49806">
        <ele>366.37</ele>
        <time>2025-05-07T16:27:21.195Z</time>
      </trkpt>
      <trkpt lat="43.25517" lon="-1.49808">
        <ele>365.04</ele>
        <time>2025-05-07T16:27:27.055Z</time>
      </trkpt>
      <trkpt lat="43.25529" lon="-1.49802">
        <ele>363.67</ele>
        <time>2025-05-07T16:27:32.919Z</time>
      </trkpt>
      <trkpt lat="43.25536" lon="-1.498">
        <ele>362.33</ele>
        <time>2025-05-07T16:27:38.785Z</time>
      </trkpt>
      <trkpt lat="43.25543" lon="-1.49802">
        <ele>361</ele>
        <time>2025-05-07T16:27:44.654Z</time>
      </trkpt>
      <trkpt lat="43.25549" lon="-1.49807">
        <ele>359.67</ele>
        <time>2025-05-07T16:27:50.525Z</time>
      </trkpt>
      <trkpt lat="43.25555" lon="-1.49812">
        <ele>358.32</ele>
        <time>2025-05-07T16:27:56.398Z</time>
      </trkpt>
      <trkpt lat="43.25559" lon="-1.49816">
        <ele>357</ele>
        <time>2025-05-07T16:28:02.273Z</time>
      </trkpt>
      <trkpt lat="43.25565" lon="-1.4982">
        <ele>355.68</ele>
        <time>2025-05-07T16:28:08.150Z</time>
      </trkpt>
      <trkpt lat="43.25569" lon="-1.49825">
        <ele>354.39</ele>
        <time>2025-05-07T16:28:14.029Z</time>
      </trkpt>
      <trkpt lat="43.25573" lon="-1.4983">
        <ele>353.12</ele>
        <time>2025-05-07T16:28:19.910Z</time>
      </trkpt>
      <trkpt lat="43.25578" lon="-1.49833">
        <ele>351.86</ele>
        <time>2025-05-07T16:28:25.793Z</time>
      </trkpt>
      <trkpt lat="43.25582" lon="-1.49836">
        <ele>350.6</ele>
        <time>2025-05-07T16:28:31.677Z</time>
      </trkpt>
      <trkpt lat="43.25587" lon="-1.49839">
        <ele>349.36</ele>
        <time>2025-05-07T16:28:37.563Z</time>
      </trkpt>
      <trkpt lat="43.25591" lon="-1.49842">
        <ele>348.14</ele>
        <time>2025-05-07T16:28:43.451Z</time>
      </trkpt>
      <trkpt lat="43.25595" lon="-1.49846">
        <ele>346.94</ele>
        <time>2025-05-07T16:28:49.340Z</time>
      </trkpt>
      <trkpt lat="43.25599" lon="-1.49851">
        <ele>345.79</ele>
        <time>2025-05-07T16:28:55.231Z</time>
      </trkpt>
      <trkpt lat="43.25603" lon="-1.49855">
        <ele>344.66</ele>
        <time>2025-05-07T16:29:01.124Z</time>
      </trkpt>
      <trkpt lat="43.25607" lon="-1.49859">
        <ele>343.54</ele>
        <time>2025-05-07T16:29:07.018Z</time>
      </trkpt>
      <trkpt lat="43.2561" lon="-1.49864">
        <ele>342.44</ele>
        <time>2025-05-07T16:29:12.914Z</time>
      </trkpt>
      <trkpt lat="43.25615" lon="-1.49868">
        <ele>341.33</ele>
        <time>2025-05-07T16:29:18.812Z</time>
      </trkpt>
      <trkpt lat="43.25619" lon="-1.4987">
        <ele>340.25</ele>
        <time>2025-05-07T16:29:24.711Z</time>
      </trkpt>
      <trkpt lat="43.25625" lon="-1.49872">
        <ele>339.19</ele>
        <time>2025-05-07T16:29:30.612Z</time>
      </trkpt>
      <trkpt lat="43.25632" lon="-1.49874">
        <ele>338.15</ele>
        <time>2025-05-07T16:29:36.516Z</time>
      </trkpt>
      <trkpt lat="43.25638" lon="-1.49874">
        <ele>337.08</ele>
        <time>2025-05-07T16:29:42.422Z</time>
      </trkpt>
      <trkpt lat="43.25643" lon="-1.49875">
        <ele>336.01</ele>
        <time>2025-05-07T16:29:48.329Z</time>
      </trkpt>
      <trkpt lat="43.25649" lon="-1.49876">
        <ele>334.96</ele>
        <time>2025-05-07T16:29:54.238Z</time>
      </trkpt>
      <trkpt lat="43.25656" lon="-1.49877">
        <ele>333.9</ele>
        <time>2025-05-07T16:30:00.150Z</time>
      </trkpt>
      <trkpt lat="43.25661" lon="-1.49878">
        <ele>332.88</ele>
        <time>2025-05-07T16:30:06.063Z</time>
      </trkpt>
      <trkpt lat="43.25668" lon="-1.49879">
        <ele>331.85</ele>
        <time>2025-05-07T16:30:11.979Z</time>
      </trkpt>
      <trkpt lat="43.25674" lon="-1.49882">
        <ele>330.83</ele>
        <time>2025-05-07T16:30:17.897Z</time>
      </trkpt>
      <trkpt lat="43.2568" lon="-1.49884">
        <ele>329.8</ele>
        <time>2025-05-07T16:30:23.817Z</time>
      </trkpt>
      <trkpt lat="43.25684" lon="-1.49887">
        <ele>328.81</ele>
        <time>2025-05-07T16:30:29.738Z</time>
      </trkpt>
      <trkpt lat="43.25689" lon="-1.4989">
        <ele>327.81</ele>
        <time>2025-05-07T16:30:35.661Z</time>
      </trkpt>
      <trkpt lat="43.25694" lon="-1.49893">
        <ele>326.82</ele>
        <time>2025-05-07T16:30:41.586Z</time>
      </trkpt>
      <trkpt lat="43.25698" lon="-1.49895">
        <ele>325.85</ele>
        <time>2025-05-07T16:30:47.513Z</time>
      </trkpt>
      <trkpt lat="43.25705" lon="-1.499">
        <ele>324.85</ele>
        <time>2025-05-07T16:30:53.442Z</time>
      </trkpt>
      <trkpt lat="43.25708" lon="-1.49903">
        <ele>323.89</ele>
        <time>2025-05-07T16:30:59.372Z</time>
      </trkpt>
      <trkpt lat="43.25713" lon="-1.49906">
        <ele>322.91</ele>
        <time>2025-05-07T16:31:05.304Z</time>
      </trkpt>
      <trkpt lat="43.25719" lon="-1.49907">
        <ele>321.93</ele>
        <time>2025-05-07T16:31:11.238Z</time>
      </trkpt>
      <trkpt lat="43.25726" lon="-1.49909">
        <ele>320.94</ele>
        <time>2025-05-07T16:31:17.175Z</time>
      </trkpt>
      <trkpt lat="43.25736" lon="-1.49911">
        <ele>319.96</ele>
        <time>2025-05-07T16:31:23.115Z</time>
      </trkpt>
      <trkpt lat="43.25745" lon="-1.49911">
        <ele>318.96</ele>
        <time>2025-05-07T16:31:29.058Z</time>
      </trkpt>
      <trkpt lat="43.2575" lon="-1.49909">
        <ele>317.94</ele>
        <time>2025-05-07T16:31:35.003Z</time>
      </trkpt>
      <trkpt lat="43.2576" lon="-1.49908">
        <ele>316.87</ele>
        <time>2025-05-07T16:31:40.951Z</time>
      </trkpt>
      <trkpt lat="43.25771" lon="-1.49907">
        <ele>315.79</ele>
        <time>2025-05-07T16:31:46.903Z</time>
      </trkpt>
      <trkpt lat="43.2578" lon="-1.4991">
        <ele>314.71</ele>
        <time>2025-05-07T16:31:52.858Z</time>
      </trkpt>
      <trkpt lat="43.25789" lon="-1.49913">
        <ele>313.66</ele>
        <time>2025-05-07T16:31:58.816Z</time>
      </trkpt>
      <trkpt lat="43.25797" lon="-1.49919">
        <ele>312.6</ele>
        <time>2025-05-07T16:32:04.777Z</time>
      </trkpt>
      <trkpt lat="43.25804" lon="-1.49924">
        <ele>311.46</ele>
        <time>2025-05-07T16:32:10.741Z</time>
      </trkpt>
      <trkpt lat="43.2581" lon="-1.49928">
        <ele>310.32</ele>
        <time>2025-05-07T16:32:16.707Z</time>
      </trkpt>
      <trkpt lat="43.25818" lon="-1.49932">
        <ele>309.16</ele>
        <time>2025-05-07T16:32:22.676Z</time>
      </trkpt>
      <trkpt lat="43.25829" lon="-1.49938">
        <ele>307.95</ele>
        <time>2025-05-07T16:32:28.649Z</time>
      </trkpt>
      <trkpt lat="43.25837" lon="-1.49941">
        <ele>306.76</ele>
        <time>2025-05-07T16:32:34.624Z</time>
      </trkpt>
      <trkpt lat="43.25848" lon="-1.49944">
        <ele>305.53</ele>
        <time>2025-05-07T16:32:40.603Z</time>
      </trkpt>
      <trkpt lat="43.25859" lon="-1.49945">
        <ele>304.29</ele>
        <time>2025-05-07T16:32:46.586Z</time>
      </trkpt>
      <trkpt lat="43.25873" lon="-1.49949">
        <ele>303.01</ele>
        <time>2025-05-07T16:32:52.574Z</time>
      </trkpt>
      <trkpt lat="43.25883" lon="-1.49954">
        <ele>301.76</ele>
        <time>2025-05-07T16:32:58.565Z</time>
      </trkpt>
      <trkpt lat="43.25894" lon="-1.49958">
        <ele>300.51</ele>
        <time>2025-05-07T16:33:04.560Z</time>
      </trkpt>
      <trkpt lat="43.25909" lon="-1.49965">
        <ele>299.25</ele>
        <time>2025-05-07T16:33:10.560Z</time>
      </trkpt>
      <trkpt lat="43.25919" lon="-1.4997">
        <ele>297.98</ele>
        <time>2025-05-07T16:33:16.564Z</time>
      </trkpt>
      <trkpt lat="43.25935" lon="-1.49976">
        <ele>296.67</ele>
        <time>2025-05-07T16:33:22.573Z</time>
      </trkpt>
      <trkpt lat="43.25946" lon="-1.4998">
        <ele>295.35</ele>
        <time>2025-05-07T16:33:28.586Z</time>
      </trkpt>
      <trkpt lat="43.2596" lon="-1.49986">
        <ele>293.98</ele>
        <time>2025-05-07T16:33:34.604Z</time>
      </trkpt>
      <trkpt lat="43.25973" lon="-1.49992">
        <ele>292.63</ele>
        <time>2025-05-07T16:33:40.626Z</time>
      </trkpt>
      <trkpt lat="43.25982" lon="-1.49995">
        <ele>291.38</ele>
        <time>2025-05-07T16:33:46.652Z</time>
      </trkpt>
      <trkpt lat="43.25989" lon="-1.49996">
        <ele>290.15</ele>
        <time>2025-05-07T16:33:52.680Z</time>
      </trkpt>
      <trkpt lat="43.25998" lon="-1.49999">
        <ele>288.91</ele>
        <time>2025-05-07T16:33:58.711Z</time>
      </trkpt>
      <trkpt lat="43.26003" lon="-1.5">
        <ele>287.71</ele>
        <time>2025-05-07T16:34:04.744Z</time>
      </trkpt>
      <trkpt lat="43.26009" lon="-1.50001">
        <ele>286.51</ele>
        <time>2025-05-07T16:34:10.779Z</time>
      </trkpt>
      <trkpt lat="43.26015" lon="-1.50002">
        <ele>285.33</ele>
        <time>2025-05-07T16:34:16.816Z</time>
      </trkpt>
      <trkpt lat="43.2602" lon="-1.50003">
        <ele>284.18</ele>
        <time>2025-05-07T16:34:22.854Z</time>
      </trkpt>
      <trkpt lat="43.26024" lon="-1.50002">
        <ele>283.05</ele>
        <time>2025-05-07T16:34:28.894Z</time>
      </trkpt>
      <trkpt lat="43.26029" lon="-1.50001">
        <ele>281.92</ele>
        <time>2025-05-07T16:34:34.935Z</time>
      </trkpt>
      <trkpt lat="43.26035" lon="-1.5">
        <ele>280.8</ele>
        <time>2025-05-07T16:34:40.978Z</time>
      </trkpt>
      <trkpt lat="43.26042" lon="-1.49999">
        <ele>279.69</ele>
        <time>2025-05-07T16:34:47.024Z</time>
      </trkpt>
      <trkpt lat="43.26049" lon="-1.49998">
        <ele>278.59</ele>
        <time>2025-05-07T16:34:53.072Z</time>
      </trkpt>
      <trkpt lat="43.26056" lon="-1.49999">
        <ele>277.49</ele>
        <time>2025-05-07T16:34:59.122Z</time>
      </trkpt>
      <trkpt lat="43.26062" lon="-1.49998">
        <ele>276.4</ele>
        <time>2025-05-07T16:35:05.175Z</time>
      </trkpt>
      <trkpt lat="43.26067" lon="-1.49999">
        <ele>275.34</ele>
        <time>2025-05-07T16:35:11.229Z</time>
      </trkpt>
      <trkpt lat="43.26074" lon="-1.49999">
        <ele>274.28</ele>
        <time>2025-05-07T16:35:17.286Z</time>
      </trkpt>
      <trkpt lat="43.26081" lon="-1.49997">
        <ele>273.2</ele>
        <time>2025-05-07T16:35:23.345Z</time>
      </trkpt>
      <trkpt lat="43.26088" lon="-1.49996">
        <ele>272.14</ele>
        <time>2025-05-07T16:35:29.406Z</time>
      </trkpt>
      <trkpt lat="43.26096" lon="-1.49994">
        <ele>271.07</ele>
        <time>2025-05-07T16:35:35.470Z</time>
      </trkpt>
      <trkpt lat="43.26102" lon="-1.4999">
        <ele>270.02</ele>
        <time>2025-05-07T16:35:41.536Z</time>
      </trkpt>
      <trkpt lat="43.26109" lon="-1.49983">
        <ele>268.94</ele>
        <time>2025-05-07T16:35:47.605Z</time>
      </trkpt>
      <trkpt lat="43.26112" lon="-1.49976">
        <ele>267.91</ele>
        <time>2025-05-07T16:35:53.676Z</time>
      </trkpt>
      <trkpt lat="43.26113" lon="-1.4997">
        <ele>266.9</ele>
        <time>2025-05-07T16:35:59.749Z</time>
      </trkpt>
      <trkpt lat="43.26114" lon="-1.49965">
        <ele>265.89</ele>
        <time>2025-05-07T16:36:05.823Z</time>
      </trkpt>
      <trkpt lat="43.26114" lon="-1.49957">
        <ele>264.86</ele>
        <time>2025-05-07T16:36:11.899Z</time>
      </trkpt>
      <trkpt lat="43.26108" lon="-1.49947">
        <ele>263.89</ele>
        <time>2025-05-07T16:36:17.978Z</time>
      </trkpt>
      <trkpt lat="43.261" lon="-1.49942">
        <ele>262.96</ele>
        <time>2025-05-07T16:36:24.060Z</time>
      </trkpt>
      <trkpt lat="43.26095" lon="-1.49938">
        <ele>261.98</ele>
        <time>2025-05-07T16:36:30.144Z</time>
      </trkpt>
      <trkpt lat="43.26093" lon="-1.49934">
        <ele>260.93</ele>
        <time>2025-05-07T16:36:36.229Z</time>
      </trkpt>
      <trkpt lat="43.26093" lon="-1.49928">
        <ele>259.82</ele>
        <time>2025-05-07T16:36:42.315Z</time>
      </trkpt>
      <trkpt lat="43.26097" lon="-1.4992">
        <ele>258.59</ele>
        <time>2025-05-07T16:36:48.404Z</time>
      </trkpt>
      <trkpt lat="43.26107" lon="-1.49916">
        <ele>257.34</ele>
        <time>2025-05-07T16:36:54.496Z</time>
      </trkpt>
      <trkpt lat="43.26115" lon="-1.49917">
        <ele>256.14</ele>
        <time>2025-05-07T16:37:00.591Z</time>
      </trkpt>
      <trkpt lat="43.26121" lon="-1.49918">
        <ele>254.93</ele>
        <time>2025-05-07T16:37:06.688Z</time>
      </trkpt>
      <trkpt lat="43.26123" lon="-1.49919">
        <ele>253.74</ele>
        <time>2025-05-07T16:37:12.786Z</time>
      </trkpt>
      <trkpt lat="43.26133" lon="-1.49922">
        <ele>252.44</ele>
        <time>2025-05-07T16:37:18.887Z</time>
      </trkpt>
      <trkpt lat="43.26142" lon="-1.49926">
        <ele>251.17</ele>
        <time>2025-05-07T16:37:24.991Z</time>
      </trkpt>
      <trkpt lat="43.26144" lon="-1.49927">
        <ele>249.9</ele>
        <time>2025-05-07T16:37:31.096Z</time>
      </trkpt>
      <trkpt lat="43.26152" lon="-1.49932">
        <ele>248.56</ele>
        <time>2025-05-07T16:37:37.204Z</time>
      </trkpt>
      <trkpt lat="43.26158" lon="-1.49935">
        <ele>247.17</ele>
        <time>2025-05-07T16:37:43.314Z</time>
      </trkpt>
      <trkpt lat="43.26164" lon="-1.49939">
        <ele>245.75</ele>
        <time>2025-05-07T16:37:49.426Z</time>
      </trkpt>
      <trkpt lat="43.26172" lon="-1.49943">
        <ele>244.28</ele>
        <time>2025-05-07T16:37:55.541Z</time>
      </trkpt>
      <trkpt lat="43.26176" lon="-1.49945">
        <ele>242.84</ele>
        <time>2025-05-07T16:38:01.657Z</time>
      </trkpt>
      <trkpt lat="43.26184" lon="-1.49951">
        <ele>241.34</ele>
        <time>2025-05-07T16:38:07.777Z</time>
      </trkpt>
      <trkpt lat="43.26191" lon="-1.49961">
        <ele>239.81</ele>
        <time>2025-05-07T16:38:13.900Z</time>
      </trkpt>
      <trkpt lat="43.26194" lon="-1.49969">
        <ele>238.32</ele>
        <time>2025-05-07T16:38:20.025Z</time>
      </trkpt>
      <trkpt lat="43.26197" lon="-1.49974">
        <ele>236.82</ele>
        <time>2025-05-07T16:38:26.152Z</time>
      </trkpt>
      <trkpt lat="43.26202" lon="-1.49981">
        <ele>235.25</ele>
        <time>2025-05-07T16:38:32.281Z</time>
      </trkpt>
      <trkpt lat="43.26204" lon="-1.49987">
        <ele>233.78</ele>
        <time>2025-05-07T16:38:38.412Z</time>
      </trkpt>
      <trkpt lat="43.26209" lon="-1.49993">
        <ele>232.26</ele>
        <time>2025-05-07T16:38:44.545Z</time>
      </trkpt>
      <trkpt lat="43.26215" lon="-1.49999">
        <ele>230.71</ele>
        <time>2025-05-07T16:38:50.680Z</time>
      </trkpt>
      <trkpt lat="43.2622" lon="-1.50004">
        <ele>229.28</ele>
        <time>2025-05-07T16:38:56.817Z</time>
      </trkpt>
      <trkpt lat="43.26224" lon="-1.5001">
        <ele>227.89</ele>
        <time>2025-05-07T16:39:02.956Z</time>
      </trkpt>
      <trkpt lat="43.26231" lon="-1.50016">
        <ele>226.47</ele>
        <time>2025-05-07T16:39:09.098Z</time>
      </trkpt>
      <trkpt lat="43.26235" lon="-1.50018">
        <ele>225.05</ele>
        <time>2025-05-07T16:39:15.242Z</time>
      </trkpt>
      <trkpt lat="43.2624" lon="-1.50018">
        <ele>223.62</ele>
        <time>2025-05-07T16:39:21.387Z</time>
      </trkpt>
      <trkpt lat="43.26244" lon="-1.50018">
        <ele>222.23</ele>
        <time>2025-05-07T16:39:27.534Z</time>
      </trkpt>
      <trkpt lat="43.26251" lon="-1.50019">
        <ele>220.85</ele>
        <time>2025-05-07T16:39:33.683Z</time>
      </trkpt>
      <trkpt lat="43.2626" lon="-1.50019">
        <ele>219.45</ele>
        <time>2025-05-07T16:39:39.835Z</time>
      </trkpt>
      <trkpt lat="43.26267" lon="-1.50019">
        <ele>218.11</ele>
        <time>2025-05-07T16:39:45.989Z</time>
      </trkpt>
      <trkpt lat="43.26279" lon="-1.50019">
        <ele>216.74</ele>
        <time>2025-05-07T16:39:52.147Z</time>
      </trkpt>
      <trkpt lat="43.26284" lon="-1.50021">
        <ele>215.51</ele>
        <time>2025-05-07T16:39:58.307Z</time>
      </trkpt>
      <trkpt lat="43.26289" lon="-1.50026">
        <ele>214.34</ele>
        <time>2025-05-07T16:40:04.469Z</time>
      </trkpt>
      <trkpt lat="43.26292" lon="-1.50034">
        <ele>213.23</ele>
        <time>2025-05-07T16:40:10.633Z</time>
      </trkpt>
      <trkpt lat="43.26294" lon="-1.50039">
        <ele>212.17</ele>
        <time>2025-05-07T16:40:16.799Z</time>
      </trkpt>
      <trkpt lat="43.26295" lon="-1.50044">
        <ele>211.18</ele>
        <time>2025-05-07T16:40:22.966Z</time>
      </trkpt>
      <trkpt lat="43.263" lon="-1.5005">
        <ele>210.19</ele>
        <time>2025-05-07T16:40:29.135Z</time>
      </trkpt>
      <trkpt lat="43.26304" lon="-1.50052">
        <ele>209.27</ele>
        <time>2025-05-07T16:40:35.306Z</time>
      </trkpt>
      <trkpt lat="43.26307" lon="-1.50055">
        <ele>208.38</ele>
        <time>2025-05-07T16:40:41.478Z</time>
      </trkpt>
      <trkpt lat="43.26311" lon="-1.50059">
        <ele>207.53</ele>
        <time>2025-05-07T16:40:47.651Z</time>
      </trkpt>
      <trkpt lat="43.26312" lon="-1.50063">
        <ele>206.79</ele>
        <time>2025-05-07T16:40:53.825Z</time>
      </trkpt>
      <trkpt lat="43.26311" lon="-1.50069">
        <ele>206.13</ele>
        <time>2025-05-07T16:41:00.001Z</time>
      </trkpt>
      <trkpt lat="43.26307" lon="-1.5008">
        <ele>205.55</ele>
        <time>2025-05-07T16:41:06.180Z</time>
      </trkpt>
      <trkpt lat="43.26302" lon="-1.50091">
        <ele>205.01</ele>
        <time>2025-05-07T16:41:12.362Z</time>
      </trkpt>
      <trkpt lat="43.26296" lon="-1.50097">
        <ele>204.57</ele>
        <time>2025-05-07T16:41:18.547Z</time>
      </trkpt>
      <trkpt lat="43.26293" lon="-1.50104">
        <ele>204.11</ele>
        <time>2025-05-07T16:41:24.734Z</time>
      </trkpt>
      <trkpt lat="43.26284" lon="-1.50108">
        <ele>203.81</ele>
        <time>2025-05-07T16:41:30.924Z</time>
      </trkpt>
      <trkpt lat="43.26279" lon="-1.50114">
        <ele>203.47</ele>
        <time>2025-05-07T16:41:37.116Z</time>
      </trkpt>
      <trkpt lat="43.26271" lon="-1.50127">
        <ele>203.1</ele>
        <time>2025-05-07T16:41:43.312Z</time>
      </trkpt>
      <trkpt lat="43.26265" lon="-1.50137">
        <ele>202.77</ele>
        <time>2025-05-07T16:41:49.511Z</time>
      </trkpt>
      <trkpt lat="43.26254" lon="-1.50145">
        <ele>202.56</ele>
        <time>2025-05-07T16:41:55.714Z</time>
      </trkpt>
      <trkpt lat="43.26248" lon="-1.50151">
        <ele>202.35</ele>
        <time>2025-05-07T16:42:01.920Z</time>
      </trkpt>
      <trkpt lat="43.2624" lon="-1.50156">
        <ele>202.17</ele>
        <time>2025-05-07T16:42:08.129Z</time>
      </trkpt>
      <trkpt lat="43.2623" lon="-1.5016">
        <ele>201.99</ele>
        <time>2025-05-07T16:42:14.341Z</time>
      </trkpt>
      <trkpt lat="43.2622" lon="-1.50164">
        <ele>201.81</ele>
        <time>2025-05-07T16:42:20.557Z</time>
      </trkpt>
      <trkpt lat="43.26213" lon="-1.50165">
        <ele>201.65</ele>
        <time>2025-05-07T16:42:26.775Z</time>
      </trkpt>
      <trkpt lat="43.26198" lon="-1.50171">
        <ele>201.45</ele>
        <time>2025-05-07T16:42:32.998Z</time>
      </trkpt>
      <trkpt lat="43.26186" lon="-1.50177">
        <ele>201.23</ele>
        <time>2025-05-07T16:42:39.226Z</time>
      </trkpt>
      <trkpt lat="43.26174" lon="-1.50181">
        <ele>201.08</ele>
        <time>2025-05-07T16:42:45.458Z</time>
      </trkpt>
      <trkpt lat="43.26176" lon="-1.50185">
        <ele>200.73</ele>
        <time>2025-05-07T16:42:51.691Z</time>
      </trkpt>
      <trkpt lat="43.26178" lon="-1.50186">
        <ele>200.41</ele>
        <time>2025-05-07T16:42:57.925Z</time>
      </trkpt>
      <trkpt lat="43.2618" lon="-1.50188">
        <ele>200.04</ele>
        <time>2025-05-07T16:43:04.159Z</time>
      </trkpt>
      <trkpt lat="43.26181" lon="-1.50189">
        <ele>199.67</ele>
        <time>2025-05-07T16:43:10.394Z</time>
      </trkpt>
      <trkpt lat="43.26185" lon="-1.50191">
        <ele>199.22</ele>
        <time>2025-05-07T16:43:16.630Z</time>
      </trkpt>
      <trkpt lat="43.26188" lon="-1.5019">
        <ele>198.78</ele>
        <time>2025-05-07T16:43:22.867Z</time>
      </trkpt>
      <trkpt lat="43.26193" lon="-1.50189">
        <ele>198.32</ele>
        <time>2025-05-07T16:43:29.106Z</time>
      </trkpt>
      <trkpt lat="43.262" lon="-1.5019">
        <ele>197.79</ele>
        <time>2025-05-07T16:43:35.347Z</time>
      </trkpt>
      <trkpt lat="43.26207" lon="-1.50191">
        <ele>197.23</ele>
        <time>2025-05-07T16:43:41.591Z</time>
      </trkpt>
      <trkpt lat="43.26213" lon="-1.50189">
        <ele>196.66</ele>
        <time>2025-05-07T16:43:47.837Z</time>
      </trkpt>
      <trkpt lat="43.26221" lon="-1.50187">
        <ele>196.03</ele>
        <time>2025-05-07T16:43:54.085Z</time>
      </trkpt>
      <trkpt lat="43.2623" lon="-1.50186">
        <ele>195.35</ele>
        <time>2025-05-07T16:44:00.336Z</time>
      </trkpt>
      <trkpt lat="43.26244" lon="-1.50178">
        <ele>194.67</ele>
        <time>2025-05-07T16:44:06.592Z</time>
      </trkpt>
      <trkpt lat="43.26253" lon="-1.50178">
        <ele>193.81</ele>
        <time>2025-05-07T16:44:12.851Z</time>
      </trkpt>
      <trkpt lat="43.26258" lon="-1.50178">
        <ele>192.98</ele>
        <time>2025-05-07T16:44:19.112Z</time>
      </trkpt>
      <trkpt lat="43.26264" lon="-1.50176">
        <ele>192.13</ele>
        <time>2025-05-07T16:44:25.375Z</time>
      </trkpt>
      <trkpt lat="43.2627" lon="-1.50176">
        <ele>191.22</ele>
        <time>2025-05-07T16:44:31.640Z</time>
      </trkpt>
      <trkpt lat="43.26278" lon="-1.50173">
        <ele>190.31</ele>
        <time>2025-05-07T16:44:37.908Z</time>
      </trkpt>
      <trkpt lat="43.26284" lon="-1.50171">
        <ele>189.4</ele>
        <time>2025-05-07T16:44:44.178Z</time>
      </trkpt>
      <trkpt lat="43.2629" lon="-1.50168">
        <ele>188.49</ele>
        <time>2025-05-07T16:44:50.450Z</time>
      </trkpt>
      <trkpt lat="43.26295" lon="-1.50166">
        <ele>187.57</ele>
        <time>2025-05-07T16:44:56.724Z</time>
      </trkpt>
      <trkpt lat="43.26298" lon="-1.50166">
        <ele>186.64</ele>
        <time>2025-05-07T16:45:02.999Z</time>
      </trkpt>
      <trkpt lat="43.26305" lon="-1.50165">
        <ele>185.69</ele>
        <time>2025-05-07T16:45:09.276Z</time>
      </trkpt>
      <trkpt lat="43.26311" lon="-1.50164">
        <ele>184.75</ele>
        <time>2025-05-07T16:45:15.555Z</time>
      </trkpt>
      <trkpt lat="43.26315" lon="-1.50163">
        <ele>183.82</ele>
        <time>2025-05-07T16:45:21.836Z</time>
      </trkpt>
      <trkpt lat="43.26319" lon="-1.50164">
        <ele>182.87</ele>
        <time>2025-05-07T16:45:28.118Z</time>
      </trkpt>
      <trkpt lat="43.26322" lon="-1.50164">
        <ele>181.92</ele>
        <time>2025-05-07T16:45:34.401Z</time>
      </trkpt>
      <trkpt lat="43.26326" lon="-1.50166">
        <ele>180.95</ele>
        <time>2025-05-07T16:45:40.685Z</time>
      </trkpt>
      <trkpt lat="43.26328" lon="-1.50163">
        <ele>180.04</ele>
        <time>2025-05-07T16:45:46.970Z</time>
      </trkpt>
      <trkpt lat="43.2633" lon="-1.50161">
        <ele>179.1</ele>
        <time>2025-05-07T16:45:53.256Z</time>
      </trkpt>
      <trkpt lat="43.26331" lon="-1.5016">
        <ele>178.15</ele>
        <time>2025-05-07T16:45:59.543Z</time>
      </trkpt>
      <trkpt lat="43.26334" lon="-1.50158">
        <ele>177.17</ele>
        <time>2025-05-07T16:46:05.831Z</time>
      </trkpt>
      <trkpt lat="43.26338" lon="-1.50155">
        <ele>176.18</ele>
        <time>2025-05-07T16:46:12.120Z</time>
      </trkpt>
      <trkpt lat="43.26342" lon="-1.50157">
        <ele>175.14</ele>
        <time>2025-05-07T16:46:18.411Z</time>
      </trkpt>
      <trkpt lat="43.26347" lon="-1.5016">
        <ele>174.07</ele>
        <time>2025-05-07T16:46:24.703Z</time>
      </trkpt>
      <trkpt lat="43.26353" lon="-1.50162">
        <ele>173.01</ele>
        <time>2025-05-07T16:46:30.997Z</time>
      </trkpt>
      <trkpt lat="43.26357" lon="-1.50161">
        <ele>172.03</ele>
        <time>2025-05-07T16:46:37.293Z</time>
      </trkpt>
      <trkpt lat="43.26362" lon="-1.5016">
        <ele>171.04</ele>
        <time>2025-05-07T16:46:43.591Z</time>
      </trkpt>
      <trkpt lat="43.26369" lon="-1.5016">
        <ele>170.03</ele>
        <time>2025-05-07T16:46:49.891Z</time>
      </trkpt>
      <trkpt lat="43.26374" lon="-1.5016">
        <ele>169.05</ele>
        <time>2025-05-07T16:46:56.193Z</time>
      </trkpt>
      <trkpt lat="43.2638" lon="-1.50159">
        <ele>168.07</ele>
        <time>2025-05-07T16:47:02.497Z</time>
      </trkpt>
      <trkpt lat="43.26384" lon="-1.50157">
        <ele>167.13</ele>
        <time>2025-05-07T16:47:08.802Z</time>
      </trkpt>
      <trkpt lat="43.26389" lon="-1.50155">
        <ele>166.18</ele>
        <time>2025-05-07T16:47:15.109Z</time>
      </trkpt>
      <trkpt lat="43.26394" lon="-1.5015">
        <ele>165.24</ele>
        <time>2025-05-07T16:47:21.418Z</time>
      </trkpt>
      <trkpt lat="43.26397" lon="-1.50149">
        <ele>164.28</ele>
        <time>2025-05-07T16:47:27.728Z</time>
      </trkpt>
      <trkpt lat="43.26399" lon="-1.50149">
        <ele>163.3</ele>
        <time>2025-05-07T16:47:34.038Z</time>
      </trkpt>
      <trkpt lat="43.26403" lon="-1.50147">
        <ele>162.31</ele>
        <time>2025-05-07T16:47:40.350Z</time>
      </trkpt>
      <trkpt lat="43.26406" lon="-1.50146">
        <ele>161.3</ele>
        <time>2025-05-07T16:47:46.663Z</time>
      </trkpt>
      <trkpt lat="43.26411" lon="-1.50149">
        <ele>160.23</ele>
        <time>2025-05-07T16:47:52.978Z</time>
      </trkpt>
      <trkpt lat="43.26417" lon="-1.5015">
        <ele>159.11</ele>
        <time>2025-05-07T16:47:59.295Z</time>
      </trkpt>
      <trkpt lat="43.26422" lon="-1.50155">
        <ele>158</ele>
        <time>2025-05-07T16:48:05.614Z</time>
      </trkpt>
      <trkpt lat="43.26425" lon="-1.50161">
        <ele>156.95</ele>
        <time>2025-05-07T16:48:11.935Z</time>
      </trkpt>
      <trkpt lat="43.26427" lon="-1.50174">
        <ele>155.85</ele>
        <time>2025-05-07T16:48:18.259Z</time>
      </trkpt>
      <trkpt lat="43.26428" lon="-1.50183">
        <ele>154.78</ele>
        <time>2025-05-07T16:48:24.585Z</time>
      </trkpt>
      <trkpt lat="43.26429" lon="-1.50194">
        <ele>153.7</ele>
        <time>2025-05-07T16:48:30.914Z</time>
      </trkpt>
      <trkpt lat="43.26423" lon="-1.50212">
        <ele>152.68</ele>
        <time>2025-05-07T16:48:37.248Z</time>
      </trkpt>
      <trkpt lat="43.26415" lon="-1.50225">
        <ele>151.71</ele>
        <time>2025-05-07T16:48:43.586Z</time>
      </trkpt>
      <trkpt lat="43.26407" lon="-1.50235">
        <ele>150.73</ele>
        <time>2025-05-07T16:48:49.927Z</time>
      </trkpt>
      <trkpt lat="43.264" lon="-1.50241">
        <ele>149.73</ele>
        <time>2025-05-07T16:48:56.271Z</time>
      </trkpt>
      <trkpt lat="43.26394" lon="-1.50245">
        <ele>148.7</ele>
        <time>2025-05-07T16:49:02.617Z</time>
      </trkpt>
      <trkpt lat="43.26391" lon="-1.50248">
        <ele>147.62</ele>
        <time>2025-05-07T16:49:08.964Z</time>
      </trkpt>
      <trkpt lat="43.26389" lon="-1.50252">
        <ele>146.46</ele>
        <time>2025-05-07T16:49:15.313Z</time>
      </trkpt>
      <trkpt lat="43.26392" lon="-1.50258">
        <ele>145.19</ele>
        <time>2025-05-07T16:49:21.663Z</time>
      </trkpt>
      <trkpt lat="43.26395" lon="-1.50262">
        <ele>143.95</ele>
        <time>2025-05-07T16:49:28.015Z</time>
      </trkpt>
      <trkpt lat="43.26398" lon="-1.50264">
        <ele>142.73</ele>
        <time>2025-05-07T16:49:34.368Z</time>
      </trkpt>
      <trkpt lat="43.26403" lon="-1.50264">
        <ele>141.5</ele>
        <time>2025-05-07T16:49:40.723Z</time>
      </trkpt>
      <trkpt lat="43.26407" lon="-1.50265">
        <ele>140.26</ele>
        <time>2025-05-07T16:49:47.079Z</time>
      </trkpt>
      <trkpt lat="43.2641" lon="-1.50265">
        <ele>139.03</ele>
        <time>2025-05-07T16:49:53.436Z</time>
      </trkpt>
      <trkpt lat="43.26414" lon="-1.50267">
        <ele>137.73</ele>
        <time>2025-05-07T16:49:59.794Z</time>
      </trkpt>
      <trkpt lat="43.26415" lon="-1.50268">
        <ele>136.5</ele>
        <time>2025-05-07T16:50:06.153Z</time>
      </trkpt>
      <trkpt lat="43.26418" lon="-1.50268">
        <ele>135.24</ele>
        <time>2025-05-07T16:50:12.513Z</time>
      </trkpt>
      <trkpt lat="43.26421" lon="-1.5027">
        <ele>133.91</ele>
        <time>2025-05-07T16:50:18.874Z</time>
      </trkpt>
      <trkpt lat="43.26426" lon="-1.50272">
        <ele>132.56</ele>
        <time>2025-05-07T16:50:25.237Z</time>
      </trkpt>
      <trkpt lat="43.26432" lon="-1.50269">
        <ele>131.31</ele>
        <time>2025-05-07T16:50:31.602Z</time>
      </trkpt>
      <trkpt lat="43.26439" lon="-1.50267">
        <ele>130.01</ele>
        <time>2025-05-07T16:50:37.969Z</time>
      </trkpt>
      <trkpt lat="43.26443" lon="-1.50262">
        <ele>128.79</ele>
        <time>2025-05-07T16:50:44.338Z</time>
      </trkpt>
      <trkpt lat="43.26447" lon="-1.50259">
        <ele>127.51</ele>
        <time>2025-05-07T16:50:50.708Z</time>
      </trkpt>
      <trkpt lat="43.26451" lon="-1.50258">
        <ele>126.16</ele>
        <time>2025-05-07T16:50:57.080Z</time>
      </trkpt>
      <trkpt lat="43.26457" lon="-1.50257">
        <ele>124.79</ele>
        <time>2025-05-07T16:51:03.454Z</time>
      </trkpt>
      <trkpt lat="43.26462" lon="-1.50256">
        <ele>123.47</ele>
        <time>2025-05-07T16:51:09.830Z</time>
      </trkpt>
      <trkpt lat="43.26468" lon="-1.50256">
        <ele>122.17</ele>
        <time>2025-05-07T16:51:16.208Z</time>
      </trkpt>
      <trkpt lat="43.26473" lon="-1.50254">
        <ele>120.97</ele>
        <time>2025-05-07T16:51:22.587Z</time>
      </trkpt>
      <trkpt lat="43.26475" lon="-1.50254">
        <ele>119.79</ele>
        <time>2025-05-07T16:51:28.967Z</time>
      </trkpt>
      <trkpt lat="43.26481" lon="-1.50253">
        <ele>118.59</ele>
        <time>2025-05-07T16:51:35.349Z</time>
      </trkpt>
      <trkpt lat="43.26489" lon="-1.50247">
        <ele>117.45</ele>
        <time>2025-05-07T16:51:41.734Z</time>
      </trkpt>
      <trkpt lat="43.26496" lon="-1.50241">
        <ele>116.32</ele>
        <time>2025-05-07T16:51:48.122Z</time>
      </trkpt>
      <trkpt lat="43.265" lon="-1.50234">
        <ele>115.27</ele>
        <time>2025-05-07T16:51:54.512Z</time>
      </trkpt>
      <trkpt lat="43.26505" lon="-1.50225">
        <ele>114.21</ele>
        <time>2025-05-07T16:52:00.905Z</time>
      </trkpt>
      <trkpt lat="43.26512" lon="-1.50214">
        <ele>113.03</ele>
        <time>2025-05-07T16:52:07.301Z</time>
      </trkpt>
      <trkpt lat="43.2652" lon="-1.50205">
        <ele>111.86</ele>
        <time>2025-05-07T16:52:13.701Z</time>
      </trkpt>
      <trkpt lat="43.2652" lon="-1.50203">
        <ele>110.96</ele>
        <time>2025-05-07T16:52:20.101Z</time>
      </trkpt>
      <trkpt lat="43.26522" lon="-1.50197">
        <ele>110.03</ele>
        <time>2025-05-07T16:52:26.503Z</time>
      </trkpt>
      <trkpt lat="43.26525" lon="-1.5019">
        <ele>109.13</ele>
        <time>2025-05-07T16:52:32.907Z</time>
      </trkpt>
      <trkpt lat="43.26528" lon="-1.50186">
        <ele>108.27</ele>
        <time>2025-05-07T16:52:39.312Z</time>
      </trkpt>
      <trkpt lat="43.26532" lon="-1.50182">
        <ele>107.45</ele>
        <time>2025-05-07T16:52:45.719Z</time>
      </trkpt>
      <trkpt lat="43.26537" lon="-1.50175">
        <ele>106.68</ele>
        <time>2025-05-07T16:52:52.128Z</time>
      </trkpt>
      <trkpt lat="43.26539" lon="-1.5017">
        <ele>106.02</ele>
        <time>2025-05-07T16:52:58.539Z</time>
      </trkpt>
      <trkpt lat="43.26541" lon="-1.50165">
        <ele>105.4</ele>
        <time>2025-05-07T16:53:04.951Z</time>
      </trkpt>
      <trkpt lat="43.26548" lon="-1.5016">
        <ele>104.75</ele>
        <time>2025-05-07T16:53:11.366Z</time>
      </trkpt>
      <trkpt lat="43.26555" lon="-1.50153">
        <ele>104.3</ele>
        <time>2025-05-07T16:53:17.783Z</time>
      </trkpt>
      <trkpt lat="43.26558" lon="-1.50153">
        <ele>103.79</ele>
        <time>2025-05-07T16:53:24.201Z</time>
      </trkpt>
      <trkpt lat="43.26563" lon="-1.50156">
        <ele>103.27</ele>
        <time>2025-05-07T16:53:30.621Z</time>
      </trkpt>
      <trkpt lat="43.2657" lon="-1.50166">
        <ele>102.71</ele>
        <time>2025-05-07T16:53:37.045Z</time>
      </trkpt>
      <trkpt lat="43.26583" lon="-1.50168">
        <ele>102.25</ele>
        <time>2025-05-07T16:53:43.473Z</time>
      </trkpt>
      <trkpt lat="43.26602" lon="-1.50168">
        <ele>101.77</ele>
        <time>2025-05-07T16:53:49.907Z</time>
      </trkpt>
      <trkpt lat="43.26614" lon="-1.50178">
        <ele>101.08</ele>
        <time>2025-05-07T16:53:56.346Z</time>
      </trkpt>
      <trkpt lat="43.26627" lon="-1.50195">
        <ele>100.14</ele>
        <time>2025-05-07T16:54:02.791Z</time>
      </trkpt>
      <trkpt lat="43.26637" lon="-1.50217">
        <ele>99.34</ele>
        <time>2025-05-07T16:54:09.242Z</time>
      </trkpt>
      <trkpt lat="43.2664" lon="-1.50222">
        <ele>98.91</ele>
        <time>2025-05-07T16:54:15.695Z</time>
      </trkpt>
      <trkpt lat="43.26651" lon="-1.50241">
        <ele>98.59</ele>
        <time>2025-05-07T16:54:22.154Z</time>
      </trkpt>
      <trkpt lat="43.26658" lon="-1.50254">
        <ele>98.12</ele>
        <time>2025-05-07T16:54:28.617Z</time>
      </trkpt>
      <trkpt lat="43.26669" lon="-1.50268">
        <ele>97.71</ele>
        <time>2025-05-07T16:54:35.085Z</time>
      </trkpt>
      <trkpt lat="43.26684" lon="-1.50283">
        <ele>97.3</ele>
        <time>2025-05-07T16:54:41.559Z</time>
      </trkpt>
      <trkpt lat="43.26687" lon="-1.5029">
        <ele>97.16</ele>
        <time>2025-05-07T16:54:48.035Z</time>
      </trkpt>
      <trkpt lat="43.26678" lon="-1.50312">
        <ele>97.09</ele>
        <time>2025-05-07T16:54:54.517Z</time>
      </trkpt>
      <trkpt lat="43.26666" lon="-1.50318">
        <ele>97.02</ele>
        <time>2025-05-07T16:55:01.003Z</time>
      </trkpt>
      <trkpt lat="43.26664" lon="-1.50316">
        <ele>96.91</ele>
        <time>2025-05-07T16:55:07.490Z</time>
      </trkpt>
    </trkseg>
  </trk>
</gpx>